<?xml version="1.0" encoding="UTF-8" standalone="yes"?>
<gpx
 xmlns="http://www.topografix.com/GPX/1/1"
 creator="OziExplorer Version 3956f - http://www.oziexplorer.com"
 version="1.1"
 xmlns:xsi="http://www.w3.org/2001/XMLSchema-instance"
 xsi:schemaLocation="http://www.topografix.com/GPX/1/1 http://www.topografix.com/GPX/1/1/gpx.xsd">
<metadata>
 <time>2024-02-20T08:17:38Z</time>
 <bounds minlat="31.877410" minlon="34.963430" maxlat="31.925740" maxlon="35.024910"/>
</metadata>
<wpt lat="31.9238600" lon="34.9663000">
 <time>2024-02-20T10:15:30.742Z</time>
 <name>St\Fin</name>
 <sym>Bike Trail</sym>
</wpt>
<trk>
 <name>ModiinRout28km350m</name>
 <desc>ModiinRout28km350m</desc>
<trkseg>
<trkpt lat="31.9238000" lon="34.9663100">
<ele>166.770004</ele>
<time>2024-02-20T10:15:30.742Z</time>
</trkpt>
<trkpt lat="31.9238300" lon="34.9662200">
<ele>167.979996</ele>
<time>2024-02-20T10:15:30.742Z</time>
</trkpt>
<trkpt lat="31.9236800" lon="34.9661600">
<ele>163.830002</ele>
<time>2024-02-20T10:15:30.742Z</time>
</trkpt>
<trkpt lat="31.9232400" lon="34.9659600">
<ele>153.050003</ele>
<time>2024-02-20T10:15:30.742Z</time>
</trkpt>
<trkpt lat="31.9232500" lon="34.9659400">
<ele>153.020004</ele>
<time>2024-02-20T10:15:30.742Z</time>
</trkpt>
<trkpt lat="31.9232500" lon="34.9659100">
<ele>152.759995</ele>
<time>2024-02-20T10:15:30.742Z</time>
</trkpt>
<trkpt lat="31.9232500" lon="34.9658800">
<ele>152.500000</ele>
<time>2024-02-20T10:15:30.742Z</time>
</trkpt>
<trkpt lat="31.9232400" lon="34.9658500">
<ele>152.130005</ele>
<time>2024-02-20T10:15:30.742Z</time>
</trkpt>
<trkpt lat="31.9232400" lon="34.9658300">
<ele>151.989990</ele>
<time>2024-02-20T10:15:30.742Z</time>
</trkpt>
<trkpt lat="31.9232200" lon="34.9658000">
<ele>151.730011</ele>
<time>2024-02-20T10:15:30.742Z</time>
</trkpt>
<trkpt lat="31.9232100" lon="34.9657800">
<ele>151.580002</ele>
<time>2024-02-20T10:15:30.742Z</time>
</trkpt>
<trkpt lat="31.9231900" lon="34.9657700">
<ele>151.330002</ele>
<time>2024-02-20T10:15:30.742Z</time>
</trkpt>
<trkpt lat="31.9231700" lon="34.9657500">
<ele>151.059998</ele>
<time>2024-02-20T10:15:30.742Z</time>
</trkpt>
<trkpt lat="31.9231500" lon="34.9657400">
<ele>150.800003</ele>
<time>2024-02-20T10:15:30.742Z</time>
</trkpt>
<trkpt lat="31.9231300" lon="34.9657300">
<ele>150.529999</ele>
<time>2024-02-20T10:15:30.742Z</time>
</trkpt>
<trkpt lat="31.9231000" lon="34.9657300">
<ele>150.169998</ele>
<time>2024-02-20T10:15:30.742Z</time>
</trkpt>
<trkpt lat="31.9230800" lon="34.9657300">
<ele>149.919998</ele>
<time>2024-02-20T10:15:30.742Z</time>
</trkpt>
<trkpt lat="31.9230600" lon="34.9657400">
<ele>149.720001</ele>
<time>2024-02-20T10:15:30.742Z</time>
</trkpt>
<trkpt lat="31.9230400" lon="34.9657500">
<ele>149.869995</ele>
<time>2024-02-20T10:15:30.742Z</time>
</trkpt>
<trkpt lat="31.9230200" lon="34.9657700">
<ele>150.160004</ele>
<time>2024-02-20T10:15:30.742Z</time>
</trkpt>
<trkpt lat="31.9230000" lon="34.9657800">
<ele>150.410004</ele>
<time>2024-02-20T10:15:30.742Z</time>
</trkpt>
<trkpt lat="31.9229800" lon="34.9658000">
<ele>150.699997</ele>
<time>2024-02-20T10:15:30.742Z</time>
</trkpt>
<trkpt lat="31.9229700" lon="34.9658300">
<ele>150.910004</ele>
<time>2024-02-20T10:15:30.742Z</time>
</trkpt>
<trkpt lat="31.9229600" lon="34.9658500">
<ele>151.069992</ele>
<time>2024-02-20T10:15:30.742Z</time>
</trkpt>
<trkpt lat="31.9229600" lon="34.9658800">
<ele>151.139999</ele>
<time>2024-02-20T10:15:30.742Z</time>
</trkpt>
<trkpt lat="31.9229600" lon="34.9659100">
<ele>151.209991</ele>
<time>2024-02-20T10:15:30.742Z</time>
</trkpt>
<trkpt lat="31.9229600" lon="34.9659400">
<ele>151.279999</ele>
<time>2024-02-20T10:15:30.742Z</time>
</trkpt>
<trkpt lat="31.9229600" lon="34.9659600">
<ele>151.330002</ele>
<time>2024-02-20T10:15:30.742Z</time>
</trkpt>
<trkpt lat="31.9229700" lon="34.9659900">
<ele>151.309998</ele>
<time>2024-02-20T10:15:30.742Z</time>
</trkpt>
<trkpt lat="31.9229700" lon="34.9660100">
<ele>151.360001</ele>
<time>2024-02-20T10:15:30.742Z</time>
</trkpt>
<trkpt lat="31.9229700" lon="34.9660300">
<ele>151.410004</ele>
<time>2024-02-20T10:15:30.742Z</time>
</trkpt>
<trkpt lat="31.9229700" lon="34.9660500">
<ele>151.460007</ele>
<time>2024-02-20T10:15:30.742Z</time>
</trkpt>
<trkpt lat="31.9229600" lon="34.9660700">
<ele>151.589996</ele>
<time>2024-02-20T10:15:30.742Z</time>
</trkpt>
<trkpt lat="31.9229600" lon="34.9660900">
<ele>151.639999</ele>
<time>2024-02-20T10:15:30.742Z</time>
</trkpt>
<trkpt lat="31.9229600" lon="34.9661200">
<ele>151.740005</ele>
<time>2024-02-20T10:15:30.742Z</time>
</trkpt>
<trkpt lat="31.9229600" lon="34.9661400">
<ele>151.860001</ele>
<time>2024-02-20T10:15:30.742Z</time>
</trkpt>
<trkpt lat="31.9229500" lon="34.9661600">
<ele>152.020004</ele>
<time>2024-02-20T10:15:30.742Z</time>
</trkpt>
<trkpt lat="31.9229500" lon="34.9661900">
<ele>152.180008</ele>
<time>2024-02-20T10:15:30.742Z</time>
</trkpt>
<trkpt lat="31.9228200" lon="34.9670000">
<ele>153.910004</ele>
<time>2024-02-20T10:15:30.742Z</time>
</trkpt>
<trkpt lat="31.9228100" lon="34.9670200">
<ele>154.010010</ele>
<time>2024-02-20T10:15:30.742Z</time>
</trkpt>
<trkpt lat="31.9228000" lon="34.9670400">
<ele>154.139999</ele>
<time>2024-02-20T10:15:30.742Z</time>
</trkpt>
<trkpt lat="31.9228000" lon="34.9670600">
<ele>154.470001</ele>
<time>2024-02-20T10:15:30.742Z</time>
</trkpt>
<trkpt lat="31.9227900" lon="34.9670800">
<ele>154.639999</ele>
<time>2024-02-20T10:15:30.742Z</time>
</trkpt>
<trkpt lat="31.9227800" lon="34.9671000">
<ele>154.830002</ele>
<time>2024-02-20T10:15:30.742Z</time>
</trkpt>
<trkpt lat="31.9227700" lon="34.9671100">
<ele>155.100006</ele>
<time>2024-02-20T10:15:30.742Z</time>
</trkpt>
<trkpt lat="31.9227600" lon="34.9671300">
<ele>155.619995</ele>
<time>2024-02-20T10:15:30.742Z</time>
</trkpt>
<trkpt lat="31.9227500" lon="34.9671400">
<ele>155.949997</ele>
<time>2024-02-20T10:15:30.742Z</time>
</trkpt>
<trkpt lat="31.9227400" lon="34.9671500">
<ele>156.279999</ele>
<time>2024-02-20T10:15:30.742Z</time>
</trkpt>
<trkpt lat="31.9227100" lon="34.9671700">
<ele>157.079987</ele>
<time>2024-02-20T10:15:30.742Z</time>
</trkpt>
<trkpt lat="31.9226900" lon="34.9671900">
<ele>157.719986</ele>
<time>2024-02-20T10:15:30.742Z</time>
</trkpt>
<trkpt lat="31.9226700" lon="34.9672100">
<ele>158.350006</ele>
<time>2024-02-20T10:15:30.742Z</time>
</trkpt>
<trkpt lat="31.9226600" lon="34.9672400">
<ele>158.889999</ele>
<time>2024-02-20T10:15:30.742Z</time>
</trkpt>
<trkpt lat="31.9226400" lon="34.9672700">
<ele>159.500000</ele>
<time>2024-02-20T10:15:30.742Z</time>
</trkpt>
<trkpt lat="31.9226300" lon="34.9673100">
<ele>160.080002</ele>
<time>2024-02-20T10:15:30.742Z</time>
</trkpt>
<trkpt lat="31.9226300" lon="34.9673400">
<ele>160.399994</ele>
<time>2024-02-20T10:15:30.742Z</time>
</trkpt>
<trkpt lat="31.9226300" lon="34.9673800">
<ele>160.830002</ele>
<time>2024-02-20T10:15:30.742Z</time>
</trkpt>
<trkpt lat="31.9226300" lon="34.9674300">
<ele>161.369995</ele>
<time>2024-02-20T10:15:30.742Z</time>
</trkpt>
<trkpt lat="31.9226400" lon="34.9674700">
<ele>161.659988</ele>
<time>2024-02-20T10:15:30.742Z</time>
</trkpt>
<trkpt lat="31.9226500" lon="34.9675100">
<ele>161.990005</ele>
<time>2024-02-20T10:15:30.742Z</time>
</trkpt>
<trkpt lat="31.9226600" lon="34.9675500">
<ele>162.470001</ele>
<time>2024-02-20T10:15:30.742Z</time>
</trkpt>
<trkpt lat="31.9226800" lon="34.9675900">
<ele>162.899994</ele>
<time>2024-02-20T10:15:30.742Z</time>
</trkpt>
<trkpt lat="31.9226900" lon="34.9676000">
<ele>162.970001</ele>
<time>2024-02-20T10:15:30.742Z</time>
</trkpt>
<trkpt lat="31.9227000" lon="34.9676200">
<ele>163.229996</ele>
<time>2024-02-20T10:15:30.742Z</time>
</trkpt>
<trkpt lat="31.9227200" lon="34.9676400">
<ele>163.440002</ele>
<time>2024-02-20T10:15:30.742Z</time>
</trkpt>
<trkpt lat="31.9227500" lon="34.9676600">
<ele>163.629990</ele>
<time>2024-02-20T10:15:30.742Z</time>
</trkpt>
<trkpt lat="31.9227700" lon="34.9676800">
<ele>163.929993</ele>
<time>2024-02-20T10:15:30.742Z</time>
</trkpt>
<trkpt lat="31.9228000" lon="34.9676900">
<ele>164.310013</ele>
<time>2024-02-20T10:15:30.742Z</time>
</trkpt>
<trkpt lat="31.9228200" lon="34.9676900">
<ele>164.500000</ele>
<time>2024-02-20T10:15:30.742Z</time>
</trkpt>
<trkpt lat="31.9228500" lon="34.9676900">
<ele>164.789993</ele>
<time>2024-02-20T10:15:30.742Z</time>
</trkpt>
<trkpt lat="31.9228700" lon="34.9676800">
<ele>164.789993</ele>
<time>2024-02-20T10:15:30.742Z</time>
</trkpt>
<trkpt lat="31.9228500" lon="34.9676900">
<ele>164.789993</ele>
<time>2024-02-20T10:15:30.742Z</time>
</trkpt>
<trkpt lat="31.9228500" lon="34.9677100">
<ele>165.180008</ele>
<time>2024-02-20T10:15:30.742Z</time>
</trkpt>
<trkpt lat="31.9228400" lon="34.9677200">
<ele>165.290009</ele>
<time>2024-02-20T10:15:30.742Z</time>
</trkpt>
<trkpt lat="31.9228300" lon="34.9677400">
<ele>165.610001</ele>
<time>2024-02-20T10:15:30.742Z</time>
</trkpt>
<trkpt lat="31.9228200" lon="34.9677500">
<ele>165.729996</ele>
<time>2024-02-20T10:15:30.742Z</time>
</trkpt>
<trkpt lat="31.9228100" lon="34.9677700">
<ele>166.069992</ele>
<time>2024-02-20T10:15:30.742Z</time>
</trkpt>
<trkpt lat="31.9228100" lon="34.9677900">
<ele>166.239990</ele>
<time>2024-02-20T10:15:30.742Z</time>
</trkpt>
<trkpt lat="31.9228000" lon="34.9678100">
<ele>166.170013</ele>
<time>2024-02-20T10:15:30.742Z</time>
</trkpt>
<trkpt lat="31.9227900" lon="34.9678400">
<ele>166.100006</ele>
<time>2024-02-20T10:15:30.742Z</time>
</trkpt>
<trkpt lat="31.9227900" lon="34.9678600">
<ele>166.100006</ele>
<time>2024-02-20T10:15:30.742Z</time>
</trkpt>
<trkpt lat="31.9227100" lon="34.9684200">
<ele>161.899994</ele>
<time>2024-02-20T10:15:30.742Z</time>
</trkpt>
<trkpt lat="31.9227000" lon="34.9684800">
<ele>161.220001</ele>
<time>2024-02-20T10:15:30.742Z</time>
</trkpt>
<trkpt lat="31.9226900" lon="34.9685500">
<ele>160.379990</ele>
<time>2024-02-20T10:15:30.742Z</time>
</trkpt>
<trkpt lat="31.9226700" lon="34.9686200">
<ele>159.450012</ele>
<time>2024-02-20T10:15:30.742Z</time>
</trkpt>
<trkpt lat="31.9226600" lon="34.9686800">
<ele>159.300003</ele>
<time>2024-02-20T10:15:30.742Z</time>
</trkpt>
<trkpt lat="31.9226400" lon="34.9687400">
<ele>159.020004</ele>
<time>2024-02-20T10:15:30.742Z</time>
</trkpt>
<trkpt lat="31.9226400" lon="34.9687600">
<ele>159.020004</ele>
<time>2024-02-20T10:15:30.742Z</time>
</trkpt>
<trkpt lat="31.9226100" lon="34.9688300">
<ele>158.580002</ele>
<time>2024-02-20T10:15:30.742Z</time>
</trkpt>
<trkpt lat="31.9225800" lon="34.9689100">
<ele>158.339996</ele>
<time>2024-02-20T10:15:30.742Z</time>
</trkpt>
<trkpt lat="31.9225500" lon="34.9689900">
<ele>158.680008</ele>
<time>2024-02-20T10:15:30.742Z</time>
</trkpt>
<trkpt lat="31.9225200" lon="34.9690800">
<ele>159.250000</ele>
<time>2024-02-20T10:15:30.742Z</time>
</trkpt>
<trkpt lat="31.9224700" lon="34.9691700">
<ele>159.730011</ele>
<time>2024-02-20T10:15:30.742Z</time>
</trkpt>
<trkpt lat="31.9224600" lon="34.9691900">
<ele>159.979996</ele>
<time>2024-02-20T10:15:30.742Z</time>
</trkpt>
<trkpt lat="31.9224600" lon="34.9692100">
<ele>160.330002</ele>
<time>2024-02-20T10:15:30.742Z</time>
</trkpt>
<trkpt lat="31.9224500" lon="34.9692200">
<ele>160.389999</ele>
<time>2024-02-20T10:15:30.742Z</time>
</trkpt>
<trkpt lat="31.9224400" lon="34.9692400">
<ele>160.609985</ele>
<time>2024-02-20T10:15:30.742Z</time>
</trkpt>
<trkpt lat="31.9224400" lon="34.9692600">
<ele>160.959991</ele>
<time>2024-02-20T10:15:30.742Z</time>
</trkpt>
<trkpt lat="31.9224400" lon="34.9692800">
<ele>161.300003</ele>
<time>2024-02-20T10:15:30.742Z</time>
</trkpt>
<trkpt lat="31.9224300" lon="34.9692900">
<ele>161.350006</ele>
<time>2024-02-20T10:15:30.742Z</time>
</trkpt>
<trkpt lat="31.9224300" lon="34.9693100">
<ele>161.690002</ele>
<time>2024-02-20T10:15:30.742Z</time>
</trkpt>
<trkpt lat="31.9224300" lon="34.9693300">
<ele>162.040009</ele>
<time>2024-02-20T10:15:30.742Z</time>
</trkpt>
<trkpt lat="31.9224300" lon="34.9693500">
<ele>162.380005</ele>
<time>2024-02-20T10:15:30.742Z</time>
</trkpt>
<trkpt lat="31.9224200" lon="34.9693200">
<ele>161.740005</ele>
<time>2024-02-20T10:15:30.742Z</time>
</trkpt>
<trkpt lat="31.9224000" lon="34.9692900">
<ele>160.979996</ele>
<time>2024-02-20T10:15:30.742Z</time>
</trkpt>
<trkpt lat="31.9223800" lon="34.9692700">
<ele>160.399994</ele>
<time>2024-02-20T10:15:30.742Z</time>
</trkpt>
<trkpt lat="31.9223600" lon="34.9692400">
<ele>159.669998</ele>
<time>2024-02-20T10:15:30.742Z</time>
</trkpt>
<trkpt lat="31.9223300" lon="34.9692200">
<ele>159.009995</ele>
<time>2024-02-20T10:15:30.742Z</time>
</trkpt>
<trkpt lat="31.9223100" lon="34.9692100">
<ele>158.619995</ele>
<time>2024-02-20T10:15:30.742Z</time>
</trkpt>
<trkpt lat="31.9222800" lon="34.9692000">
<ele>158.129990</ele>
<time>2024-02-20T10:15:30.742Z</time>
</trkpt>
<trkpt lat="31.9222400" lon="34.9692000">
<ele>157.679993</ele>
<time>2024-02-20T10:15:30.742Z</time>
</trkpt>
<trkpt lat="31.9222100" lon="34.9692000">
<ele>157.489990</ele>
<time>2024-02-20T10:15:30.742Z</time>
</trkpt>
<trkpt lat="31.9221800" lon="34.9692100">
<ele>157.610001</ele>
<time>2024-02-20T10:15:30.742Z</time>
</trkpt>
<trkpt lat="31.9221600" lon="34.9692200">
<ele>157.690002</ele>
<time>2024-02-20T10:15:30.742Z</time>
</trkpt>
<trkpt lat="31.9221300" lon="34.9692400">
<ele>157.770004</ele>
<time>2024-02-20T10:15:30.742Z</time>
</trkpt>
<trkpt lat="31.9221100" lon="34.9692700">
<ele>157.839996</ele>
<time>2024-02-20T10:15:30.742Z</time>
</trkpt>
<trkpt lat="31.9220900" lon="34.9692900">
<ele>157.770004</ele>
<time>2024-02-20T10:15:30.742Z</time>
</trkpt>
<trkpt lat="31.9220700" lon="34.9693200">
<ele>157.639999</ele>
<time>2024-02-20T10:15:30.742Z</time>
</trkpt>
<trkpt lat="31.9220600" lon="34.9693500">
<ele>157.529999</ele>
<time>2024-02-20T10:15:30.742Z</time>
</trkpt>
<trkpt lat="31.9220500" lon="34.9693900">
<ele>157.350006</ele>
<time>2024-02-20T10:15:30.742Z</time>
</trkpt>
<trkpt lat="31.9220500" lon="34.9694300">
<ele>157.300003</ele>
<time>2024-02-20T10:15:30.742Z</time>
</trkpt>
<trkpt lat="31.9220500" lon="34.9694400">
<ele>157.290009</ele>
<time>2024-02-20T10:15:30.742Z</time>
</trkpt>
<trkpt lat="31.9220500" lon="34.9694600">
<ele>157.339996</ele>
<time>2024-02-20T10:15:30.742Z</time>
</trkpt>
<trkpt lat="31.9220600" lon="34.9694800">
<ele>157.659988</ele>
<time>2024-02-20T10:15:30.742Z</time>
</trkpt>
<trkpt lat="31.9220600" lon="34.9695000">
<ele>157.750000</ele>
<time>2024-02-20T10:15:30.742Z</time>
</trkpt>
<trkpt lat="31.9220400" lon="34.9695400">
<ele>157.419998</ele>
<time>2024-02-20T10:15:30.742Z</time>
</trkpt>
<trkpt lat="31.9220400" lon="34.9695700">
<ele>157.529999</ele>
<time>2024-02-20T10:15:30.742Z</time>
</trkpt>
<trkpt lat="31.9220300" lon="34.9696000">
<ele>157.370010</ele>
<time>2024-02-20T10:15:30.742Z</time>
</trkpt>
<trkpt lat="31.9220200" lon="34.9696300">
<ele>157.180008</ele>
<time>2024-02-20T10:15:30.742Z</time>
</trkpt>
<trkpt lat="31.9220000" lon="34.9696600">
<ele>156.670013</ele>
<time>2024-02-20T10:15:30.742Z</time>
</trkpt>
<trkpt lat="31.9219900" lon="34.9696900">
<ele>156.419998</ele>
<time>2024-02-20T10:15:30.742Z</time>
</trkpt>
<trkpt lat="31.9219800" lon="34.9697100">
<ele>156.139999</ele>
<time>2024-02-20T10:15:30.742Z</time>
</trkpt>
<trkpt lat="31.9219600" lon="34.9697400">
<ele>155.690002</ele>
<time>2024-02-20T10:15:30.742Z</time>
</trkpt>
<trkpt lat="31.9219400" lon="34.9697700">
<ele>155.500000</ele>
<time>2024-02-20T10:15:30.742Z</time>
</trkpt>
<trkpt lat="31.9218000" lon="34.9699800">
<ele>156.779999</ele>
<time>2024-02-20T10:15:30.742Z</time>
</trkpt>
<trkpt lat="31.9217700" lon="34.9700200">
<ele>156.840012</ele>
<time>2024-02-20T10:15:30.742Z</time>
</trkpt>
<trkpt lat="31.9217400" lon="34.9700600">
<ele>156.799988</ele>
<time>2024-02-20T10:15:30.742Z</time>
</trkpt>
<trkpt lat="31.9217200" lon="34.9700900">
<ele>156.770004</ele>
<time>2024-02-20T10:15:30.742Z</time>
</trkpt>
<trkpt lat="31.9216900" lon="34.9701200">
<ele>156.639999</ele>
<time>2024-02-20T10:15:30.742Z</time>
</trkpt>
<trkpt lat="31.9216600" lon="34.9701400">
<ele>156.540009</ele>
<time>2024-02-20T10:15:30.742Z</time>
</trkpt>
<trkpt lat="31.9216300" lon="34.9701600">
<ele>156.759995</ele>
<time>2024-02-20T10:15:30.742Z</time>
</trkpt>
<trkpt lat="31.9216100" lon="34.9701800">
<ele>156.919998</ele>
<time>2024-02-20T10:15:30.742Z</time>
</trkpt>
<trkpt lat="31.9215800" lon="34.9701900">
<ele>157.089996</ele>
<time>2024-02-20T10:15:30.742Z</time>
</trkpt>
<trkpt lat="31.9215600" lon="34.9702000">
<ele>157.209991</ele>
<time>2024-02-20T10:15:30.742Z</time>
</trkpt>
<trkpt lat="31.9215200" lon="34.9702100">
<ele>157.410004</ele>
<time>2024-02-20T10:15:30.742Z</time>
</trkpt>
<trkpt lat="31.9214800" lon="34.9702200">
<ele>157.600006</ele>
<time>2024-02-20T10:15:30.742Z</time>
</trkpt>
<trkpt lat="31.9214500" lon="34.9702300">
<ele>157.740005</ele>
<time>2024-02-20T10:15:30.742Z</time>
</trkpt>
<trkpt lat="31.9214300" lon="34.9702400">
<ele>157.829987</ele>
<time>2024-02-20T10:15:30.742Z</time>
</trkpt>
<trkpt lat="31.9214000" lon="34.9702600">
<ele>157.959991</ele>
<time>2024-02-20T10:15:30.742Z</time>
</trkpt>
<trkpt lat="31.9213800" lon="34.9702800">
<ele>158.139999</ele>
<time>2024-02-20T10:15:30.742Z</time>
</trkpt>
<trkpt lat="31.9213600" lon="34.9703100">
<ele>158.589996</ele>
<time>2024-02-20T10:15:30.742Z</time>
</trkpt>
<trkpt lat="31.9213400" lon="34.9703400">
<ele>158.949997</ele>
<time>2024-02-20T10:15:30.742Z</time>
</trkpt>
<trkpt lat="31.9213300" lon="34.9703700">
<ele>159.160004</ele>
<time>2024-02-20T10:15:30.742Z</time>
</trkpt>
<trkpt lat="31.9213300" lon="34.9704100">
<ele>159.300003</ele>
<time>2024-02-20T10:15:30.742Z</time>
</trkpt>
<trkpt lat="31.9213200" lon="34.9704200">
<ele>159.380005</ele>
<time>2024-02-20T10:15:30.742Z</time>
</trkpt>
<trkpt lat="31.9213200" lon="34.9704400">
<ele>159.440002</ele>
<time>2024-02-20T10:15:30.742Z</time>
</trkpt>
<trkpt lat="31.9213300" lon="34.9704800">
<ele>159.529999</ele>
<time>2024-02-20T10:15:30.742Z</time>
</trkpt>
<trkpt lat="31.9213300" lon="34.9705100">
<ele>159.629990</ele>
<time>2024-02-20T10:15:30.742Z</time>
</trkpt>
<trkpt lat="31.9213400" lon="34.9705200">
<ele>159.680008</ele>
<time>2024-02-20T10:15:30.742Z</time>
</trkpt>
<trkpt lat="31.9213400" lon="34.9705500">
<ele>159.799988</ele>
<time>2024-02-20T10:15:30.742Z</time>
</trkpt>
<trkpt lat="31.9213600" lon="34.9705700">
<ele>159.970001</ele>
<time>2024-02-20T10:15:30.742Z</time>
</trkpt>
<trkpt lat="31.9213800" lon="34.9706000">
<ele>160.260010</ele>
<time>2024-02-20T10:15:30.742Z</time>
</trkpt>
<trkpt lat="31.9214000" lon="34.9706300">
<ele>160.550003</ele>
<time>2024-02-20T10:15:30.742Z</time>
</trkpt>
<trkpt lat="31.9214300" lon="34.9706400">
<ele>160.650009</ele>
<time>2024-02-20T10:15:30.742Z</time>
</trkpt>
<trkpt lat="31.9214500" lon="34.9706600">
<ele>160.830002</ele>
<time>2024-02-20T10:15:30.742Z</time>
</trkpt>
<trkpt lat="31.9214800" lon="34.9706600">
<ele>160.880005</ele>
<time>2024-02-20T10:15:30.742Z</time>
</trkpt>
<trkpt lat="31.9215200" lon="34.9706700">
<ele>161.019989</ele>
<time>2024-02-20T10:15:30.742Z</time>
</trkpt>
<trkpt lat="31.9215500" lon="34.9706600">
<ele>160.970001</ele>
<time>2024-02-20T10:15:30.742Z</time>
</trkpt>
<trkpt lat="31.9215800" lon="34.9706600">
<ele>161.010010</ele>
<time>2024-02-20T10:15:30.742Z</time>
</trkpt>
<trkpt lat="31.9216000" lon="34.9706400">
<ele>160.840012</ele>
<time>2024-02-20T10:15:30.742Z</time>
</trkpt>
<trkpt lat="31.9216400" lon="34.9706400">
<ele>160.880005</ele>
<time>2024-02-20T10:15:30.742Z</time>
</trkpt>
<trkpt lat="31.9216700" lon="34.9706300">
<ele>160.820007</ele>
<time>2024-02-20T10:15:30.742Z</time>
</trkpt>
<trkpt lat="31.9217000" lon="34.9706300">
<ele>160.919998</ele>
<time>2024-02-20T10:15:30.742Z</time>
</trkpt>
<trkpt lat="31.9217300" lon="34.9706400">
<ele>161.139999</ele>
<time>2024-02-20T10:15:30.742Z</time>
</trkpt>
<trkpt lat="31.9217500" lon="34.9706500">
<ele>161.319992</ele>
<time>2024-02-20T10:15:30.742Z</time>
</trkpt>
<trkpt lat="31.9217700" lon="34.9706600">
<ele>161.500000</ele>
<time>2024-02-20T10:15:30.742Z</time>
</trkpt>
<trkpt lat="31.9217900" lon="34.9706700">
<ele>161.679993</ele>
<time>2024-02-20T10:15:30.742Z</time>
</trkpt>
<trkpt lat="31.9218100" lon="34.9706800">
<ele>161.860001</ele>
<time>2024-02-20T10:15:30.742Z</time>
</trkpt>
<trkpt lat="31.9218300" lon="34.9706900">
<ele>162.040009</ele>
<time>2024-02-20T10:15:30.742Z</time>
</trkpt>
<trkpt lat="31.9218500" lon="34.9707100">
<ele>162.330002</ele>
<time>2024-02-20T10:15:30.742Z</time>
</trkpt>
<trkpt lat="31.9220900" lon="34.9709400">
<ele>163.130005</ele>
<time>2024-02-20T10:15:30.742Z</time>
</trkpt>
<trkpt lat="31.9222800" lon="34.9711200">
<ele>159.839996</ele>
<time>2024-02-20T10:15:30.742Z</time>
</trkpt>
<trkpt lat="31.9222800" lon="34.9711200">
<ele>159.839996</ele>
<time>2024-02-20T10:15:30.742Z</time>
</trkpt>
<trkpt lat="31.9223600" lon="34.9712000">
<ele>156.560013</ele>
<time>2024-02-20T10:15:30.742Z</time>
</trkpt>
<trkpt lat="31.9223800" lon="34.9712200">
<ele>155.809998</ele>
<time>2024-02-20T10:15:30.742Z</time>
</trkpt>
<trkpt lat="31.9223900" lon="34.9712300">
<ele>155.449997</ele>
<time>2024-02-20T10:15:30.742Z</time>
</trkpt>
<trkpt lat="31.9224000" lon="34.9712500">
<ele>155.059998</ele>
<time>2024-02-20T10:15:30.742Z</time>
</trkpt>
<trkpt lat="31.9224100" lon="34.9712700">
<ele>154.680008</ele>
<time>2024-02-20T10:15:30.742Z</time>
</trkpt>
<trkpt lat="31.9224100" lon="34.9712900">
<ele>154.610001</ele>
<time>2024-02-20T10:15:30.742Z</time>
</trkpt>
<trkpt lat="31.9224200" lon="34.9713100">
<ele>154.259995</ele>
<time>2024-02-20T10:15:30.742Z</time>
</trkpt>
<trkpt lat="31.9224200" lon="34.9713300">
<ele>154.199997</ele>
<time>2024-02-20T10:15:30.742Z</time>
</trkpt>
<trkpt lat="31.9224300" lon="34.9713500">
<ele>153.870010</ele>
<time>2024-02-20T10:15:30.742Z</time>
</trkpt>
<trkpt lat="31.9224300" lon="34.9713700">
<ele>153.819992</ele>
<time>2024-02-20T10:15:30.742Z</time>
</trkpt>
<trkpt lat="31.9224300" lon="34.9714000">
<ele>153.850006</ele>
<time>2024-02-20T10:15:30.742Z</time>
</trkpt>
<trkpt lat="31.9224300" lon="34.9714100">
<ele>153.929993</ele>
<time>2024-02-20T10:15:30.742Z</time>
</trkpt>
<trkpt lat="31.9224200" lon="34.9714400">
<ele>154.410004</ele>
<time>2024-02-20T10:15:30.742Z</time>
</trkpt>
<trkpt lat="31.9224300" lon="34.9714700">
<ele>154.419998</ele>
<time>2024-02-20T10:15:30.742Z</time>
</trkpt>
<trkpt lat="31.9224300" lon="34.9715000">
<ele>154.660004</ele>
<time>2024-02-20T10:15:30.742Z</time>
</trkpt>
<trkpt lat="31.9224300" lon="34.9715500">
<ele>155.070007</ele>
<time>2024-02-20T10:15:30.742Z</time>
</trkpt>
<trkpt lat="31.9224200" lon="34.9716000">
<ele>155.639999</ele>
<time>2024-02-20T10:15:30.742Z</time>
</trkpt>
<trkpt lat="31.9224100" lon="34.9716500">
<ele>156.169998</ele>
<time>2024-02-20T10:15:30.742Z</time>
</trkpt>
<trkpt lat="31.9223500" lon="34.9717900">
<ele>159.069992</ele>
<time>2024-02-20T10:15:30.742Z</time>
</trkpt>
<trkpt lat="31.9222500" lon="34.9720000">
<ele>162.080002</ele>
<time>2024-02-20T10:15:30.742Z</time>
</trkpt>
<trkpt lat="31.9221500" lon="34.9722300">
<ele>164.500000</ele>
<time>2024-02-20T10:15:30.742Z</time>
</trkpt>
<trkpt lat="31.9220600" lon="34.9724600">
<ele>164.710007</ele>
<time>2024-02-20T10:15:30.742Z</time>
</trkpt>
<trkpt lat="31.9219900" lon="34.9727000">
<ele>165.019989</ele>
<time>2024-02-20T10:15:30.742Z</time>
</trkpt>
<trkpt lat="31.9219300" lon="34.9729500">
<ele>166.280014</ele>
<time>2024-02-20T10:15:30.742Z</time>
</trkpt>
<trkpt lat="31.9218800" lon="34.9732100">
<ele>168.110001</ele>
<time>2024-02-20T10:15:30.742Z</time>
</trkpt>
<trkpt lat="31.9218600" lon="34.9734100">
<ele>169.360001</ele>
<time>2024-02-20T10:15:30.742Z</time>
</trkpt>
<trkpt lat="31.9218500" lon="34.9734700">
<ele>169.660004</ele>
<time>2024-02-20T10:15:30.742Z</time>
</trkpt>
<trkpt lat="31.9218300" lon="34.9737500">
<ele>171.410004</ele>
<time>2024-02-20T10:15:30.742Z</time>
</trkpt>
<trkpt lat="31.9218200" lon="34.9739700">
<ele>173.059998</ele>
<time>2024-02-20T10:15:30.742Z</time>
</trkpt>
<trkpt lat="31.9218200" lon="34.9740200">
<ele>173.440002</ele>
<time>2024-02-20T10:15:30.742Z</time>
</trkpt>
<trkpt lat="31.9218200" lon="34.9740800">
<ele>173.900009</ele>
<time>2024-02-20T10:15:30.742Z</time>
</trkpt>
<trkpt lat="31.9218300" lon="34.9743100">
<ele>174.889999</ele>
<time>2024-02-20T10:15:30.742Z</time>
</trkpt>
<trkpt lat="31.9218400" lon="34.9745200">
<ele>175.789993</ele>
<time>2024-02-20T10:15:30.742Z</time>
</trkpt>
<trkpt lat="31.9218500" lon="34.9745800">
<ele>176.299988</ele>
<time>2024-02-20T10:15:30.742Z</time>
</trkpt>
<trkpt lat="31.9218700" lon="34.9747100">
<ele>177.380005</ele>
<time>2024-02-20T10:15:30.742Z</time>
</trkpt>
<trkpt lat="31.9219000" lon="34.9749000">
<ele>178.959991</ele>
<time>2024-02-20T10:15:30.742Z</time>
</trkpt>
<trkpt lat="31.9219400" lon="34.9750900">
<ele>179.970001</ele>
<time>2024-02-20T10:15:30.742Z</time>
</trkpt>
<trkpt lat="31.9219800" lon="34.9752700">
<ele>180.250000</ele>
<time>2024-02-20T10:15:30.742Z</time>
</trkpt>
<trkpt lat="31.9220300" lon="34.9754400">
<ele>181.779999</ele>
<time>2024-02-20T10:15:30.742Z</time>
</trkpt>
<trkpt lat="31.9220900" lon="34.9756100">
<ele>183.239990</ele>
<time>2024-02-20T10:15:30.742Z</time>
</trkpt>
<trkpt lat="31.9221500" lon="34.9757800">
<ele>184.289993</ele>
<time>2024-02-20T10:15:30.742Z</time>
</trkpt>
<trkpt lat="31.9222100" lon="34.9759500">
<ele>184.929993</ele>
<time>2024-02-20T10:15:30.742Z</time>
</trkpt>
<trkpt lat="31.9222800" lon="34.9761200">
<ele>185.580002</ele>
<time>2024-02-20T10:15:30.742Z</time>
</trkpt>
<trkpt lat="31.9222900" lon="34.9761700">
<ele>185.459991</ele>
<time>2024-02-20T10:15:30.742Z</time>
</trkpt>
<trkpt lat="31.9223100" lon="34.9762200">
<ele>185.540009</ele>
<time>2024-02-20T10:15:30.742Z</time>
</trkpt>
<trkpt lat="31.9223300" lon="34.9762900">
<ele>185.630005</ele>
<time>2024-02-20T10:15:30.742Z</time>
</trkpt>
<trkpt lat="31.9223200" lon="34.9763200">
<ele>185.350006</ele>
<time>2024-02-20T10:15:30.742Z</time>
</trkpt>
<trkpt lat="31.9223200" lon="34.9763400">
<ele>185.279999</ele>
<time>2024-02-20T10:15:30.742Z</time>
</trkpt>
<trkpt lat="31.9223200" lon="34.9763700">
<ele>185.180008</ele>
<time>2024-02-20T10:15:30.742Z</time>
</trkpt>
<trkpt lat="31.9223300" lon="34.9763900">
<ele>185.320007</ele>
<time>2024-02-20T10:15:30.742Z</time>
</trkpt>
<trkpt lat="31.9223400" lon="34.9764200">
<ele>185.379990</ele>
<time>2024-02-20T10:15:30.742Z</time>
</trkpt>
<trkpt lat="31.9223500" lon="34.9764400">
<ele>185.490005</ele>
<time>2024-02-20T10:15:30.742Z</time>
</trkpt>
<trkpt lat="31.9223500" lon="34.9764400">
<ele>185.490005</ele>
<time>2024-02-20T10:15:30.742Z</time>
</trkpt>
<trkpt lat="31.9223600" lon="34.9764600">
<ele>185.589996</ele>
<time>2024-02-20T10:15:30.742Z</time>
</trkpt>
<trkpt lat="31.9223800" lon="34.9764800">
<ele>185.889999</ele>
<time>2024-02-20T10:15:30.742Z</time>
</trkpt>
<trkpt lat="31.9224000" lon="34.9764900">
<ele>186.240005</ele>
<time>2024-02-20T10:15:30.742Z</time>
</trkpt>
<trkpt lat="31.9224200" lon="34.9765000">
<ele>186.590012</ele>
<time>2024-02-20T10:15:30.742Z</time>
</trkpt>
<trkpt lat="31.9224400" lon="34.9765100">
<ele>186.930008</ele>
<time>2024-02-20T10:15:30.742Z</time>
</trkpt>
<trkpt lat="31.9224700" lon="34.9765200">
<ele>187.460007</ele>
<time>2024-02-20T10:15:30.742Z</time>
</trkpt>
<trkpt lat="31.9224800" lon="34.9765300">
<ele>187.589996</ele>
<time>2024-02-20T10:15:30.742Z</time>
</trkpt>
<trkpt lat="31.9224900" lon="34.9765400">
<ele>187.720001</ele>
<time>2024-02-20T10:15:30.742Z</time>
</trkpt>
<trkpt lat="31.9225100" lon="34.9765500">
<ele>187.879990</ele>
<time>2024-02-20T10:15:30.742Z</time>
</trkpt>
<trkpt lat="31.9225200" lon="34.9765600">
<ele>187.839996</ele>
<time>2024-02-20T10:15:30.742Z</time>
</trkpt>
<trkpt lat="31.9225300" lon="34.9765800">
<ele>187.729996</ele>
<time>2024-02-20T10:15:30.742Z</time>
</trkpt>
<trkpt lat="31.9225400" lon="34.9765900">
<ele>187.699997</ele>
<time>2024-02-20T10:15:30.742Z</time>
</trkpt>
<trkpt lat="31.9225600" lon="34.9766100">
<ele>187.620010</ele>
<time>2024-02-20T10:15:30.742Z</time>
</trkpt>
<trkpt lat="31.9225700" lon="34.9766300">
<ele>187.519989</ele>
<time>2024-02-20T10:15:30.742Z</time>
</trkpt>
<trkpt lat="31.9225800" lon="34.9766500">
<ele>187.409988</ele>
<time>2024-02-20T10:15:30.742Z</time>
</trkpt>
<trkpt lat="31.9235600" lon="34.9784000">
<ele>193.729996</ele>
<time>2024-02-20T10:15:30.742Z</time>
</trkpt>
<trkpt lat="31.9235600" lon="34.9784000">
<ele>193.729996</ele>
<time>2024-02-20T10:15:30.742Z</time>
</trkpt>
<trkpt lat="31.9236400" lon="34.9785600">
<ele>193.590012</ele>
<time>2024-02-20T10:15:30.742Z</time>
</trkpt>
<trkpt lat="31.9237600" lon="34.9787600">
<ele>191.929993</ele>
<time>2024-02-20T10:15:30.742Z</time>
</trkpt>
<trkpt lat="31.9250100" lon="34.9810200">
<ele>191.730011</ele>
<time>2024-02-20T10:15:30.742Z</time>
</trkpt>
<trkpt lat="31.9250200" lon="34.9810400">
<ele>191.669998</ele>
<time>2024-02-20T10:15:30.742Z</time>
</trkpt>
<trkpt lat="31.9250300" lon="34.9810600">
<ele>191.629990</ele>
<time>2024-02-20T10:15:30.742Z</time>
</trkpt>
<trkpt lat="31.9250400" lon="34.9810800">
<ele>191.610001</ele>
<time>2024-02-20T10:15:30.742Z</time>
</trkpt>
<trkpt lat="31.9250500" lon="34.9811000">
<ele>191.600006</ele>
<time>2024-02-20T10:15:30.742Z</time>
</trkpt>
<trkpt lat="31.9250600" lon="34.9811200">
<ele>191.580002</ele>
<time>2024-02-20T10:15:30.742Z</time>
</trkpt>
<trkpt lat="31.9250600" lon="34.9811400">
<ele>191.440002</ele>
<time>2024-02-20T10:15:30.742Z</time>
</trkpt>
<trkpt lat="31.9250700" lon="34.9811600">
<ele>191.399994</ele>
<time>2024-02-20T10:15:30.742Z</time>
</trkpt>
<trkpt lat="31.9250700" lon="34.9811800">
<ele>191.259995</ele>
<time>2024-02-20T10:15:30.742Z</time>
</trkpt>
<trkpt lat="31.9250700" lon="34.9812000">
<ele>191.119995</ele>
<time>2024-02-20T10:15:30.742Z</time>
</trkpt>
<trkpt lat="31.9250700" lon="34.9812400">
<ele>190.830002</ele>
<time>2024-02-20T10:15:30.742Z</time>
</trkpt>
<trkpt lat="31.9250700" lon="34.9812600">
<ele>190.680008</ele>
<time>2024-02-20T10:15:30.742Z</time>
</trkpt>
<trkpt lat="31.9250600" lon="34.9812900">
<ele>190.360016</ele>
<time>2024-02-20T10:15:30.742Z</time>
</trkpt>
<trkpt lat="31.9250700" lon="34.9813200">
<ele>190.250000</ele>
<time>2024-02-20T10:15:30.742Z</time>
</trkpt>
<trkpt lat="31.9250700" lon="34.9813400">
<ele>190.110001</ele>
<time>2024-02-20T10:15:30.742Z</time>
</trkpt>
<trkpt lat="31.9250800" lon="34.9813600">
<ele>190.069992</ele>
<time>2024-02-20T10:15:30.742Z</time>
</trkpt>
<trkpt lat="31.9250900" lon="34.9813900">
<ele>189.959991</ele>
<time>2024-02-20T10:15:30.742Z</time>
</trkpt>
<trkpt lat="31.9251100" lon="34.9814100">
<ele>190.050003</ele>
<time>2024-02-20T10:15:30.742Z</time>
</trkpt>
<trkpt lat="31.9251200" lon="34.9814200">
<ele>190.110001</ele>
<time>2024-02-20T10:15:30.742Z</time>
</trkpt>
<trkpt lat="31.9251400" lon="34.9814400">
<ele>190.239990</ele>
<time>2024-02-20T10:15:30.742Z</time>
</trkpt>
<trkpt lat="31.9251600" lon="34.9814500">
<ele>190.449997</ele>
<time>2024-02-20T10:15:30.742Z</time>
</trkpt>
<trkpt lat="31.9251800" lon="34.9814500">
<ele>190.709991</ele>
<time>2024-02-20T10:15:30.742Z</time>
</trkpt>
<trkpt lat="31.9252100" lon="34.9814500">
<ele>191.110016</ele>
<time>2024-02-20T10:15:30.742Z</time>
</trkpt>
<trkpt lat="31.9252400" lon="34.9814800">
<ele>191.459991</ele>
<time>2024-02-20T10:15:30.742Z</time>
</trkpt>
<trkpt lat="31.9252600" lon="34.9815000">
<ele>191.730011</ele>
<time>2024-02-20T10:15:30.742Z</time>
</trkpt>
<trkpt lat="31.9252800" lon="34.9815300">
<ele>192.000000</ele>
<time>2024-02-20T10:15:30.742Z</time>
</trkpt>
<trkpt lat="31.9253000" lon="34.9815700">
<ele>192.050003</ele>
<time>2024-02-20T10:15:30.742Z</time>
</trkpt>
<trkpt lat="31.9253300" lon="34.9816400">
<ele>192.169998</ele>
<time>2024-02-20T10:15:30.742Z</time>
</trkpt>
<trkpt lat="31.9253600" lon="34.9817100">
<ele>192.229996</ele>
<time>2024-02-20T10:15:30.742Z</time>
</trkpt>
<trkpt lat="31.9253900" lon="34.9817800">
<ele>192.330002</ele>
<time>2024-02-20T10:15:30.742Z</time>
</trkpt>
<trkpt lat="31.9254200" lon="34.9818500">
<ele>192.529999</ele>
<time>2024-02-20T10:15:30.742Z</time>
</trkpt>
<trkpt lat="31.9254400" lon="34.9819200">
<ele>192.739990</ele>
<time>2024-02-20T10:15:30.742Z</time>
</trkpt>
<trkpt lat="31.9254700" lon="34.9819800">
<ele>193.290009</ele>
<time>2024-02-20T10:15:30.742Z</time>
</trkpt>
<trkpt lat="31.9254900" lon="34.9820500">
<ele>193.959991</ele>
<time>2024-02-20T10:15:30.742Z</time>
</trkpt>
<trkpt lat="31.9255100" lon="34.9821100">
<ele>194.599991</ele>
<time>2024-02-20T10:15:30.742Z</time>
</trkpt>
<trkpt lat="31.9255300" lon="34.9821800">
<ele>195.339996</ele>
<time>2024-02-20T10:15:30.742Z</time>
</trkpt>
<trkpt lat="31.9255500" lon="34.9822400">
<ele>195.860001</ele>
<time>2024-02-20T10:15:30.742Z</time>
</trkpt>
<trkpt lat="31.9256000" lon="34.9824000">
<ele>195.139999</ele>
<time>2024-02-20T10:15:30.742Z</time>
</trkpt>
<trkpt lat="31.9256400" lon="34.9825600">
<ele>194.550003</ele>
<time>2024-02-20T10:15:30.742Z</time>
</trkpt>
<trkpt lat="31.9256700" lon="34.9827200">
<ele>194.119995</ele>
<time>2024-02-20T10:15:30.742Z</time>
</trkpt>
<trkpt lat="31.9256900" lon="34.9828500">
<ele>194.259995</ele>
<time>2024-02-20T10:15:30.742Z</time>
</trkpt>
<trkpt lat="31.9256900" lon="34.9828800">
<ele>194.369995</ele>
<time>2024-02-20T10:15:30.742Z</time>
</trkpt>
<trkpt lat="31.9257100" lon="34.9830400">
<ele>194.940002</ele>
<time>2024-02-20T10:15:30.742Z</time>
</trkpt>
<trkpt lat="31.9257300" lon="34.9832000">
<ele>195.329987</ele>
<time>2024-02-20T10:15:30.742Z</time>
</trkpt>
<trkpt lat="31.9257400" lon="34.9833700">
<ele>195.750000</ele>
<time>2024-02-20T10:15:30.742Z</time>
</trkpt>
<trkpt lat="31.9257400" lon="34.9835300">
<ele>196.130005</ele>
<time>2024-02-20T10:15:30.742Z</time>
</trkpt>
<trkpt lat="31.9257400" lon="34.9837000">
<ele>196.439987</ele>
<time>2024-02-20T10:15:30.742Z</time>
</trkpt>
<trkpt lat="31.9257300" lon="34.9838700">
<ele>196.600006</ele>
<time>2024-02-20T10:15:30.742Z</time>
</trkpt>
<trkpt lat="31.9257300" lon="34.9840200">
<ele>196.919998</ele>
<time>2024-02-20T10:15:30.742Z</time>
</trkpt>
<trkpt lat="31.9257100" lon="34.9841800">
<ele>197.189987</ele>
<time>2024-02-20T10:15:30.742Z</time>
</trkpt>
<trkpt lat="31.9256900" lon="34.9843300">
<ele>197.839996</ele>
<time>2024-02-20T10:15:30.742Z</time>
</trkpt>
<trkpt lat="31.9256600" lon="34.9844800">
<ele>198.259995</ele>
<time>2024-02-20T10:15:30.742Z</time>
</trkpt>
<trkpt lat="31.9256300" lon="34.9846400">
<ele>198.510010</ele>
<time>2024-02-20T10:15:30.742Z</time>
</trkpt>
<trkpt lat="31.9255900" lon="34.9847900">
<ele>198.340012</ele>
<time>2024-02-20T10:15:30.742Z</time>
</trkpt>
<trkpt lat="31.9255500" lon="34.9849400">
<ele>197.899994</ele>
<time>2024-02-20T10:15:30.742Z</time>
</trkpt>
<trkpt lat="31.9255100" lon="34.9850800">
<ele>197.230011</ele>
<time>2024-02-20T10:15:30.742Z</time>
</trkpt>
<trkpt lat="31.9254600" lon="34.9852200">
<ele>196.549988</ele>
<time>2024-02-20T10:15:30.742Z</time>
</trkpt>
<trkpt lat="31.9254000" lon="34.9853700">
<ele>195.610001</ele>
<time>2024-02-20T10:15:30.742Z</time>
</trkpt>
<trkpt lat="31.9253800" lon="34.9854200">
<ele>195.279999</ele>
<time>2024-02-20T10:15:30.742Z</time>
</trkpt>
<trkpt lat="31.9253500" lon="34.9854700">
<ele>194.860001</ele>
<time>2024-02-20T10:15:30.742Z</time>
</trkpt>
<trkpt lat="31.9253300" lon="34.9855000">
<ele>194.599991</ele>
<time>2024-02-20T10:15:30.742Z</time>
</trkpt>
<trkpt lat="31.9252900" lon="34.9855400">
<ele>194.129990</ele>
<time>2024-02-20T10:15:30.742Z</time>
</trkpt>
<trkpt lat="31.9252700" lon="34.9855500">
<ele>193.919998</ele>
<time>2024-02-20T10:15:30.742Z</time>
</trkpt>
<trkpt lat="31.9252600" lon="34.9855600">
<ele>193.880005</ele>
<time>2024-02-20T10:15:30.742Z</time>
</trkpt>
<trkpt lat="31.9252400" lon="34.9855700">
<ele>193.820007</ele>
<time>2024-02-20T10:15:30.742Z</time>
</trkpt>
<trkpt lat="31.9252300" lon="34.9855900">
<ele>194.020004</ele>
<time>2024-02-20T10:15:30.742Z</time>
</trkpt>
<trkpt lat="31.9252200" lon="34.9856100">
<ele>194.190002</ele>
<time>2024-02-20T10:15:30.742Z</time>
</trkpt>
<trkpt lat="31.9252100" lon="34.9856300">
<ele>194.349991</ele>
<time>2024-02-20T10:15:30.742Z</time>
</trkpt>
<trkpt lat="31.9252100" lon="34.9856600">
<ele>194.779999</ele>
<time>2024-02-20T10:15:30.742Z</time>
</trkpt>
<trkpt lat="31.9252000" lon="34.9856800">
<ele>194.899994</ele>
<time>2024-02-20T10:15:30.742Z</time>
</trkpt>
<trkpt lat="31.9252100" lon="34.9857100">
<ele>195.509995</ele>
<time>2024-02-20T10:15:30.742Z</time>
</trkpt>
<trkpt lat="31.9252100" lon="34.9857400">
<ele>195.940002</ele>
<time>2024-02-20T10:15:30.742Z</time>
</trkpt>
<trkpt lat="31.9252000" lon="34.9857500">
<ele>195.880005</ele>
<time>2024-02-20T10:15:30.742Z</time>
</trkpt>
<trkpt lat="31.9252000" lon="34.9857700">
<ele>196.160004</ele>
<time>2024-02-20T10:15:30.742Z</time>
</trkpt>
<trkpt lat="31.9251900" lon="34.9857900">
<ele>196.209991</ele>
<time>2024-02-20T10:15:30.742Z</time>
</trkpt>
<trkpt lat="31.9251900" lon="34.9858100">
<ele>196.470001</ele>
<time>2024-02-20T10:15:30.742Z</time>
</trkpt>
<trkpt lat="31.9251800" lon="34.9858300">
<ele>196.489990</ele>
<time>2024-02-20T10:15:30.742Z</time>
</trkpt>
<trkpt lat="31.9251700" lon="34.9858500">
<ele>196.269989</ele>
<time>2024-02-20T10:15:30.742Z</time>
</trkpt>
<trkpt lat="31.9251600" lon="34.9858700">
<ele>196.010010</ele>
<time>2024-02-20T10:15:30.742Z</time>
</trkpt>
<trkpt lat="31.9251500" lon="34.9858900">
<ele>195.759995</ele>
<time>2024-02-20T10:15:30.742Z</time>
</trkpt>
<trkpt lat="31.9251400" lon="34.9859100">
<ele>195.529999</ele>
<time>2024-02-20T10:15:30.742Z</time>
</trkpt>
<trkpt lat="31.9247300" lon="34.9865600">
<ele>194.259995</ele>
<time>2024-02-20T10:15:30.742Z</time>
</trkpt>
<trkpt lat="31.9247300" lon="34.9865600">
<ele>194.259995</ele>
<time>2024-02-20T10:15:30.742Z</time>
</trkpt>
<trkpt lat="31.9243400" lon="34.9871900">
<ele>192.710007</ele>
<time>2024-02-20T10:15:30.742Z</time>
</trkpt>
<trkpt lat="31.9242200" lon="34.9873800">
<ele>192.030014</ele>
<time>2024-02-20T10:15:30.742Z</time>
</trkpt>
<trkpt lat="31.9239300" lon="34.9878500">
<ele>188.960007</ele>
<time>2024-02-20T10:15:30.742Z</time>
</trkpt>
<trkpt lat="31.9239200" lon="34.9878700">
<ele>188.849991</ele>
<time>2024-02-20T10:15:30.742Z</time>
</trkpt>
<trkpt lat="31.9239000" lon="34.9878900">
<ele>188.589996</ele>
<time>2024-02-20T10:15:30.742Z</time>
</trkpt>
<trkpt lat="31.9238900" lon="34.9879000">
<ele>188.459991</ele>
<time>2024-02-20T10:15:30.742Z</time>
</trkpt>
<trkpt lat="31.9238700" lon="34.9879200">
<ele>188.580002</ele>
<time>2024-02-20T10:15:30.742Z</time>
</trkpt>
<trkpt lat="31.9238500" lon="34.9879300">
<ele>188.690002</ele>
<time>2024-02-20T10:15:30.742Z</time>
</trkpt>
<trkpt lat="31.9238400" lon="34.9879400">
<ele>188.759995</ele>
<time>2024-02-20T10:15:30.742Z</time>
</trkpt>
<trkpt lat="31.9238200" lon="34.9879500">
<ele>188.869995</ele>
<time>2024-02-20T10:15:30.742Z</time>
</trkpt>
<trkpt lat="31.9238000" lon="34.9879600">
<ele>188.979996</ele>
<time>2024-02-20T10:15:30.742Z</time>
</trkpt>
<trkpt lat="31.9237700" lon="34.9879600">
<ele>189.079987</ele>
<time>2024-02-20T10:15:30.742Z</time>
</trkpt>
<trkpt lat="31.9237400" lon="34.9879600">
<ele>189.190002</ele>
<time>2024-02-20T10:15:30.742Z</time>
</trkpt>
<trkpt lat="31.9237200" lon="34.9879600">
<ele>189.259995</ele>
<time>2024-02-20T10:15:30.742Z</time>
</trkpt>
<trkpt lat="31.9236900" lon="34.9879600">
<ele>189.370010</ele>
<time>2024-02-20T10:15:30.742Z</time>
</trkpt>
<trkpt lat="31.9236600" lon="34.9879700">
<ele>189.520004</ele>
<time>2024-02-20T10:15:30.742Z</time>
</trkpt>
<trkpt lat="31.9236400" lon="34.9879800">
<ele>189.619995</ele>
<time>2024-02-20T10:15:30.742Z</time>
</trkpt>
<trkpt lat="31.9236200" lon="34.9880000">
<ele>189.770004</ele>
<time>2024-02-20T10:15:30.742Z</time>
</trkpt>
<trkpt lat="31.9236000" lon="34.9880100">
<ele>189.970001</ele>
<time>2024-02-20T10:15:30.742Z</time>
</trkpt>
<trkpt lat="31.9235800" lon="34.9880400">
<ele>190.290009</ele>
<time>2024-02-20T10:15:30.742Z</time>
</trkpt>
<trkpt lat="31.9235700" lon="34.9880600">
<ele>190.469986</ele>
<time>2024-02-20T10:15:30.742Z</time>
</trkpt>
<trkpt lat="31.9235600" lon="34.9880900">
<ele>190.729996</ele>
<time>2024-02-20T10:15:30.742Z</time>
</trkpt>
<trkpt lat="31.9235600" lon="34.9881200">
<ele>190.889999</ele>
<time>2024-02-20T10:15:30.742Z</time>
</trkpt>
<trkpt lat="31.9235500" lon="34.9881300">
<ele>191.020004</ele>
<time>2024-02-20T10:15:30.742Z</time>
</trkpt>
<trkpt lat="31.9235500" lon="34.9881500">
<ele>191.119995</ele>
<time>2024-02-20T10:15:30.742Z</time>
</trkpt>
<trkpt lat="31.9235600" lon="34.9881800">
<ele>191.199997</ele>
<time>2024-02-20T10:15:30.742Z</time>
</trkpt>
<trkpt lat="31.9235600" lon="34.9882100">
<ele>191.360001</ele>
<time>2024-02-20T10:15:30.742Z</time>
</trkpt>
<trkpt lat="31.9235700" lon="34.9882400">
<ele>191.479996</ele>
<time>2024-02-20T10:15:30.742Z</time>
</trkpt>
<trkpt lat="31.9235800" lon="34.9882700">
<ele>191.620010</ele>
<time>2024-02-20T10:15:30.742Z</time>
</trkpt>
<trkpt lat="31.9235900" lon="34.9883100">
<ele>191.850006</ele>
<time>2024-02-20T10:15:30.742Z</time>
</trkpt>
<trkpt lat="31.9235900" lon="34.9883600">
<ele>192.169998</ele>
<time>2024-02-20T10:15:30.742Z</time>
</trkpt>
<trkpt lat="31.9235800" lon="34.9884100">
<ele>192.459991</ele>
<time>2024-02-20T10:15:30.742Z</time>
</trkpt>
<trkpt lat="31.9235600" lon="34.9884700">
<ele>192.710007</ele>
<time>2024-02-20T10:15:30.742Z</time>
</trkpt>
<trkpt lat="31.9235000" lon="34.9886200">
<ele>192.830002</ele>
<time>2024-02-20T10:15:30.742Z</time>
</trkpt>
<trkpt lat="31.9234400" lon="34.9887800">
<ele>192.240005</ele>
<time>2024-02-20T10:15:30.742Z</time>
</trkpt>
<trkpt lat="31.9233800" lon="34.9889300">
<ele>191.430008</ele>
<time>2024-02-20T10:15:30.742Z</time>
</trkpt>
<trkpt lat="31.9233300" lon="34.9890800">
<ele>192.030014</ele>
<time>2024-02-20T10:15:30.742Z</time>
</trkpt>
<trkpt lat="31.9232900" lon="34.9892400">
<ele>193.019989</ele>
<time>2024-02-20T10:15:30.742Z</time>
</trkpt>
<trkpt lat="31.9232500" lon="34.9894000">
<ele>193.529999</ele>
<time>2024-02-20T10:15:30.742Z</time>
</trkpt>
<trkpt lat="31.9232200" lon="34.9895600">
<ele>193.710007</ele>
<time>2024-02-20T10:15:30.742Z</time>
</trkpt>
<trkpt lat="31.9232100" lon="34.9896700">
<ele>193.949997</ele>
<time>2024-02-20T10:15:30.742Z</time>
</trkpt>
<trkpt lat="31.9232000" lon="34.9897300">
<ele>194.110001</ele>
<time>2024-02-20T10:15:30.742Z</time>
</trkpt>
<trkpt lat="31.9231800" lon="34.9898900">
<ele>195.309998</ele>
<time>2024-02-20T10:15:30.742Z</time>
</trkpt>
<trkpt lat="31.9231800" lon="34.9900600">
<ele>196.399994</ele>
<time>2024-02-20T10:15:30.742Z</time>
</trkpt>
<trkpt lat="31.9231800" lon="34.9902500">
<ele>196.919998</ele>
<time>2024-02-20T10:15:30.742Z</time>
</trkpt>
<trkpt lat="31.9231800" lon="34.9907600">
<ele>199.329987</ele>
<time>2024-02-20T10:15:30.742Z</time>
</trkpt>
<trkpt lat="31.9231700" lon="34.9912800">
<ele>200.860001</ele>
<time>2024-02-20T10:15:30.742Z</time>
</trkpt>
<trkpt lat="31.9231700" lon="34.9920200">
<ele>206.020004</ele>
<time>2024-02-20T10:15:30.742Z</time>
</trkpt>
<trkpt lat="31.9231700" lon="34.9920700">
<ele>206.419998</ele>
<time>2024-02-20T10:15:30.742Z</time>
</trkpt>
<trkpt lat="31.9231800" lon="34.9921200">
<ele>206.929993</ele>
<time>2024-02-20T10:15:30.742Z</time>
</trkpt>
<trkpt lat="31.9231800" lon="34.9921200">
<ele>206.929993</ele>
<time>2024-02-20T10:15:30.742Z</time>
</trkpt>
<trkpt lat="31.9231800" lon="34.9921700">
<ele>207.350006</ele>
<time>2024-02-20T10:15:30.742Z</time>
</trkpt>
<trkpt lat="31.9231800" lon="34.9922200">
<ele>207.770004</ele>
<time>2024-02-20T10:15:30.742Z</time>
</trkpt>
<trkpt lat="31.9231900" lon="34.9922700">
<ele>208.110001</ele>
<time>2024-02-20T10:15:30.742Z</time>
</trkpt>
<trkpt lat="31.9231900" lon="34.9923200">
<ele>208.299988</ele>
<time>2024-02-20T10:15:30.742Z</time>
</trkpt>
<trkpt lat="31.9232000" lon="34.9923700">
<ele>208.589996</ele>
<time>2024-02-20T10:15:30.742Z</time>
</trkpt>
<trkpt lat="31.9232100" lon="34.9924200">
<ele>208.860001</ele>
<time>2024-02-20T10:15:30.742Z</time>
</trkpt>
<trkpt lat="31.9232200" lon="34.9924700">
<ele>209.100006</ele>
<time>2024-02-20T10:15:30.742Z</time>
</trkpt>
<trkpt lat="31.9232400" lon="34.9925200">
<ele>209.470001</ele>
<time>2024-02-20T10:15:30.742Z</time>
</trkpt>
<trkpt lat="31.9232500" lon="34.9925600">
<ele>209.830002</ele>
<time>2024-02-20T10:15:30.742Z</time>
</trkpt>
<trkpt lat="31.9232600" lon="34.9925900">
<ele>210.119995</ele>
<time>2024-02-20T10:15:30.742Z</time>
</trkpt>
<trkpt lat="31.9232800" lon="34.9926300">
<ele>210.549988</ele>
<time>2024-02-20T10:15:30.742Z</time>
</trkpt>
<trkpt lat="31.9233000" lon="34.9926700">
<ele>210.979996</ele>
<time>2024-02-20T10:15:30.742Z</time>
</trkpt>
<trkpt lat="31.9233100" lon="34.9927100">
<ele>211.339996</ele>
<time>2024-02-20T10:15:30.742Z</time>
</trkpt>
<trkpt lat="31.9233100" lon="34.9927500">
<ele>211.630005</ele>
<time>2024-02-20T10:15:30.742Z</time>
</trkpt>
<trkpt lat="31.9233100" lon="34.9928100">
<ele>212.069992</ele>
<time>2024-02-20T10:15:30.742Z</time>
</trkpt>
<trkpt lat="31.9233100" lon="34.9928200">
<ele>212.150009</ele>
<time>2024-02-20T10:15:30.742Z</time>
</trkpt>
<trkpt lat="31.9233100" lon="34.9928400">
<ele>212.300003</ele>
<time>2024-02-20T10:15:30.742Z</time>
</trkpt>
<trkpt lat="31.9233100" lon="34.9928700">
<ele>212.519989</ele>
<time>2024-02-20T10:15:30.742Z</time>
</trkpt>
<trkpt lat="31.9233100" lon="34.9928900">
<ele>212.669998</ele>
<time>2024-02-20T10:15:30.742Z</time>
</trkpt>
<trkpt lat="31.9233200" lon="34.9929100">
<ele>212.879990</ele>
<time>2024-02-20T10:15:30.742Z</time>
</trkpt>
<trkpt lat="31.9233300" lon="34.9929300">
<ele>213.080002</ele>
<time>2024-02-20T10:15:30.742Z</time>
</trkpt>
<trkpt lat="31.9233400" lon="34.9929500">
<ele>213.130005</ele>
<time>2024-02-20T10:15:30.742Z</time>
</trkpt>
<trkpt lat="31.9233600" lon="34.9929600">
<ele>212.889999</ele>
<time>2024-02-20T10:15:30.742Z</time>
</trkpt>
<trkpt lat="31.9233700" lon="34.9929800">
<ele>212.889999</ele>
<time>2024-02-20T10:15:30.742Z</time>
</trkpt>
<trkpt lat="31.9234100" lon="34.9930200">
<ele>212.600006</ele>
<time>2024-02-20T10:15:30.742Z</time>
</trkpt>
<trkpt lat="31.9234300" lon="34.9930500">
<ele>212.559998</ele>
<time>2024-02-20T10:15:30.742Z</time>
</trkpt>
<trkpt lat="31.9234500" lon="34.9931000">
<ele>212.910004</ele>
<time>2024-02-20T10:15:30.742Z</time>
</trkpt>
<trkpt lat="31.9234800" lon="34.9931600">
<ele>213.430008</ele>
<time>2024-02-20T10:15:30.742Z</time>
</trkpt>
<trkpt lat="31.9234900" lon="34.9932000">
<ele>213.960007</ele>
<time>2024-02-20T10:15:30.742Z</time>
</trkpt>
<trkpt lat="31.9235100" lon="34.9932400">
<ele>214.470001</ele>
<time>2024-02-20T10:15:30.742Z</time>
</trkpt>
<trkpt lat="31.9244900" lon="34.9946100">
<ele>224.770004</ele>
<time>2024-02-20T10:15:30.742Z</time>
</trkpt>
<trkpt lat="31.9245600" lon="34.9947200">
<ele>224.580002</ele>
<time>2024-02-20T10:15:30.742Z</time>
</trkpt>
<trkpt lat="31.9246300" lon="34.9948300">
<ele>223.819992</ele>
<time>2024-02-20T10:15:30.742Z</time>
</trkpt>
<trkpt lat="31.9247000" lon="34.9949400">
<ele>223.229996</ele>
<time>2024-02-20T10:15:30.742Z</time>
</trkpt>
<trkpt lat="31.9247700" lon="34.9950600">
<ele>222.690002</ele>
<time>2024-02-20T10:15:30.742Z</time>
</trkpt>
<trkpt lat="31.9248300" lon="34.9951800">
<ele>222.479996</ele>
<time>2024-02-20T10:15:30.742Z</time>
</trkpt>
<trkpt lat="31.9248800" lon="34.9953100">
<ele>222.449997</ele>
<time>2024-02-20T10:15:30.742Z</time>
</trkpt>
<trkpt lat="31.9249300" lon="34.9954400">
<ele>222.539993</ele>
<time>2024-02-20T10:15:30.742Z</time>
</trkpt>
<trkpt lat="31.9249800" lon="34.9955700">
<ele>222.919998</ele>
<time>2024-02-20T10:15:30.742Z</time>
</trkpt>
<trkpt lat="31.9250100" lon="34.9957100">
<ele>222.910004</ele>
<time>2024-02-20T10:15:30.742Z</time>
</trkpt>
<trkpt lat="31.9250500" lon="34.9958600">
<ele>222.539993</ele>
<time>2024-02-20T10:15:30.742Z</time>
</trkpt>
<trkpt lat="31.9250800" lon="34.9960000">
<ele>221.820007</ele>
<time>2024-02-20T10:15:30.742Z</time>
</trkpt>
<trkpt lat="31.9251000" lon="34.9961500">
<ele>221.140015</ele>
<time>2024-02-20T10:15:30.742Z</time>
</trkpt>
<trkpt lat="31.9251100" lon="34.9962900">
<ele>220.560013</ele>
<time>2024-02-20T10:15:30.742Z</time>
</trkpt>
<trkpt lat="31.9251200" lon="34.9964300">
<ele>219.920013</ele>
<time>2024-02-20T10:15:30.742Z</time>
</trkpt>
<trkpt lat="31.9251200" lon="34.9965600">
<ele>219.250000</ele>
<time>2024-02-20T10:15:30.742Z</time>
</trkpt>
<trkpt lat="31.9251200" lon="34.9967000">
<ele>218.529999</ele>
<time>2024-02-20T10:15:30.742Z</time>
</trkpt>
<trkpt lat="31.9251100" lon="34.9968300">
<ele>217.990005</ele>
<time>2024-02-20T10:15:30.742Z</time>
</trkpt>
<trkpt lat="31.9251000" lon="34.9969700">
<ele>217.500015</ele>
<time>2024-02-20T10:15:30.742Z</time>
</trkpt>
<trkpt lat="31.9250800" lon="34.9971000">
<ele>217.449997</ele>
<time>2024-02-20T10:15:30.742Z</time>
</trkpt>
<trkpt lat="31.9250500" lon="34.9972300">
<ele>217.430008</ele>
<time>2024-02-20T10:15:30.742Z</time>
</trkpt>
<trkpt lat="31.9250200" lon="34.9973500">
<ele>217.320007</ele>
<time>2024-02-20T10:15:30.742Z</time>
</trkpt>
<trkpt lat="31.9249900" lon="34.9974700">
<ele>217.039993</ele>
<time>2024-02-20T10:15:30.742Z</time>
</trkpt>
<trkpt lat="31.9249800" lon="34.9974900">
<ele>216.889999</ele>
<time>2024-02-20T10:15:30.742Z</time>
</trkpt>
<trkpt lat="31.9249500" lon="34.9975900">
<ele>216.110016</ele>
<time>2024-02-20T10:15:30.742Z</time>
</trkpt>
<trkpt lat="31.9249000" lon="34.9977000">
<ele>215.360001</ele>
<time>2024-02-20T10:15:30.742Z</time>
</trkpt>
<trkpt lat="31.9248600" lon="34.9978200">
<ele>214.770004</ele>
<time>2024-02-20T10:15:30.742Z</time>
</trkpt>
<trkpt lat="31.9248300" lon="34.9978700">
<ele>214.540009</ele>
<time>2024-02-20T10:15:30.742Z</time>
</trkpt>
<trkpt lat="31.9248100" lon="34.9979300">
<ele>214.279999</ele>
<time>2024-02-20T10:15:30.742Z</time>
</trkpt>
<trkpt lat="31.9247500" lon="34.9980400">
<ele>213.960007</ele>
<time>2024-02-20T10:15:30.742Z</time>
</trkpt>
<trkpt lat="31.9246900" lon="34.9981500">
<ele>212.660004</ele>
<time>2024-02-20T10:15:30.742Z</time>
</trkpt>
<trkpt lat="31.9246300" lon="34.9982500">
<ele>210.840012</ele>
<time>2024-02-20T10:15:30.742Z</time>
</trkpt>
<trkpt lat="31.9245600" lon="34.9983500">
<ele>209.150009</ele>
<time>2024-02-20T10:15:30.742Z</time>
</trkpt>
<trkpt lat="31.9244900" lon="34.9984400">
<ele>208.460007</ele>
<time>2024-02-20T10:15:30.742Z</time>
</trkpt>
<trkpt lat="31.9244200" lon="34.9985300">
<ele>208.299988</ele>
<time>2024-02-20T10:15:30.742Z</time>
</trkpt>
<trkpt lat="31.9243500" lon="34.9986200">
<ele>208.599991</ele>
<time>2024-02-20T10:15:30.742Z</time>
</trkpt>
<trkpt lat="31.9242700" lon="34.9987000">
<ele>207.449997</ele>
<time>2024-02-20T10:15:30.742Z</time>
</trkpt>
<trkpt lat="31.9241800" lon="34.9987800">
<ele>205.699997</ele>
<time>2024-02-20T10:15:30.742Z</time>
</trkpt>
<trkpt lat="31.9241000" lon="34.9988500">
<ele>203.950012</ele>
<time>2024-02-20T10:15:30.742Z</time>
</trkpt>
<trkpt lat="31.9240100" lon="34.9989200">
<ele>202.979996</ele>
<time>2024-02-20T10:15:30.742Z</time>
</trkpt>
<trkpt lat="31.9239200" lon="34.9989900">
<ele>202.589996</ele>
<time>2024-02-20T10:15:30.742Z</time>
</trkpt>
<trkpt lat="31.9238200" lon="34.9990500">
<ele>202.580002</ele>
<time>2024-02-20T10:15:30.742Z</time>
</trkpt>
<trkpt lat="31.9237200" lon="34.9991100">
<ele>202.799988</ele>
<time>2024-02-20T10:15:30.742Z</time>
</trkpt>
<trkpt lat="31.9236800" lon="34.9991400">
<ele>202.900009</ele>
<time>2024-02-20T10:15:30.742Z</time>
</trkpt>
<trkpt lat="31.9236500" lon="34.9991500">
<ele>202.940002</ele>
<time>2024-02-20T10:15:30.742Z</time>
</trkpt>
<trkpt lat="31.9236200" lon="34.9991600">
<ele>202.979996</ele>
<time>2024-02-20T10:15:30.742Z</time>
</trkpt>
<trkpt lat="31.9236000" lon="34.9991600">
<ele>203.139984</ele>
<time>2024-02-20T10:15:30.742Z</time>
</trkpt>
<trkpt lat="31.9235600" lon="34.9991500">
<ele>203.679993</ele>
<time>2024-02-20T10:15:30.742Z</time>
</trkpt>
<trkpt lat="31.9235400" lon="34.9991400">
<ele>203.930008</ele>
<time>2024-02-20T10:15:30.742Z</time>
</trkpt>
<trkpt lat="31.9235200" lon="34.9991400">
<ele>204.220001</ele>
<time>2024-02-20T10:15:30.742Z</time>
</trkpt>
<trkpt lat="31.9234900" lon="34.9991400">
<ele>204.649994</ele>
<time>2024-02-20T10:15:30.742Z</time>
</trkpt>
<trkpt lat="31.9234700" lon="34.9991400">
<ele>204.939987</ele>
<time>2024-02-20T10:15:30.742Z</time>
</trkpt>
<trkpt lat="31.9234500" lon="34.9991400">
<ele>205.220001</ele>
<time>2024-02-20T10:15:30.742Z</time>
</trkpt>
<trkpt lat="31.9234300" lon="34.9991500">
<ele>205.550003</ele>
<time>2024-02-20T10:15:30.742Z</time>
</trkpt>
<trkpt lat="31.9234100" lon="34.9991700">
<ele>205.929993</ele>
<time>2024-02-20T10:15:30.742Z</time>
</trkpt>
<trkpt lat="31.9233900" lon="34.9991800">
<ele>206.320007</ele>
<time>2024-02-20T10:15:30.742Z</time>
</trkpt>
<trkpt lat="31.9233800" lon="34.9992100">
<ele>206.739990</ele>
<time>2024-02-20T10:15:30.742Z</time>
</trkpt>
<trkpt lat="31.9233900" lon="34.9991500">
<ele>206.119995</ele>
<time>2024-02-20T10:15:30.742Z</time>
</trkpt>
<trkpt lat="31.9233900" lon="34.9991100">
<ele>205.980011</ele>
<time>2024-02-20T10:15:30.742Z</time>
</trkpt>
<trkpt lat="31.9233800" lon="34.9990600">
<ele>205.940002</ele>
<time>2024-02-20T10:15:30.742Z</time>
</trkpt>
<trkpt lat="31.9233500" lon="34.9989300">
<ele>205.910004</ele>
<time>2024-02-20T10:15:30.742Z</time>
</trkpt>
<trkpt lat="31.9232400" lon="34.9985900">
<ele>207.659988</ele>
<time>2024-02-20T10:15:30.742Z</time>
</trkpt>
<trkpt lat="31.9231200" lon="34.9982000">
<ele>207.970001</ele>
<time>2024-02-20T10:15:30.742Z</time>
</trkpt>
<trkpt lat="31.9230300" lon="34.9979000">
<ele>207.669998</ele>
<time>2024-02-20T10:15:30.742Z</time>
</trkpt>
<trkpt lat="31.9229200" lon="34.9976200">
<ele>206.790009</ele>
<time>2024-02-20T10:15:30.742Z</time>
</trkpt>
<trkpt lat="31.9228300" lon="34.9974000">
<ele>206.639999</ele>
<time>2024-02-20T10:15:30.742Z</time>
</trkpt>
<trkpt lat="31.9227300" lon="34.9971900">
<ele>205.940002</ele>
<time>2024-02-20T10:15:30.742Z</time>
</trkpt>
<trkpt lat="31.9226100" lon="34.9969500">
<ele>206.380005</ele>
<time>2024-02-20T10:15:30.742Z</time>
</trkpt>
<trkpt lat="31.9225500" lon="34.9968400">
<ele>206.039993</ele>
<time>2024-02-20T10:15:30.742Z</time>
</trkpt>
<trkpt lat="31.9224300" lon="34.9966500">
<ele>205.470001</ele>
<time>2024-02-20T10:15:30.742Z</time>
</trkpt>
<trkpt lat="31.9223000" lon="34.9964300">
<ele>204.930008</ele>
<time>2024-02-20T10:15:30.742Z</time>
</trkpt>
<trkpt lat="31.9221800" lon="34.9962500">
<ele>205.349991</ele>
<time>2024-02-20T10:15:30.742Z</time>
</trkpt>
<trkpt lat="31.9220000" lon="34.9960200">
<ele>206.130005</ele>
<time>2024-02-20T10:15:30.742Z</time>
</trkpt>
<trkpt lat="31.9218000" lon="34.9957600">
<ele>205.750015</ele>
<time>2024-02-20T10:15:30.742Z</time>
</trkpt>
<trkpt lat="31.9217600" lon="34.9957100">
<ele>205.929993</ele>
<time>2024-02-20T10:15:30.742Z</time>
</trkpt>
<trkpt lat="31.9217600" lon="34.9957100">
<ele>205.929993</ele>
<time>2024-02-20T10:15:30.742Z</time>
</trkpt>
<trkpt lat="31.9215300" lon="34.9954500">
<ele>203.050003</ele>
<time>2024-02-20T10:15:30.742Z</time>
</trkpt>
<trkpt lat="31.9212300" lon="34.9951000">
<ele>202.300003</ele>
<time>2024-02-20T10:15:30.742Z</time>
</trkpt>
<trkpt lat="31.9208300" lon="34.9946300">
<ele>195.569992</ele>
<time>2024-02-20T10:15:30.742Z</time>
</trkpt>
<trkpt lat="31.9207900" lon="34.9945900">
<ele>193.910004</ele>
<time>2024-02-20T10:15:30.742Z</time>
</trkpt>
<trkpt lat="31.9207300" lon="34.9945200">
<ele>191.720001</ele>
<time>2024-02-20T10:15:30.742Z</time>
</trkpt>
<trkpt lat="31.9206800" lon="34.9944900">
<ele>190.440002</ele>
<time>2024-02-20T10:15:30.742Z</time>
</trkpt>
<trkpt lat="31.9206300" lon="34.9944700">
<ele>189.370010</ele>
<time>2024-02-20T10:15:30.742Z</time>
</trkpt>
<trkpt lat="31.9206800" lon="34.9944500">
<ele>190.259995</ele>
<time>2024-02-20T10:15:30.742Z</time>
</trkpt>
<trkpt lat="31.9207200" lon="34.9944200">
<ele>190.589996</ele>
<time>2024-02-20T10:15:30.742Z</time>
</trkpt>
<trkpt lat="31.9207500" lon="34.9943500">
<ele>190.000000</ele>
<time>2024-02-20T10:15:30.742Z</time>
</trkpt>
<trkpt lat="31.9207600" lon="34.9943000">
<ele>189.350006</ele>
<time>2024-02-20T10:15:30.742Z</time>
</trkpt>
<trkpt lat="31.9207500" lon="34.9942600">
<ele>188.580002</ele>
<time>2024-02-20T10:15:30.742Z</time>
</trkpt>
<trkpt lat="31.9207500" lon="34.9942400">
<ele>188.260010</ele>
<time>2024-02-20T10:15:30.742Z</time>
</trkpt>
<trkpt lat="31.9207200" lon="34.9941900">
<ele>187.129990</ele>
<time>2024-02-20T10:15:30.742Z</time>
</trkpt>
<trkpt lat="31.9206900" lon="34.9941500">
<ele>186.209991</ele>
<time>2024-02-20T10:15:30.742Z</time>
</trkpt>
<trkpt lat="31.9206500" lon="34.9941400">
<ele>185.670013</ele>
<time>2024-02-20T10:15:30.742Z</time>
</trkpt>
<trkpt lat="31.9206000" lon="34.9941300">
<ele>185.039993</ele>
<time>2024-02-20T10:15:30.742Z</time>
</trkpt>
<trkpt lat="31.9205900" lon="34.9941400">
<ele>185.059998</ele>
<time>2024-02-20T10:15:30.742Z</time>
</trkpt>
<trkpt lat="31.9205600" lon="34.9941500">
<ele>184.869995</ele>
<time>2024-02-20T10:15:30.742Z</time>
</trkpt>
<trkpt lat="31.9205200" lon="34.9941800">
<ele>184.380005</ele>
<time>2024-02-20T10:15:30.742Z</time>
</trkpt>
<trkpt lat="31.9204800" lon="34.9942500">
<ele>184.270004</ele>
<time>2024-02-20T10:15:30.742Z</time>
</trkpt>
<trkpt lat="31.9204800" lon="34.9943100">
<ele>184.919998</ele>
<time>2024-02-20T10:15:30.742Z</time>
</trkpt>
<trkpt lat="31.9204900" lon="34.9943600">
<ele>185.670013</ele>
<time>2024-02-20T10:15:30.742Z</time>
</trkpt>
<trkpt lat="31.9205100" lon="34.9944100">
<ele>186.639999</ele>
<time>2024-02-20T10:15:30.742Z</time>
</trkpt>
<trkpt lat="31.9205400" lon="34.9944400">
<ele>187.620010</ele>
<time>2024-02-20T10:15:30.742Z</time>
</trkpt>
<trkpt lat="31.9205800" lon="34.9944600">
<ele>188.410004</ele>
<time>2024-02-20T10:15:30.742Z</time>
</trkpt>
<trkpt lat="31.9205200" lon="34.9944700">
<ele>187.129990</ele>
<time>2024-02-20T10:15:30.742Z</time>
</trkpt>
<trkpt lat="31.9204800" lon="34.9944900">
<ele>186.160004</ele>
<time>2024-02-20T10:15:30.742Z</time>
</trkpt>
<trkpt lat="31.9204400" lon="34.9945300">
<ele>185.070007</ele>
<time>2024-02-20T10:15:30.742Z</time>
</trkpt>
<trkpt lat="31.9204000" lon="34.9945900">
<ele>183.819992</ele>
<time>2024-02-20T10:15:30.742Z</time>
</trkpt>
<trkpt lat="31.9194400" lon="34.9963700">
<ele>182.800003</ele>
<time>2024-02-20T10:15:30.742Z</time>
</trkpt>
<trkpt lat="31.9192700" lon="34.9966900">
<ele>180.519989</ele>
<time>2024-02-20T10:15:30.742Z</time>
</trkpt>
<trkpt lat="31.9191800" lon="34.9968800">
<ele>180.630005</ele>
<time>2024-02-20T10:15:30.742Z</time>
</trkpt>
<trkpt lat="31.9191100" lon="34.9970300">
<ele>182.010010</ele>
<time>2024-02-20T10:15:30.742Z</time>
</trkpt>
<trkpt lat="31.9190500" lon="34.9972000">
<ele>183.989990</ele>
<time>2024-02-20T10:15:30.742Z</time>
</trkpt>
<trkpt lat="31.9190000" lon="34.9973600">
<ele>184.689987</ele>
<time>2024-02-20T10:15:30.742Z</time>
</trkpt>
<trkpt lat="31.9190000" lon="34.9973600">
<ele>184.689987</ele>
<time>2024-02-20T10:15:30.742Z</time>
</trkpt>
<trkpt lat="31.9189500" lon="34.9975700">
<ele>185.350006</ele>
<time>2024-02-20T10:15:30.742Z</time>
</trkpt>
<trkpt lat="31.9189100" lon="34.9977900">
<ele>186.709991</ele>
<time>2024-02-20T10:15:30.742Z</time>
</trkpt>
<trkpt lat="31.9185700" lon="35.0002600">
<ele>201.319992</ele>
<time>2024-02-20T10:15:30.742Z</time>
</trkpt>
<trkpt lat="31.9184800" lon="35.0008500">
<ele>203.260010</ele>
<time>2024-02-20T10:15:30.742Z</time>
</trkpt>
<trkpt lat="31.9184700" lon="35.0009200">
<ele>203.410004</ele>
<time>2024-02-20T10:15:30.742Z</time>
</trkpt>
<trkpt lat="31.9184700" lon="35.0009800">
<ele>203.729996</ele>
<time>2024-02-20T10:15:30.742Z</time>
</trkpt>
<trkpt lat="31.9184400" lon="35.0011500">
<ele>203.419998</ele>
<time>2024-02-20T10:15:30.742Z</time>
</trkpt>
<trkpt lat="31.9183900" lon="35.0014000">
<ele>201.270004</ele>
<time>2024-02-20T10:15:30.742Z</time>
</trkpt>
<trkpt lat="31.9183800" lon="35.0014600">
<ele>201.020004</ele>
<time>2024-02-20T10:15:30.742Z</time>
</trkpt>
<trkpt lat="31.9183700" lon="35.0014900">
<ele>200.720001</ele>
<time>2024-02-20T10:15:30.742Z</time>
</trkpt>
<trkpt lat="31.9183500" lon="35.0015800">
<ele>200.270004</ele>
<time>2024-02-20T10:15:30.742Z</time>
</trkpt>
<trkpt lat="31.9183000" lon="35.0015500">
<ele>199.050003</ele>
<time>2024-02-20T10:15:30.742Z</time>
</trkpt>
<trkpt lat="31.9182400" lon="35.0015100">
<ele>197.899994</ele>
<time>2024-02-20T10:15:30.742Z</time>
</trkpt>
<trkpt lat="31.9179700" lon="35.0021600">
<ele>199.380005</ele>
<time>2024-02-20T10:15:30.742Z</time>
</trkpt>
<trkpt lat="31.9179700" lon="35.0021600">
<ele>199.380005</ele>
<time>2024-02-20T10:15:30.742Z</time>
</trkpt>
<trkpt lat="31.9177600" lon="35.0026700">
<ele>201.800003</ele>
<time>2024-02-20T10:15:30.742Z</time>
</trkpt>
<trkpt lat="31.9177200" lon="35.0027400">
<ele>201.299988</ele>
<time>2024-02-20T10:15:30.742Z</time>
</trkpt>
<trkpt lat="31.9176700" lon="35.0028200">
<ele>201.709991</ele>
<time>2024-02-20T10:15:30.742Z</time>
</trkpt>
<trkpt lat="31.9175300" lon="35.0030600">
<ele>202.710007</ele>
<time>2024-02-20T10:15:30.742Z</time>
</trkpt>
<trkpt lat="31.9174700" lon="35.0031700">
<ele>203.580002</ele>
<time>2024-02-20T10:15:30.742Z</time>
</trkpt>
<trkpt lat="31.9173900" lon="35.0032600">
<ele>204.169998</ele>
<time>2024-02-20T10:15:30.742Z</time>
</trkpt>
<trkpt lat="31.9172500" lon="35.0033700">
<ele>203.840012</ele>
<time>2024-02-20T10:15:30.742Z</time>
</trkpt>
<trkpt lat="31.9170600" lon="35.0035400">
<ele>206.139999</ele>
<time>2024-02-20T10:15:30.742Z</time>
</trkpt>
<trkpt lat="31.9169400" lon="35.0036400">
<ele>206.119995</ele>
<time>2024-02-20T10:15:30.742Z</time>
</trkpt>
<trkpt lat="31.9168500" lon="35.0037000">
<ele>206.439987</ele>
<time>2024-02-20T10:15:30.742Z</time>
</trkpt>
<trkpt lat="31.9167900" lon="35.0037200">
<ele>206.509995</ele>
<time>2024-02-20T10:15:30.742Z</time>
</trkpt>
<trkpt lat="31.9166800" lon="35.0037400">
<ele>206.529999</ele>
<time>2024-02-20T10:15:30.742Z</time>
</trkpt>
<trkpt lat="31.9165900" lon="35.0037400">
<ele>207.110001</ele>
<time>2024-02-20T10:15:30.742Z</time>
</trkpt>
<trkpt lat="31.9165000" lon="35.0037500">
<ele>207.699997</ele>
<time>2024-02-20T10:15:30.742Z</time>
</trkpt>
<trkpt lat="31.9164300" lon="35.0037700">
<ele>208.009995</ele>
<time>2024-02-20T10:15:30.742Z</time>
</trkpt>
<trkpt lat="31.9163600" lon="35.0037900">
<ele>208.759995</ele>
<time>2024-02-20T10:15:30.742Z</time>
</trkpt>
<trkpt lat="31.9163000" lon="35.0038500">
<ele>209.620010</ele>
<time>2024-02-20T10:15:30.742Z</time>
</trkpt>
<trkpt lat="31.9162100" lon="35.0039400">
<ele>210.729996</ele>
<time>2024-02-20T10:15:30.742Z</time>
</trkpt>
<trkpt lat="31.9161200" lon="35.0040200">
<ele>211.019989</ele>
<time>2024-02-20T10:15:30.742Z</time>
</trkpt>
<trkpt lat="31.9160700" lon="35.0040600">
<ele>211.199997</ele>
<time>2024-02-20T10:15:30.742Z</time>
</trkpt>
<trkpt lat="31.9160000" lon="35.0040900">
<ele>212.300003</ele>
<time>2024-02-20T10:15:30.742Z</time>
</trkpt>
<trkpt lat="31.9159100" lon="35.0041100">
<ele>214.279999</ele>
<time>2024-02-20T10:15:30.742Z</time>
</trkpt>
<trkpt lat="31.9158300" lon="35.0041100">
<ele>216.239990</ele>
<time>2024-02-20T10:15:30.742Z</time>
</trkpt>
<trkpt lat="31.9156800" lon="35.0040900">
<ele>217.929993</ele>
<time>2024-02-20T10:15:30.742Z</time>
</trkpt>
<trkpt lat="31.9155700" lon="35.0041000">
<ele>219.080002</ele>
<time>2024-02-20T10:15:30.742Z</time>
</trkpt>
<trkpt lat="31.9155700" lon="35.0041000">
<ele>219.080002</ele>
<time>2024-02-20T10:15:30.742Z</time>
</trkpt>
<trkpt lat="31.9155200" lon="35.0041100">
<ele>219.819992</ele>
<time>2024-02-20T10:15:30.742Z</time>
</trkpt>
<trkpt lat="31.9154600" lon="35.0041400">
<ele>220.779999</ele>
<time>2024-02-20T10:15:30.742Z</time>
</trkpt>
<trkpt lat="31.9153100" lon="35.0042100">
<ele>223.139999</ele>
<time>2024-02-20T10:15:30.742Z</time>
</trkpt>
<trkpt lat="31.9152500" lon="35.0042400">
<ele>223.349991</ele>
<time>2024-02-20T10:15:30.742Z</time>
</trkpt>
<trkpt lat="31.9152000" lon="35.0042800">
<ele>222.789993</ele>
<time>2024-02-20T10:15:30.742Z</time>
</trkpt>
<trkpt lat="31.9151700" lon="35.0042500">
<ele>222.899994</ele>
<time>2024-02-20T10:15:30.742Z</time>
</trkpt>
<trkpt lat="31.9149900" lon="35.0043500">
<ele>221.209991</ele>
<time>2024-02-20T10:15:30.742Z</time>
</trkpt>
<trkpt lat="31.9148600" lon="35.0044300">
<ele>223.130005</ele>
<time>2024-02-20T10:15:30.742Z</time>
</trkpt>
<trkpt lat="31.9148200" lon="35.0044600">
<ele>223.910004</ele>
<time>2024-02-20T10:15:30.742Z</time>
</trkpt>
<trkpt lat="31.9146700" lon="35.0045700">
<ele>227.490005</ele>
<time>2024-02-20T10:15:30.742Z</time>
</trkpt>
<trkpt lat="31.9145700" lon="35.0046400">
<ele>231.389999</ele>
<time>2024-02-20T10:15:30.742Z</time>
</trkpt>
<trkpt lat="31.9145000" lon="35.0047100">
<ele>234.539993</ele>
<time>2024-02-20T10:15:30.742Z</time>
</trkpt>
<trkpt lat="31.9145100" lon="35.0047700">
<ele>233.550003</ele>
<time>2024-02-20T10:15:30.742Z</time>
</trkpt>
<trkpt lat="31.9144500" lon="35.0048100">
<ele>235.220001</ele>
<time>2024-02-20T10:15:30.742Z</time>
</trkpt>
<trkpt lat="31.9144100" lon="35.0048600">
<ele>235.080002</ele>
<time>2024-02-20T10:15:30.742Z</time>
</trkpt>
<trkpt lat="31.9143600" lon="35.0049300">
<ele>235.000000</ele>
<time>2024-02-20T10:15:30.742Z</time>
</trkpt>
<trkpt lat="31.9143100" lon="35.0050200">
<ele>235.330002</ele>
<time>2024-02-20T10:15:30.742Z</time>
</trkpt>
<trkpt lat="31.9142600" lon="35.0051300">
<ele>235.569992</ele>
<time>2024-02-20T10:15:30.742Z</time>
</trkpt>
<trkpt lat="31.9142300" lon="35.0052200">
<ele>234.889999</ele>
<time>2024-02-20T10:15:30.742Z</time>
</trkpt>
<trkpt lat="31.9141900" lon="35.0054100">
<ele>234.240005</ele>
<time>2024-02-20T10:15:30.742Z</time>
</trkpt>
<trkpt lat="31.9141600" lon="35.0055500">
<ele>234.190002</ele>
<time>2024-02-20T10:15:30.742Z</time>
</trkpt>
<trkpt lat="31.9141100" lon="35.0056700">
<ele>237.100006</ele>
<time>2024-02-20T10:15:30.742Z</time>
</trkpt>
<trkpt lat="31.9141000" lon="35.0057500">
<ele>238.240005</ele>
<time>2024-02-20T10:15:30.742Z</time>
</trkpt>
<trkpt lat="31.9141000" lon="35.0058400">
<ele>239.229996</ele>
<time>2024-02-20T10:15:30.742Z</time>
</trkpt>
<trkpt lat="31.9141000" lon="35.0058700">
<ele>239.180008</ele>
<time>2024-02-20T10:15:30.742Z</time>
</trkpt>
<trkpt lat="31.9138800" lon="35.0066700">
<ele>238.979996</ele>
<time>2024-02-20T10:15:30.742Z</time>
</trkpt>
<trkpt lat="31.9138200" lon="35.0068800">
<ele>239.330002</ele>
<time>2024-02-20T10:15:30.742Z</time>
</trkpt>
<trkpt lat="31.9137800" lon="35.0069600">
<ele>239.429993</ele>
<time>2024-02-20T10:15:30.742Z</time>
</trkpt>
<trkpt lat="31.9137300" lon="35.0070200">
<ele>239.750000</ele>
<time>2024-02-20T10:15:30.742Z</time>
</trkpt>
<trkpt lat="31.9136600" lon="35.0070900">
<ele>239.679993</ele>
<time>2024-02-20T10:15:30.742Z</time>
</trkpt>
<trkpt lat="31.9136300" lon="35.0071400">
<ele>239.690002</ele>
<time>2024-02-20T10:15:30.742Z</time>
</trkpt>
<trkpt lat="31.9135800" lon="35.0072400">
<ele>240.000000</ele>
<time>2024-02-20T10:15:30.742Z</time>
</trkpt>
<trkpt lat="31.9135600" lon="35.0073100">
<ele>240.330002</ele>
<time>2024-02-20T10:15:30.742Z</time>
</trkpt>
<trkpt lat="31.9135600" lon="35.0073900">
<ele>240.800003</ele>
<time>2024-02-20T10:15:30.742Z</time>
</trkpt>
<trkpt lat="31.9135600" lon="35.0075700">
<ele>242.660004</ele>
<time>2024-02-20T10:15:30.742Z</time>
</trkpt>
<trkpt lat="31.9135700" lon="35.0076700">
<ele>244.529999</ele>
<time>2024-02-20T10:15:30.742Z</time>
</trkpt>
<trkpt lat="31.9135600" lon="35.0077300">
<ele>245.440002</ele>
<time>2024-02-20T10:15:30.742Z</time>
</trkpt>
<trkpt lat="31.9135300" lon="35.0077900">
<ele>246.010010</ele>
<time>2024-02-20T10:15:30.742Z</time>
</trkpt>
<trkpt lat="31.9134800" lon="35.0078600">
<ele>246.300003</ele>
<time>2024-02-20T10:15:30.742Z</time>
</trkpt>
<trkpt lat="31.9133400" lon="35.0079900">
<ele>246.149994</ele>
<time>2024-02-20T10:15:30.742Z</time>
</trkpt>
<trkpt lat="31.9133900" lon="35.0080100">
<ele>247.160004</ele>
<time>2024-02-20T10:15:30.742Z</time>
</trkpt>
<trkpt lat="31.9134400" lon="35.0080600">
<ele>248.580002</ele>
<time>2024-02-20T10:15:30.742Z</time>
</trkpt>
<trkpt lat="31.9134700" lon="35.0081300">
<ele>249.639999</ele>
<time>2024-02-20T10:15:30.742Z</time>
</trkpt>
<trkpt lat="31.9135000" lon="35.0082300">
<ele>250.910004</ele>
<time>2024-02-20T10:15:30.742Z</time>
</trkpt>
<trkpt lat="31.9134600" lon="35.0083300">
<ele>251.340012</ele>
<time>2024-02-20T10:15:30.742Z</time>
</trkpt>
<trkpt lat="31.9134100" lon="35.0084400">
<ele>250.930008</ele>
<time>2024-02-20T10:15:30.742Z</time>
</trkpt>
<trkpt lat="31.9133700" lon="35.0085200">
<ele>250.480011</ele>
<time>2024-02-20T10:15:30.742Z</time>
</trkpt>
<trkpt lat="31.9133300" lon="35.0086300">
<ele>250.220001</ele>
<time>2024-02-20T10:15:30.742Z</time>
</trkpt>
<trkpt lat="31.9133000" lon="35.0087600">
<ele>251.660004</ele>
<time>2024-02-20T10:15:30.742Z</time>
</trkpt>
<trkpt lat="31.9132800" lon="35.0089100">
<ele>253.350006</ele>
<time>2024-02-20T10:15:30.742Z</time>
</trkpt>
<trkpt lat="31.9132700" lon="35.0090300">
<ele>255.309998</ele>
<time>2024-02-20T10:15:30.742Z</time>
</trkpt>
<trkpt lat="31.9132500" lon="35.0091300">
<ele>256.820007</ele>
<time>2024-02-20T10:15:30.742Z</time>
</trkpt>
<trkpt lat="31.9132200" lon="35.0092600">
<ele>258.669983</ele>
<time>2024-02-20T10:15:30.742Z</time>
</trkpt>
<trkpt lat="31.9132100" lon="35.0093100">
<ele>259.410004</ele>
<time>2024-02-20T10:15:30.742Z</time>
</trkpt>
<trkpt lat="31.9132100" lon="35.0093100">
<ele>259.410004</ele>
<time>2024-02-20T10:15:30.742Z</time>
</trkpt>
<trkpt lat="31.9132100" lon="35.0093100">
<ele>259.410004</ele>
<time>2024-02-20T10:15:30.742Z</time>
</trkpt>
<trkpt lat="31.9131700" lon="35.0094000">
<ele>260.679993</ele>
<time>2024-02-20T10:15:30.742Z</time>
</trkpt>
<trkpt lat="31.9131100" lon="35.0094800">
<ele>261.480011</ele>
<time>2024-02-20T10:15:30.742Z</time>
</trkpt>
<trkpt lat="31.9130900" lon="35.0095600">
<ele>262.010010</ele>
<time>2024-02-20T10:15:30.742Z</time>
</trkpt>
<trkpt lat="31.9130600" lon="35.0096500">
<ele>262.510010</ele>
<time>2024-02-20T10:15:30.742Z</time>
</trkpt>
<trkpt lat="31.9130600" lon="35.0097300">
<ele>263.009979</ele>
<time>2024-02-20T10:15:30.742Z</time>
</trkpt>
<trkpt lat="31.9130600" lon="35.0098100">
<ele>262.739990</ele>
<time>2024-02-20T10:15:30.742Z</time>
</trkpt>
<trkpt lat="31.9130400" lon="35.0100000">
<ele>262.059998</ele>
<time>2024-02-20T10:15:30.742Z</time>
</trkpt>
<trkpt lat="31.9130300" lon="35.0100800">
<ele>262.350006</ele>
<time>2024-02-20T10:15:30.742Z</time>
</trkpt>
<trkpt lat="31.9130100" lon="35.0100800">
<ele>262.399994</ele>
<time>2024-02-20T10:15:30.742Z</time>
</trkpt>
<trkpt lat="31.9129900" lon="35.0101000">
<ele>262.510010</ele>
<time>2024-02-20T10:15:30.742Z</time>
</trkpt>
<trkpt lat="31.9129800" lon="35.0101100">
<ele>262.559998</ele>
<time>2024-02-20T10:15:30.742Z</time>
</trkpt>
<trkpt lat="31.9129700" lon="35.0101300">
<ele>262.630005</ele>
<time>2024-02-20T10:15:30.742Z</time>
</trkpt>
<trkpt lat="31.9129600" lon="35.0101600">
<ele>262.720001</ele>
<time>2024-02-20T10:15:30.742Z</time>
</trkpt>
<trkpt lat="31.9129700" lon="35.0101900">
<ele>262.779999</ele>
<time>2024-02-20T10:15:30.742Z</time>
</trkpt>
<trkpt lat="31.9129700" lon="35.0101900">
<ele>262.779999</ele>
<time>2024-02-20T10:15:30.742Z</time>
</trkpt>
<trkpt lat="31.9129800" lon="35.0102100">
<ele>262.820007</ele>
<time>2024-02-20T10:15:30.742Z</time>
</trkpt>
<trkpt lat="31.9129900" lon="35.0102200">
<ele>262.839996</ele>
<time>2024-02-20T10:15:30.742Z</time>
</trkpt>
<trkpt lat="31.9130100" lon="35.0102300">
<ele>262.859985</ele>
<time>2024-02-20T10:15:30.742Z</time>
</trkpt>
<trkpt lat="31.9129800" lon="35.0103200">
<ele>263.660004</ele>
<time>2024-02-20T10:15:30.742Z</time>
</trkpt>
<trkpt lat="31.9129000" lon="35.0105100">
<ele>265.210022</ele>
<time>2024-02-20T10:15:30.742Z</time>
</trkpt>
<trkpt lat="31.9128800" lon="35.0105500">
<ele>265.160004</ele>
<time>2024-02-20T10:15:30.742Z</time>
</trkpt>
<trkpt lat="31.9128200" lon="35.0107100">
<ele>263.910004</ele>
<time>2024-02-20T10:15:30.742Z</time>
</trkpt>
<trkpt lat="31.9126200" lon="35.0112000">
<ele>263.779999</ele>
<time>2024-02-20T10:15:30.742Z</time>
</trkpt>
<trkpt lat="31.9126100" lon="35.0112200">
<ele>263.829987</ele>
<time>2024-02-20T10:15:30.742Z</time>
</trkpt>
<trkpt lat="31.9125600" lon="35.0113600">
<ele>264.239990</ele>
<time>2024-02-20T10:15:30.742Z</time>
</trkpt>
<trkpt lat="31.9125300" lon="35.0114500">
<ele>264.200012</ele>
<time>2024-02-20T10:15:30.742Z</time>
</trkpt>
<trkpt lat="31.9124900" lon="35.0114200">
<ele>262.980011</ele>
<time>2024-02-20T10:15:30.742Z</time>
</trkpt>
<trkpt lat="31.9124700" lon="35.0114100">
<ele>262.399994</ele>
<time>2024-02-20T10:15:30.742Z</time>
</trkpt>
<trkpt lat="31.9123900" lon="35.0115900">
<ele>261.959991</ele>
<time>2024-02-20T10:15:30.742Z</time>
</trkpt>
<trkpt lat="31.9123900" lon="35.0115900">
<ele>261.959991</ele>
<time>2024-02-20T10:15:30.742Z</time>
</trkpt>
<trkpt lat="31.9123000" lon="35.0118100">
<ele>261.200012</ele>
<time>2024-02-20T10:15:30.742Z</time>
</trkpt>
<trkpt lat="31.9120900" lon="35.0122600">
<ele>260.790009</ele>
<time>2024-02-20T10:15:30.742Z</time>
</trkpt>
<trkpt lat="31.9119400" lon="35.0124100">
<ele>259.019989</ele>
<time>2024-02-20T10:15:30.742Z</time>
</trkpt>
<trkpt lat="31.9117500" lon="35.0124900">
<ele>259.730011</ele>
<time>2024-02-20T10:15:30.742Z</time>
</trkpt>
<trkpt lat="31.9115700" lon="35.0125200">
<ele>261.089996</ele>
<time>2024-02-20T10:15:30.742Z</time>
</trkpt>
<trkpt lat="31.9114500" lon="35.0125100">
<ele>262.350006</ele>
<time>2024-02-20T10:15:30.742Z</time>
</trkpt>
<trkpt lat="31.9114500" lon="35.0125100">
<ele>262.350006</ele>
<time>2024-02-20T10:15:30.742Z</time>
</trkpt>
<trkpt lat="31.9114100" lon="35.0125100">
<ele>262.770020</ele>
<time>2024-02-20T10:15:30.742Z</time>
</trkpt>
<trkpt lat="31.9112400" lon="35.0124400">
<ele>269.329987</ele>
<time>2024-02-20T10:15:30.742Z</time>
</trkpt>
<trkpt lat="31.9112200" lon="35.0124800">
<ele>270.269989</ele>
<time>2024-02-20T10:15:30.742Z</time>
</trkpt>
<trkpt lat="31.9111800" lon="35.0125400">
<ele>271.809998</ele>
<time>2024-02-20T10:15:30.742Z</time>
</trkpt>
<trkpt lat="31.9111000" lon="35.0125300">
<ele>275.140015</ele>
<time>2024-02-20T10:15:30.742Z</time>
</trkpt>
<trkpt lat="31.9111000" lon="35.0125500">
<ele>274.990021</ele>
<time>2024-02-20T10:15:30.742Z</time>
</trkpt>
<trkpt lat="31.9110900" lon="35.0126000">
<ele>274.910004</ele>
<time>2024-02-20T10:15:30.742Z</time>
</trkpt>
<trkpt lat="31.9110600" lon="35.0126600">
<ele>275.290009</ele>
<time>2024-02-20T10:15:30.742Z</time>
</trkpt>
<trkpt lat="31.9109200" lon="35.0128400">
<ele>276.839996</ele>
<time>2024-02-20T10:15:30.742Z</time>
</trkpt>
<trkpt lat="31.9107900" lon="35.0129900">
<ele>276.420013</ele>
<time>2024-02-20T10:15:30.742Z</time>
</trkpt>
<trkpt lat="31.9107700" lon="35.0130100">
<ele>276.199982</ele>
<time>2024-02-20T10:15:30.742Z</time>
</trkpt>
<trkpt lat="31.9107700" lon="35.0130100">
<ele>276.199982</ele>
<time>2024-02-20T10:15:30.742Z</time>
</trkpt>
<trkpt lat="31.9107100" lon="35.0130700">
<ele>275.779999</ele>
<time>2024-02-20T10:15:30.742Z</time>
</trkpt>
<trkpt lat="31.9106600" lon="35.0131000">
<ele>275.929993</ele>
<time>2024-02-20T10:15:30.742Z</time>
</trkpt>
<trkpt lat="31.9106100" lon="35.0131100">
<ele>276.220001</ele>
<time>2024-02-20T10:15:30.742Z</time>
</trkpt>
<trkpt lat="31.9105700" lon="35.0131000">
<ele>276.579987</ele>
<time>2024-02-20T10:15:30.742Z</time>
</trkpt>
<trkpt lat="31.9105400" lon="35.0131000">
<ele>276.510010</ele>
<time>2024-02-20T10:15:30.742Z</time>
</trkpt>
<trkpt lat="31.9105100" lon="35.0131100">
<ele>276.119995</ele>
<time>2024-02-20T10:15:30.742Z</time>
</trkpt>
<trkpt lat="31.9104800" lon="35.0131300">
<ele>275.649994</ele>
<time>2024-02-20T10:15:30.742Z</time>
</trkpt>
<trkpt lat="31.9104600" lon="35.0131500">
<ele>275.290009</ele>
<time>2024-02-20T10:15:30.742Z</time>
</trkpt>
<trkpt lat="31.9104300" lon="35.0132000">
<ele>274.600006</ele>
<time>2024-02-20T10:15:30.742Z</time>
</trkpt>
<trkpt lat="31.9103800" lon="35.0132700">
<ele>273.559998</ele>
<time>2024-02-20T10:15:30.742Z</time>
</trkpt>
<trkpt lat="31.9103200" lon="35.0133100">
<ele>272.619995</ele>
<time>2024-02-20T10:15:30.742Z</time>
</trkpt>
<trkpt lat="31.9102500" lon="35.0133400">
<ele>271.820007</ele>
<time>2024-02-20T10:15:30.742Z</time>
</trkpt>
<trkpt lat="31.9101200" lon="35.0133800">
<ele>271.029999</ele>
<time>2024-02-20T10:15:30.742Z</time>
</trkpt>
<trkpt lat="31.9099600" lon="35.0134300">
<ele>271.019989</ele>
<time>2024-02-20T10:15:30.742Z</time>
</trkpt>
<trkpt lat="31.9098400" lon="35.0134300">
<ele>273.029999</ele>
<time>2024-02-20T10:15:30.742Z</time>
</trkpt>
<trkpt lat="31.9097800" lon="35.0134100">
<ele>274.019989</ele>
<time>2024-02-20T10:15:30.742Z</time>
</trkpt>
<trkpt lat="31.9097300" lon="35.0133800">
<ele>274.860016</ele>
<time>2024-02-20T10:15:30.742Z</time>
</trkpt>
<trkpt lat="31.9096800" lon="35.0133300">
<ele>275.330017</ele>
<time>2024-02-20T10:15:30.742Z</time>
</trkpt>
<trkpt lat="31.9096500" lon="35.0132700">
<ele>275.919983</ele>
<time>2024-02-20T10:15:30.742Z</time>
</trkpt>
<trkpt lat="31.9096200" lon="35.0132000">
<ele>276.519989</ele>
<time>2024-02-20T10:15:30.742Z</time>
</trkpt>
<trkpt lat="31.9096700" lon="35.0130700">
<ele>277.089996</ele>
<time>2024-02-20T10:15:30.742Z</time>
</trkpt>
<trkpt lat="31.9096900" lon="35.0129900">
<ele>277.139984</ele>
<time>2024-02-20T10:15:30.742Z</time>
</trkpt>
<trkpt lat="31.9096900" lon="35.0129900">
<ele>277.139984</ele>
<time>2024-02-20T10:15:30.742Z</time>
</trkpt>
<trkpt lat="31.9097400" lon="35.0127300">
<ele>276.950012</ele>
<time>2024-02-20T10:15:30.742Z</time>
</trkpt>
<trkpt lat="31.9097700" lon="35.0125200">
<ele>276.989990</ele>
<time>2024-02-20T10:15:30.742Z</time>
</trkpt>
<trkpt lat="31.9097800" lon="35.0123900">
<ele>277.000000</ele>
<time>2024-02-20T10:15:30.742Z</time>
</trkpt>
<trkpt lat="31.9097800" lon="35.0123300">
<ele>277.000000</ele>
<time>2024-02-20T10:15:30.742Z</time>
</trkpt>
<trkpt lat="31.9097900" lon="35.0121200">
<ele>276.910004</ele>
<time>2024-02-20T10:15:30.742Z</time>
</trkpt>
<trkpt lat="31.9097900" lon="35.0119300">
<ele>276.799988</ele>
<time>2024-02-20T10:15:30.742Z</time>
</trkpt>
<trkpt lat="31.9097900" lon="35.0117200">
<ele>277.369995</ele>
<time>2024-02-20T10:15:30.742Z</time>
</trkpt>
<trkpt lat="31.9097700" lon="35.0113500">
<ele>277.199982</ele>
<time>2024-02-20T10:15:30.742Z</time>
</trkpt>
<trkpt lat="31.9097700" lon="35.0112200">
<ele>278.440002</ele>
<time>2024-02-20T10:15:30.742Z</time>
</trkpt>
<trkpt lat="31.9097800" lon="35.0110800">
<ele>279.639984</ele>
<time>2024-02-20T10:15:30.742Z</time>
</trkpt>
<trkpt lat="31.9098000" lon="35.0109400">
<ele>280.489990</ele>
<time>2024-02-20T10:15:30.742Z</time>
</trkpt>
<trkpt lat="31.9098100" lon="35.0108600">
<ele>280.910004</ele>
<time>2024-02-20T10:15:30.742Z</time>
</trkpt>
<trkpt lat="31.9098200" lon="35.0107800">
<ele>280.709991</ele>
<time>2024-02-20T10:15:30.742Z</time>
</trkpt>
<trkpt lat="31.9098200" lon="35.0107800">
<ele>280.709991</ele>
<time>2024-02-20T10:15:30.742Z</time>
</trkpt>
<trkpt lat="31.9098600" lon="35.0106000">
<ele>279.589996</ele>
<time>2024-02-20T10:15:30.742Z</time>
</trkpt>
<trkpt lat="31.9098900" lon="35.0103700">
<ele>279.049988</ele>
<time>2024-02-20T10:15:30.742Z</time>
</trkpt>
<trkpt lat="31.9098900" lon="35.0101700">
<ele>278.979980</ele>
<time>2024-02-20T10:15:30.742Z</time>
</trkpt>
<trkpt lat="31.9098700" lon="35.0100100">
<ele>279.339996</ele>
<time>2024-02-20T10:15:30.742Z</time>
</trkpt>
<trkpt lat="31.9098500" lon="35.0097400">
<ele>280.640015</ele>
<time>2024-02-20T10:15:30.742Z</time>
</trkpt>
<trkpt lat="31.9098400" lon="35.0095500">
<ele>280.949982</ele>
<time>2024-02-20T10:15:30.742Z</time>
</trkpt>
<trkpt lat="31.9099000" lon="35.0092800">
<ele>279.389984</ele>
<time>2024-02-20T10:15:30.742Z</time>
</trkpt>
<trkpt lat="31.9099200" lon="35.0091700">
<ele>278.450012</ele>
<time>2024-02-20T10:15:30.742Z</time>
</trkpt>
<trkpt lat="31.9099300" lon="35.0091000">
<ele>277.899994</ele>
<time>2024-02-20T10:15:30.742Z</time>
</trkpt>
<trkpt lat="31.9099400" lon="35.0088200">
<ele>276.000000</ele>
<time>2024-02-20T10:15:30.742Z</time>
</trkpt>
<trkpt lat="31.9099400" lon="35.0086400">
<ele>276.000000</ele>
<time>2024-02-20T10:15:30.742Z</time>
</trkpt>
<trkpt lat="31.9099300" lon="35.0085200">
<ele>275.670013</ele>
<time>2024-02-20T10:15:30.742Z</time>
</trkpt>
<trkpt lat="31.9099300" lon="35.0084300">
<ele>275.350006</ele>
<time>2024-02-20T10:15:30.742Z</time>
</trkpt>
<trkpt lat="31.9099000" lon="35.0082800">
<ele>274.739990</ele>
<time>2024-02-20T10:15:30.742Z</time>
</trkpt>
<trkpt lat="31.9098600" lon="35.0080800">
<ele>273.630005</ele>
<time>2024-02-20T10:15:30.742Z</time>
</trkpt>
<trkpt lat="31.9097800" lon="35.0077800">
<ele>273.000000</ele>
<time>2024-02-20T10:15:30.742Z</time>
</trkpt>
<trkpt lat="31.9097600" lon="35.0077300">
<ele>272.980011</ele>
<time>2024-02-20T10:15:30.742Z</time>
</trkpt>
<trkpt lat="31.9097500" lon="35.0077000">
<ele>272.970001</ele>
<time>2024-02-20T10:15:30.742Z</time>
</trkpt>
<trkpt lat="31.9097500" lon="35.0077000">
<ele>272.970001</ele>
<time>2024-02-20T10:15:30.742Z</time>
</trkpt>
<trkpt lat="31.9096800" lon="35.0074300">
<ele>272.329987</ele>
<time>2024-02-20T10:15:30.742Z</time>
</trkpt>
<trkpt lat="31.9096600" lon="35.0073400">
<ele>271.880005</ele>
<time>2024-02-20T10:15:30.742Z</time>
</trkpt>
<trkpt lat="31.9096300" lon="35.0072100">
<ele>271.290009</ele>
<time>2024-02-20T10:15:30.742Z</time>
</trkpt>
<trkpt lat="31.9095900" lon="35.0070700">
<ele>270.500000</ele>
<time>2024-02-20T10:15:30.742Z</time>
</trkpt>
<trkpt lat="31.9095800" lon="35.0070100">
<ele>270.209991</ele>
<time>2024-02-20T10:15:30.742Z</time>
</trkpt>
<trkpt lat="31.9095100" lon="35.0067900">
<ele>267.970001</ele>
<time>2024-02-20T10:15:30.742Z</time>
</trkpt>
<trkpt lat="31.9094400" lon="35.0066400">
<ele>266.649994</ele>
<time>2024-02-20T10:15:30.742Z</time>
</trkpt>
<trkpt lat="31.9093700" lon="35.0064900">
<ele>264.989990</ele>
<time>2024-02-20T10:15:30.742Z</time>
</trkpt>
<trkpt lat="31.9093200" lon="35.0064300">
<ele>264.489990</ele>
<time>2024-02-20T10:15:30.742Z</time>
</trkpt>
<trkpt lat="31.9092500" lon="35.0063400">
<ele>263.380005</ele>
<time>2024-02-20T10:15:30.742Z</time>
</trkpt>
<trkpt lat="31.9092000" lon="35.0062300">
<ele>261.029999</ele>
<time>2024-02-20T10:15:30.742Z</time>
</trkpt>
<trkpt lat="31.9091000" lon="35.0061800">
<ele>259.739990</ele>
<time>2024-02-20T10:15:30.742Z</time>
</trkpt>
<trkpt lat="31.9090600" lon="35.0061400">
<ele>258.729980</ele>
<time>2024-02-20T10:15:30.742Z</time>
</trkpt>
<trkpt lat="31.9090700" lon="35.0060900">
<ele>257.800018</ele>
<time>2024-02-20T10:15:30.742Z</time>
</trkpt>
<trkpt lat="31.9090900" lon="35.0060100">
<ele>257.010010</ele>
<time>2024-02-20T10:15:30.742Z</time>
</trkpt>
<trkpt lat="31.9091700" lon="35.0059400">
<ele>256.170013</ele>
<time>2024-02-20T10:15:30.742Z</time>
</trkpt>
<trkpt lat="31.9093800" lon="35.0057600">
<ele>255.830002</ele>
<time>2024-02-20T10:15:30.742Z</time>
</trkpt>
<trkpt lat="31.9093300" lon="35.0056900">
<ele>255.800003</ele>
<time>2024-02-20T10:15:30.742Z</time>
</trkpt>
<trkpt lat="31.9089500" lon="35.0060600">
<ele>257.589996</ele>
<time>2024-02-20T10:15:30.742Z</time>
</trkpt>
<trkpt lat="31.9088300" lon="35.0059200">
<ele>256.619995</ele>
<time>2024-02-20T10:15:30.742Z</time>
</trkpt>
<trkpt lat="31.9087700" lon="35.0058500">
<ele>256.119995</ele>
<time>2024-02-20T10:15:30.742Z</time>
</trkpt>
<trkpt lat="31.9087700" lon="35.0058500">
<ele>256.119995</ele>
<time>2024-02-20T10:15:30.742Z</time>
</trkpt>
<trkpt lat="31.9086200" lon="35.0056500">
<ele>255.360001</ele>
<time>2024-02-20T10:15:30.742Z</time>
</trkpt>
<trkpt lat="31.9084900" lon="35.0056200">
<ele>255.669998</ele>
<time>2024-02-20T10:15:30.742Z</time>
</trkpt>
<trkpt lat="31.9084200" lon="35.0056900">
<ele>256.170013</ele>
<time>2024-02-20T10:15:30.742Z</time>
</trkpt>
<trkpt lat="31.9083000" lon="35.0058200">
<ele>256.609985</ele>
<time>2024-02-20T10:15:30.742Z</time>
</trkpt>
<trkpt lat="31.9082400" lon="35.0058800">
<ele>255.989990</ele>
<time>2024-02-20T10:15:30.742Z</time>
</trkpt>
<trkpt lat="31.9081100" lon="35.0058100">
<ele>254.709991</ele>
<time>2024-02-20T10:15:30.742Z</time>
</trkpt>
<trkpt lat="31.9080700" lon="35.0058200">
<ele>254.239990</ele>
<time>2024-02-20T10:15:30.742Z</time>
</trkpt>
<trkpt lat="31.9079100" lon="35.0056600">
<ele>257.929993</ele>
<time>2024-02-20T10:15:30.742Z</time>
</trkpt>
<trkpt lat="31.9077400" lon="35.0054800">
<ele>263.269989</ele>
<time>2024-02-20T10:15:30.742Z</time>
</trkpt>
<trkpt lat="31.9077000" lon="35.0054500">
<ele>263.200012</ele>
<time>2024-02-20T10:15:30.742Z</time>
</trkpt>
<trkpt lat="31.9077000" lon="35.0054500">
<ele>263.200012</ele>
<time>2024-02-20T10:15:30.742Z</time>
</trkpt>
<trkpt lat="31.9075000" lon="35.0053100">
<ele>262.770020</ele>
<time>2024-02-20T10:15:30.742Z</time>
</trkpt>
<trkpt lat="31.9072800" lon="35.0052000">
<ele>259.760010</ele>
<time>2024-02-20T10:15:30.742Z</time>
</trkpt>
<trkpt lat="31.9069900" lon="35.0051100">
<ele>255.470001</ele>
<time>2024-02-20T10:15:30.742Z</time>
</trkpt>
<trkpt lat="31.9067600" lon="35.0050800">
<ele>253.849991</ele>
<time>2024-02-20T10:15:30.742Z</time>
</trkpt>
<trkpt lat="31.9066100" lon="35.0050700">
<ele>252.580002</ele>
<time>2024-02-20T10:15:30.742Z</time>
</trkpt>
<trkpt lat="31.9064700" lon="35.0050600">
<ele>250.979996</ele>
<time>2024-02-20T10:15:30.742Z</time>
</trkpt>
<trkpt lat="31.9063000" lon="35.0050600">
<ele>249.679993</ele>
<time>2024-02-20T10:15:30.742Z</time>
</trkpt>
<trkpt lat="31.9061400" lon="35.0050300">
<ele>249.099991</ele>
<time>2024-02-20T10:15:30.742Z</time>
</trkpt>
<trkpt lat="31.9059400" lon="35.0050100">
<ele>247.199997</ele>
<time>2024-02-20T10:15:30.742Z</time>
</trkpt>
<trkpt lat="31.9058700" lon="35.0050100">
<ele>246.460007</ele>
<time>2024-02-20T10:15:30.742Z</time>
</trkpt>
<trkpt lat="31.9057900" lon="35.0050300">
<ele>245.610001</ele>
<time>2024-02-20T10:15:30.742Z</time>
</trkpt>
<trkpt lat="31.9055600" lon="35.0050800">
<ele>242.919998</ele>
<time>2024-02-20T10:15:30.742Z</time>
</trkpt>
<trkpt lat="31.9054200" lon="35.0051000">
<ele>241.790009</ele>
<time>2024-02-20T10:15:30.742Z</time>
</trkpt>
<trkpt lat="31.9052200" lon="35.0051200">
<ele>240.429993</ele>
<time>2024-02-20T10:15:30.742Z</time>
</trkpt>
<trkpt lat="31.9050300" lon="35.0051000">
<ele>239.229996</ele>
<time>2024-02-20T10:15:30.742Z</time>
</trkpt>
<trkpt lat="31.9048500" lon="35.0050900">
<ele>234.289993</ele>
<time>2024-02-20T10:15:30.742Z</time>
</trkpt>
<trkpt lat="31.9047300" lon="35.0050900">
<ele>230.539993</ele>
<time>2024-02-20T10:15:30.742Z</time>
</trkpt>
<trkpt lat="31.9045000" lon="35.0051000">
<ele>228.839996</ele>
<time>2024-02-20T10:15:30.742Z</time>
</trkpt>
<trkpt lat="31.9042800" lon="35.0051100">
<ele>229.659988</ele>
<time>2024-02-20T10:15:30.742Z</time>
</trkpt>
<trkpt lat="31.9042800" lon="35.0051100">
<ele>229.659988</ele>
<time>2024-02-20T10:15:30.742Z</time>
</trkpt>
<trkpt lat="31.9041100" lon="35.0051400">
<ele>231.830002</ele>
<time>2024-02-20T10:15:30.742Z</time>
</trkpt>
<trkpt lat="31.9038800" lon="35.0051800">
<ele>236.769989</ele>
<time>2024-02-20T10:15:30.742Z</time>
</trkpt>
<trkpt lat="31.9036700" lon="35.0052400">
<ele>230.910004</ele>
<time>2024-02-20T10:15:30.742Z</time>
</trkpt>
<trkpt lat="31.9034700" lon="35.0052800">
<ele>230.570007</ele>
<time>2024-02-20T10:15:30.742Z</time>
</trkpt>
<trkpt lat="31.9032300" lon="35.0053000">
<ele>231.949997</ele>
<time>2024-02-20T10:15:30.742Z</time>
</trkpt>
<trkpt lat="31.9030700" lon="35.0053100">
<ele>231.520004</ele>
<time>2024-02-20T10:15:30.742Z</time>
</trkpt>
<trkpt lat="31.9029000" lon="35.0053300">
<ele>230.879990</ele>
<time>2024-02-20T10:15:30.742Z</time>
</trkpt>
<trkpt lat="31.9026500" lon="35.0053500">
<ele>230.119995</ele>
<time>2024-02-20T10:15:30.742Z</time>
</trkpt>
<trkpt lat="31.9024300" lon="35.0053600">
<ele>228.419998</ele>
<time>2024-02-20T10:15:30.742Z</time>
</trkpt>
<trkpt lat="31.9022200" lon="35.0053400">
<ele>224.190002</ele>
<time>2024-02-20T10:15:30.742Z</time>
</trkpt>
<trkpt lat="31.9021000" lon="35.0053300">
<ele>222.069992</ele>
<time>2024-02-20T10:15:30.742Z</time>
</trkpt>
<trkpt lat="31.9020000" lon="35.0053300">
<ele>220.339996</ele>
<time>2024-02-20T10:15:30.742Z</time>
</trkpt>
<trkpt lat="31.9018900" lon="35.0053300">
<ele>218.420013</ele>
<time>2024-02-20T10:15:30.742Z</time>
</trkpt>
<trkpt lat="31.9018100" lon="35.0053300">
<ele>217.020004</ele>
<time>2024-02-20T10:15:30.742Z</time>
</trkpt>
<trkpt lat="31.9014300" lon="35.0053600">
<ele>212.850006</ele>
<time>2024-02-20T10:15:30.742Z</time>
</trkpt>
<trkpt lat="31.9014300" lon="35.0053600">
<ele>212.850006</ele>
<time>2024-02-20T10:15:30.742Z</time>
</trkpt>
<trkpt lat="31.9013400" lon="35.0053600">
<ele>212.160004</ele>
<time>2024-02-20T10:15:30.742Z</time>
</trkpt>
<trkpt lat="31.9010200" lon="35.0054100">
<ele>211.330002</ele>
<time>2024-02-20T10:15:30.742Z</time>
</trkpt>
<trkpt lat="31.9008800" lon="35.0054300">
<ele>211.829987</ele>
<time>2024-02-20T10:15:30.742Z</time>
</trkpt>
<trkpt lat="31.9007700" lon="35.0054700">
<ele>213.070007</ele>
<time>2024-02-20T10:15:30.742Z</time>
</trkpt>
<trkpt lat="31.9006200" lon="35.0055200">
<ele>215.740005</ele>
<time>2024-02-20T10:15:30.742Z</time>
</trkpt>
<trkpt lat="31.9005900" lon="35.0055300">
<ele>216.300003</ele>
<time>2024-02-20T10:15:30.742Z</time>
</trkpt>
<trkpt lat="31.9006100" lon="35.0056200">
<ele>215.879990</ele>
<time>2024-02-20T10:15:30.742Z</time>
</trkpt>
<trkpt lat="31.9006200" lon="35.0058200">
<ele>215.330002</ele>
<time>2024-02-20T10:15:30.742Z</time>
</trkpt>
<trkpt lat="31.9006200" lon="35.0058700">
<ele>215.570007</ele>
<time>2024-02-20T10:15:30.742Z</time>
</trkpt>
<trkpt lat="31.9006200" lon="35.0059400">
<ele>216.069992</ele>
<time>2024-02-20T10:15:30.742Z</time>
</trkpt>
<trkpt lat="31.9005900" lon="35.0061600">
<ele>217.339996</ele>
<time>2024-02-20T10:15:30.742Z</time>
</trkpt>
<trkpt lat="31.9005800" lon="35.0061700">
<ele>217.370010</ele>
<time>2024-02-20T10:15:30.742Z</time>
</trkpt>
<trkpt lat="31.9005600" lon="35.0061400">
<ele>217.750000</ele>
<time>2024-02-20T10:15:30.742Z</time>
</trkpt>
<trkpt lat="31.9005500" lon="35.0061200">
<ele>217.820007</ele>
<time>2024-02-20T10:15:30.742Z</time>
</trkpt>
<trkpt lat="31.9005300" lon="35.0060300">
<ele>217.000000</ele>
<time>2024-02-20T10:15:30.742Z</time>
</trkpt>
<trkpt lat="31.9005400" lon="35.0059200">
<ele>216.479996</ele>
<time>2024-02-20T10:15:30.742Z</time>
</trkpt>
<trkpt lat="31.9005400" lon="35.0057800">
<ele>216.169998</ele>
<time>2024-02-20T10:15:30.742Z</time>
</trkpt>
<trkpt lat="31.9005400" lon="35.0057400">
<ele>216.340012</ele>
<time>2024-02-20T10:15:30.742Z</time>
</trkpt>
<trkpt lat="31.9005400" lon="35.0057100">
<ele>216.459991</ele>
<time>2024-02-20T10:15:30.742Z</time>
</trkpt>
<trkpt lat="31.9005300" lon="35.0056700">
<ele>216.660004</ele>
<time>2024-02-20T10:15:30.742Z</time>
</trkpt>
<trkpt lat="31.9005000" lon="35.0055400">
<ele>217.370010</ele>
<time>2024-02-20T10:15:30.742Z</time>
</trkpt>
<trkpt lat="31.9004700" lon="35.0053800">
<ele>217.370010</ele>
<time>2024-02-20T10:15:30.742Z</time>
</trkpt>
<trkpt lat="31.9004400" lon="35.0053000">
<ele>217.679993</ele>
<time>2024-02-20T10:15:30.742Z</time>
</trkpt>
<trkpt lat="31.9004200" lon="35.0052200">
<ele>217.739990</ele>
<time>2024-02-20T10:15:30.742Z</time>
</trkpt>
<trkpt lat="31.9003900" lon="35.0051800">
<ele>218.029999</ele>
<time>2024-02-20T10:15:30.742Z</time>
</trkpt>
<trkpt lat="31.9003800" lon="35.0051500">
<ele>218.070007</ele>
<time>2024-02-20T10:15:30.742Z</time>
</trkpt>
<trkpt lat="31.9003400" lon="35.0050800">
<ele>218.389999</ele>
<time>2024-02-20T10:15:30.742Z</time>
</trkpt>
<trkpt lat="31.9002900" lon="35.0050200">
<ele>218.899994</ele>
<time>2024-02-20T10:15:30.742Z</time>
</trkpt>
<trkpt lat="31.9002600" lon="35.0049800">
<ele>219.060013</ele>
<time>2024-02-20T10:15:30.742Z</time>
</trkpt>
<trkpt lat="31.9002000" lon="35.0049300">
<ele>219.279999</ele>
<time>2024-02-20T10:15:30.742Z</time>
</trkpt>
<trkpt lat="31.9000800" lon="35.0048600">
<ele>219.709991</ele>
<time>2024-02-20T10:15:30.742Z</time>
</trkpt>
<trkpt lat="31.8998900" lon="35.0048000">
<ele>218.809998</ele>
<time>2024-02-20T10:15:30.742Z</time>
</trkpt>
<trkpt lat="31.8998500" lon="35.0047900">
<ele>218.379990</ele>
<time>2024-02-20T10:15:30.742Z</time>
</trkpt>
<trkpt lat="31.8997500" lon="35.0047800">
<ele>217.300003</ele>
<time>2024-02-20T10:15:30.742Z</time>
</trkpt>
<trkpt lat="31.8997000" lon="35.0047800">
<ele>216.510010</ele>
<time>2024-02-20T10:15:30.742Z</time>
</trkpt>
<trkpt lat="31.8996500" lon="35.0047900">
<ele>215.429993</ele>
<time>2024-02-20T10:15:30.742Z</time>
</trkpt>
<trkpt lat="31.8995800" lon="35.0048000">
<ele>213.990005</ele>
<time>2024-02-20T10:15:30.742Z</time>
</trkpt>
<trkpt lat="31.8995400" lon="35.0048100">
<ele>213.240005</ele>
<time>2024-02-20T10:15:30.742Z</time>
</trkpt>
<trkpt lat="31.8994800" lon="35.0048300">
<ele>212.250000</ele>
<time>2024-02-20T10:15:30.742Z</time>
</trkpt>
<trkpt lat="31.8994200" lon="35.0048600">
<ele>211.809998</ele>
<time>2024-02-20T10:15:30.742Z</time>
</trkpt>
<trkpt lat="31.8993600" lon="35.0048900">
<ele>211.870010</ele>
<time>2024-02-20T10:15:30.742Z</time>
</trkpt>
<trkpt lat="31.8992600" lon="35.0049700">
<ele>212.759995</ele>
<time>2024-02-20T10:15:30.742Z</time>
</trkpt>
<trkpt lat="31.8991500" lon="35.0050700">
<ele>213.589996</ele>
<time>2024-02-20T10:15:30.742Z</time>
</trkpt>
<trkpt lat="31.8991000" lon="35.0051400">
<ele>213.909988</ele>
<time>2024-02-20T10:15:30.742Z</time>
</trkpt>
<trkpt lat="31.8990500" lon="35.0052100">
<ele>214.330002</ele>
<time>2024-02-20T10:15:30.742Z</time>
</trkpt>
<trkpt lat="31.8990300" lon="35.0052600">
<ele>214.789993</ele>
<time>2024-02-20T10:15:30.742Z</time>
</trkpt>
<trkpt lat="31.8990000" lon="35.0053100">
<ele>215.259995</ele>
<time>2024-02-20T10:15:30.742Z</time>
</trkpt>
<trkpt lat="31.8989800" lon="35.0053800">
<ele>216.130005</ele>
<time>2024-02-20T10:15:30.742Z</time>
</trkpt>
<trkpt lat="31.8989700" lon="35.0054200">
<ele>216.629990</ele>
<time>2024-02-20T10:15:30.742Z</time>
</trkpt>
<trkpt lat="31.8989600" lon="35.0054600">
<ele>217.139999</ele>
<time>2024-02-20T10:15:30.742Z</time>
</trkpt>
<trkpt lat="31.8989500" lon="35.0055100">
<ele>217.780014</ele>
<time>2024-02-20T10:15:30.742Z</time>
</trkpt>
<trkpt lat="31.8989300" lon="35.0055900">
<ele>218.259995</ele>
<time>2024-02-20T10:15:30.742Z</time>
</trkpt>
<trkpt lat="31.8988900" lon="35.0057600">
<ele>218.000000</ele>
<time>2024-02-20T10:15:30.742Z</time>
</trkpt>
<trkpt lat="31.8988800" lon="35.0058000">
<ele>217.900009</ele>
<time>2024-02-20T10:15:30.742Z</time>
</trkpt>
<trkpt lat="31.8988600" lon="35.0058700">
<ele>217.660004</ele>
<time>2024-02-20T10:15:30.742Z</time>
</trkpt>
<trkpt lat="31.8988400" lon="35.0059300">
<ele>217.350006</ele>
<time>2024-02-20T10:15:30.742Z</time>
</trkpt>
<trkpt lat="31.8988200" lon="35.0059800">
<ele>216.989990</ele>
<time>2024-02-20T10:15:30.742Z</time>
</trkpt>
<trkpt lat="31.8988000" lon="35.0060200">
<ele>216.610001</ele>
<time>2024-02-20T10:15:30.742Z</time>
</trkpt>
<trkpt lat="31.8987900" lon="35.0060300">
<ele>216.430008</ele>
<time>2024-02-20T10:15:30.742Z</time>
</trkpt>
<trkpt lat="31.8987800" lon="35.0060400">
<ele>216.239990</ele>
<time>2024-02-20T10:15:30.742Z</time>
</trkpt>
<trkpt lat="31.8987400" lon="35.0060800">
<ele>215.440002</ele>
<time>2024-02-20T10:15:30.742Z</time>
</trkpt>
<trkpt lat="31.8986700" lon="35.0061600">
<ele>214.020004</ele>
<time>2024-02-20T10:15:30.742Z</time>
</trkpt>
<trkpt lat="31.8985500" lon="35.0062600">
<ele>212.220001</ele>
<time>2024-02-20T10:15:30.742Z</time>
</trkpt>
<trkpt lat="31.8984600" lon="35.0063300">
<ele>210.940002</ele>
<time>2024-02-20T10:15:30.742Z</time>
</trkpt>
<trkpt lat="31.8983600" lon="35.0064000">
<ele>209.490005</ele>
<time>2024-02-20T10:15:30.742Z</time>
</trkpt>
<trkpt lat="31.8982400" lon="35.0064600">
<ele>209.179993</ele>
<time>2024-02-20T10:15:30.742Z</time>
</trkpt>
<trkpt lat="31.8981600" lon="35.0064900">
<ele>209.069992</ele>
<time>2024-02-20T10:15:30.742Z</time>
</trkpt>
<trkpt lat="31.8980800" lon="35.0065000">
<ele>208.740005</ele>
<time>2024-02-20T10:15:30.742Z</time>
</trkpt>
<trkpt lat="31.8980000" lon="35.0065100">
<ele>209.339996</ele>
<time>2024-02-20T10:15:30.742Z</time>
</trkpt>
<trkpt lat="31.8978900" lon="35.0065000">
<ele>210.389999</ele>
<time>2024-02-20T10:15:30.742Z</time>
</trkpt>
<trkpt lat="31.8977900" lon="35.0064900">
<ele>211.319992</ele>
<time>2024-02-20T10:15:30.742Z</time>
</trkpt>
<trkpt lat="31.8976600" lon="35.0064800">
<ele>213.580002</ele>
<time>2024-02-20T10:15:30.742Z</time>
</trkpt>
<trkpt lat="31.8976100" lon="35.0064800">
<ele>214.540009</ele>
<time>2024-02-20T10:15:30.742Z</time>
</trkpt>
<trkpt lat="31.8975700" lon="35.0064800">
<ele>215.309998</ele>
<time>2024-02-20T10:15:30.742Z</time>
</trkpt>
<trkpt lat="31.8975200" lon="35.0064800">
<ele>216.270004</ele>
<time>2024-02-20T10:15:30.742Z</time>
</trkpt>
<trkpt lat="31.8975000" lon="35.0066400">
<ele>217.809998</ele>
<time>2024-02-20T10:15:30.742Z</time>
</trkpt>
<trkpt lat="31.8975000" lon="35.0067800">
<ele>218.820007</ele>
<time>2024-02-20T10:15:30.742Z</time>
</trkpt>
<trkpt lat="31.8975000" lon="35.0069900">
<ele>220.819992</ele>
<time>2024-02-20T10:15:30.742Z</time>
</trkpt>
<trkpt lat="31.8975100" lon="35.0072300">
<ele>224.929993</ele>
<time>2024-02-20T10:15:30.742Z</time>
</trkpt>
<trkpt lat="31.8975200" lon="35.0073200">
<ele>226.020004</ele>
<time>2024-02-20T10:15:30.742Z</time>
</trkpt>
<trkpt lat="31.8975400" lon="35.0074000">
<ele>226.749985</ele>
<time>2024-02-20T10:15:30.742Z</time>
</trkpt>
<trkpt lat="31.8975600" lon="35.0075000">
<ele>227.699997</ele>
<time>2024-02-20T10:15:30.742Z</time>
</trkpt>
<trkpt lat="31.8976000" lon="35.0076000">
<ele>228.839996</ele>
<time>2024-02-20T10:15:30.742Z</time>
</trkpt>
<trkpt lat="31.8976600" lon="35.0077100">
<ele>229.089996</ele>
<time>2024-02-20T10:15:30.742Z</time>
</trkpt>
<trkpt lat="31.8979300" lon="35.0082000">
<ele>232.760010</ele>
<time>2024-02-20T10:15:30.742Z</time>
</trkpt>
<trkpt lat="31.8980600" lon="35.0084500">
<ele>234.479996</ele>
<time>2024-02-20T10:15:30.742Z</time>
</trkpt>
<trkpt lat="31.8980600" lon="35.0084500">
<ele>234.479996</ele>
<time>2024-02-20T10:15:30.742Z</time>
</trkpt>
<trkpt lat="31.8980600" lon="35.0084500">
<ele>234.479996</ele>
<time>2024-02-20T10:15:30.742Z</time>
</trkpt>
<trkpt lat="31.8981400" lon="35.0086000">
<ele>233.179993</ele>
<time>2024-02-20T10:15:30.742Z</time>
</trkpt>
<trkpt lat="31.8983300" lon="35.0089900">
<ele>227.059998</ele>
<time>2024-02-20T10:15:30.742Z</time>
</trkpt>
<trkpt lat="31.8983600" lon="35.0090400">
<ele>226.419998</ele>
<time>2024-02-20T10:15:30.742Z</time>
</trkpt>
<trkpt lat="31.8982600" lon="35.0091300">
<ele>227.470001</ele>
<time>2024-02-20T10:15:30.742Z</time>
</trkpt>
<trkpt lat="31.8968800" lon="35.0103700">
<ele>219.599991</ele>
<time>2024-02-20T10:15:30.742Z</time>
</trkpt>
<trkpt lat="31.8968800" lon="35.0103700">
<ele>219.599991</ele>
<time>2024-02-20T10:15:30.742Z</time>
</trkpt>
<trkpt lat="31.8965600" lon="35.0106600">
<ele>226.149994</ele>
<time>2024-02-20T10:15:30.742Z</time>
</trkpt>
<trkpt lat="31.8964900" lon="35.0107100">
<ele>228.279999</ele>
<time>2024-02-20T10:15:30.742Z</time>
</trkpt>
<trkpt lat="31.8958800" lon="35.0112400">
<ele>231.759995</ele>
<time>2024-02-20T10:15:30.742Z</time>
</trkpt>
<trkpt lat="31.8957400" lon="35.0114000">
<ele>231.380005</ele>
<time>2024-02-20T10:15:30.742Z</time>
</trkpt>
<trkpt lat="31.8955500" lon="35.0117000">
<ele>232.690002</ele>
<time>2024-02-20T10:15:30.742Z</time>
</trkpt>
<trkpt lat="31.8953000" lon="35.0126900">
<ele>237.790009</ele>
<time>2024-02-20T10:15:30.742Z</time>
</trkpt>
<trkpt lat="31.8952100" lon="35.0127500">
<ele>239.160004</ele>
<time>2024-02-20T10:15:30.742Z</time>
</trkpt>
<trkpt lat="31.8952100" lon="35.0129200">
<ele>241.289993</ele>
<time>2024-02-20T10:15:30.742Z</time>
</trkpt>
<trkpt lat="31.8952400" lon="35.0131400">
<ele>244.300003</ele>
<time>2024-02-20T10:15:30.742Z</time>
</trkpt>
<trkpt lat="31.8954300" lon="35.0141600">
<ele>242.169998</ele>
<time>2024-02-20T10:15:30.742Z</time>
</trkpt>
<trkpt lat="31.8954400" lon="35.0142100">
<ele>242.419998</ele>
<time>2024-02-20T10:15:30.742Z</time>
</trkpt>
<trkpt lat="31.8956300" lon="35.0152200">
<ele>238.889999</ele>
<time>2024-02-20T10:15:30.742Z</time>
</trkpt>
<trkpt lat="31.8956500" lon="35.0153700">
<ele>239.460007</ele>
<time>2024-02-20T10:15:30.742Z</time>
</trkpt>
<trkpt lat="31.8956700" lon="35.0155000">
<ele>240.100006</ele>
<time>2024-02-20T10:15:30.742Z</time>
</trkpt>
<trkpt lat="31.8956900" lon="35.0156300">
<ele>240.789993</ele>
<time>2024-02-20T10:15:30.742Z</time>
</trkpt>
<trkpt lat="31.8957200" lon="35.0158900">
<ele>242.849991</ele>
<time>2024-02-20T10:15:30.742Z</time>
</trkpt>
<trkpt lat="31.8957500" lon="35.0162800">
<ele>242.549988</ele>
<time>2024-02-20T10:15:30.742Z</time>
</trkpt>
<trkpt lat="31.8957700" lon="35.0165400">
<ele>241.819992</ele>
<time>2024-02-20T10:15:30.742Z</time>
</trkpt>
<trkpt lat="31.8957700" lon="35.0167100">
<ele>242.330002</ele>
<time>2024-02-20T10:15:30.742Z</time>
</trkpt>
<trkpt lat="31.8957700" lon="35.0169300">
<ele>242.580002</ele>
<time>2024-02-20T10:15:30.742Z</time>
</trkpt>
<trkpt lat="31.8957300" lon="35.0183400">
<ele>244.309998</ele>
<time>2024-02-20T10:15:30.742Z</time>
</trkpt>
<trkpt lat="31.8957200" lon="35.0189200">
<ele>248.639999</ele>
<time>2024-02-20T10:15:30.742Z</time>
</trkpt>
<trkpt lat="31.8957000" lon="35.0193000">
<ele>246.480011</ele>
<time>2024-02-20T10:15:30.742Z</time>
</trkpt>
<trkpt lat="31.8956900" lon="35.0193900">
<ele>245.940002</ele>
<time>2024-02-20T10:15:30.742Z</time>
</trkpt>
<trkpt lat="31.8956800" lon="35.0194900">
<ele>245.090012</ele>
<time>2024-02-20T10:15:30.742Z</time>
</trkpt>
<trkpt lat="31.8956700" lon="35.0196700">
<ele>242.990005</ele>
<time>2024-02-20T10:15:30.742Z</time>
</trkpt>
<trkpt lat="31.8956600" lon="35.0197300">
<ele>242.419998</ele>
<time>2024-02-20T10:15:30.742Z</time>
</trkpt>
<trkpt lat="31.8956400" lon="35.0198600">
<ele>241.450012</ele>
<time>2024-02-20T10:15:30.742Z</time>
</trkpt>
<trkpt lat="31.8956100" lon="35.0200000">
<ele>240.409988</ele>
<time>2024-02-20T10:15:30.742Z</time>
</trkpt>
<trkpt lat="31.8955800" lon="35.0201400">
<ele>240.369995</ele>
<time>2024-02-20T10:15:30.742Z</time>
</trkpt>
<trkpt lat="31.8955200" lon="35.0203100">
<ele>241.059998</ele>
<time>2024-02-20T10:15:30.742Z</time>
</trkpt>
<trkpt lat="31.8954600" lon="35.0204600">
<ele>243.129990</ele>
<time>2024-02-20T10:15:30.742Z</time>
</trkpt>
<trkpt lat="31.8953700" lon="35.0206500">
<ele>245.360001</ele>
<time>2024-02-20T10:15:30.742Z</time>
</trkpt>
<trkpt lat="31.8952800" lon="35.0208100">
<ele>248.629990</ele>
<time>2024-02-20T10:15:30.742Z</time>
</trkpt>
<trkpt lat="31.8951500" lon="35.0210100">
<ele>247.850006</ele>
<time>2024-02-20T10:15:30.742Z</time>
</trkpt>
<trkpt lat="31.8950800" lon="35.0211100">
<ele>247.709991</ele>
<time>2024-02-20T10:15:30.742Z</time>
</trkpt>
<trkpt lat="31.8949400" lon="35.0213000">
<ele>247.680008</ele>
<time>2024-02-20T10:15:30.742Z</time>
</trkpt>
<trkpt lat="31.8944100" lon="35.0219900">
<ele>250.420013</ele>
<time>2024-02-20T10:15:30.742Z</time>
</trkpt>
<trkpt lat="31.8942700" lon="35.0221800">
<ele>248.929993</ele>
<time>2024-02-20T10:15:30.742Z</time>
</trkpt>
<trkpt lat="31.8942200" lon="35.0222400">
<ele>248.629990</ele>
<time>2024-02-20T10:15:30.742Z</time>
</trkpt>
<trkpt lat="31.8939500" lon="35.0226000">
<ele>249.419998</ele>
<time>2024-02-20T10:15:30.742Z</time>
</trkpt>
<trkpt lat="31.8938400" lon="35.0227500">
<ele>248.910004</ele>
<time>2024-02-20T10:15:30.742Z</time>
</trkpt>
<trkpt lat="31.8937600" lon="35.0228900">
<ele>248.069992</ele>
<time>2024-02-20T10:15:30.742Z</time>
</trkpt>
<trkpt lat="31.8936900" lon="35.0230300">
<ele>248.160004</ele>
<time>2024-02-20T10:15:30.742Z</time>
</trkpt>
<trkpt lat="31.8936400" lon="35.0231800">
<ele>248.550003</ele>
<time>2024-02-20T10:15:30.742Z</time>
</trkpt>
<trkpt lat="31.8935900" lon="35.0233600">
<ele>248.989990</ele>
<time>2024-02-20T10:15:30.742Z</time>
</trkpt>
<trkpt lat="31.8935500" lon="35.0235200">
<ele>248.850006</ele>
<time>2024-02-20T10:15:30.742Z</time>
</trkpt>
<trkpt lat="31.8934600" lon="35.0240900">
<ele>248.819992</ele>
<time>2024-02-20T10:15:30.742Z</time>
</trkpt>
<trkpt lat="31.8934300" lon="35.0243500">
<ele>247.760010</ele>
<time>2024-02-20T10:15:30.742Z</time>
</trkpt>
<trkpt lat="31.8933800" lon="35.0244500">
<ele>247.660004</ele>
<time>2024-02-20T10:15:30.742Z</time>
</trkpt>
<trkpt lat="31.8933300" lon="35.0245100">
<ele>248.000000</ele>
<time>2024-02-20T10:15:30.742Z</time>
</trkpt>
<trkpt lat="31.8933200" lon="35.0245200">
<ele>247.989990</ele>
<time>2024-02-20T10:15:30.742Z</time>
</trkpt>
<trkpt lat="31.8932900" lon="35.0245200">
<ele>247.960007</ele>
<time>2024-02-20T10:15:30.742Z</time>
</trkpt>
<trkpt lat="31.8932400" lon="35.0245500">
<ele>247.870010</ele>
<time>2024-02-20T10:15:30.742Z</time>
</trkpt>
<trkpt lat="31.8922500" lon="35.0243800">
<ele>245.990005</ele>
<time>2024-02-20T10:15:30.742Z</time>
</trkpt>
<trkpt lat="31.8922500" lon="35.0243800">
<ele>245.990005</ele>
<time>2024-02-20T10:15:30.742Z</time>
</trkpt>
<trkpt lat="31.8914900" lon="35.0242500">
<ele>246.149994</ele>
<time>2024-02-20T10:15:30.742Z</time>
</trkpt>
<trkpt lat="31.8908500" lon="35.0242600">
<ele>246.899994</ele>
<time>2024-02-20T10:15:30.742Z</time>
</trkpt>
<trkpt lat="31.8902100" lon="35.0242700">
<ele>247.489990</ele>
<time>2024-02-20T10:15:30.742Z</time>
</trkpt>
<trkpt lat="31.8896000" lon="35.0242900">
<ele>250.740005</ele>
<time>2024-02-20T10:15:30.742Z</time>
</trkpt>
<trkpt lat="31.8889800" lon="35.0243100">
<ele>253.460007</ele>
<time>2024-02-20T10:15:30.742Z</time>
</trkpt>
<trkpt lat="31.8888000" lon="35.0241700">
<ele>254.970001</ele>
<time>2024-02-20T10:15:30.742Z</time>
</trkpt>
<trkpt lat="31.8886200" lon="35.0241800">
<ele>254.949997</ele>
<time>2024-02-20T10:15:30.742Z</time>
</trkpt>
<trkpt lat="31.8884800" lon="35.0242600">
<ele>253.240005</ele>
<time>2024-02-20T10:15:30.742Z</time>
</trkpt>
<trkpt lat="31.8878900" lon="35.0242400">
<ele>246.310013</ele>
<time>2024-02-20T10:15:30.742Z</time>
</trkpt>
<trkpt lat="31.8873000" lon="35.0242200">
<ele>252.190002</ele>
<time>2024-02-20T10:15:30.742Z</time>
</trkpt>
<trkpt lat="31.8867200" lon="35.0242800">
<ele>252.399994</ele>
<time>2024-02-20T10:15:30.742Z</time>
</trkpt>
<trkpt lat="31.8861500" lon="35.0244000">
<ele>251.860001</ele>
<time>2024-02-20T10:15:30.742Z</time>
</trkpt>
<trkpt lat="31.8857800" lon="35.0244600">
<ele>254.750000</ele>
<time>2024-02-20T10:15:30.742Z</time>
</trkpt>
<trkpt lat="31.8856100" lon="35.0243700">
<ele>258.709991</ele>
<time>2024-02-20T10:15:30.742Z</time>
</trkpt>
<trkpt lat="31.8855600" lon="35.0242800">
<ele>260.130005</ele>
<time>2024-02-20T10:15:30.742Z</time>
</trkpt>
<trkpt lat="31.8855300" lon="35.0242800">
<ele>260.239990</ele>
<time>2024-02-20T10:15:30.742Z</time>
</trkpt>
<trkpt lat="31.8854600" lon="35.0242900">
<ele>260.299988</ele>
<time>2024-02-20T10:15:30.742Z</time>
</trkpt>
<trkpt lat="31.8853600" lon="35.0243300">
<ele>260.110016</ele>
<time>2024-02-20T10:15:30.742Z</time>
</trkpt>
<trkpt lat="31.8853500" lon="35.0244000">
<ele>259.440002</ele>
<time>2024-02-20T10:15:30.742Z</time>
</trkpt>
<trkpt lat="31.8853400" lon="35.0244800">
<ele>258.200012</ele>
<time>2024-02-20T10:15:30.742Z</time>
</trkpt>
<trkpt lat="31.8852600" lon="35.0245700">
<ele>256.250000</ele>
<time>2024-02-20T10:15:30.742Z</time>
</trkpt>
<trkpt lat="31.8849700" lon="35.0246400">
<ele>254.350006</ele>
<time>2024-02-20T10:15:30.742Z</time>
</trkpt>
<trkpt lat="31.8844700" lon="35.0247300">
<ele>252.929993</ele>
<time>2024-02-20T10:15:30.742Z</time>
</trkpt>
<trkpt lat="31.8839800" lon="35.0248200">
<ele>256.589996</ele>
<time>2024-02-20T10:15:30.742Z</time>
</trkpt>
<trkpt lat="31.8834800" lon="35.0249100">
<ele>256.529999</ele>
<time>2024-02-20T10:15:30.742Z</time>
</trkpt>
<trkpt lat="31.8831200" lon="35.0248900">
<ele>265.610016</ele>
<time>2024-02-20T10:15:30.742Z</time>
</trkpt>
<trkpt lat="31.8827200" lon="35.0248000">
<ele>270.640015</ele>
<time>2024-02-20T10:15:30.742Z</time>
</trkpt>
<trkpt lat="31.8823700" lon="35.0246500">
<ele>275.880005</ele>
<time>2024-02-20T10:15:30.742Z</time>
</trkpt>
<trkpt lat="31.8820800" lon="35.0244600">
<ele>275.169983</ele>
<time>2024-02-20T10:15:30.742Z</time>
</trkpt>
<trkpt lat="31.8818100" lon="35.0242300">
<ele>273.139984</ele>
<time>2024-02-20T10:15:30.742Z</time>
</trkpt>
<trkpt lat="31.8814200" lon="35.0236200">
<ele>275.649994</ele>
<time>2024-02-20T10:15:30.742Z</time>
</trkpt>
<trkpt lat="31.8812800" lon="35.0231200">
<ele>274.079987</ele>
<time>2024-02-20T10:15:30.742Z</time>
</trkpt>
<trkpt lat="31.8811400" lon="35.0226200">
<ele>271.179993</ele>
<time>2024-02-20T10:15:30.742Z</time>
</trkpt>
<trkpt lat="31.8810000" lon="35.0221100">
<ele>268.359985</ele>
<time>2024-02-20T10:15:30.742Z</time>
</trkpt>
<trkpt lat="31.8808600" lon="35.0216100">
<ele>266.660004</ele>
<time>2024-02-20T10:15:30.742Z</time>
</trkpt>
<trkpt lat="31.8807200" lon="35.0211100">
<ele>265.950012</ele>
<time>2024-02-20T10:15:30.742Z</time>
</trkpt>
<trkpt lat="31.8805800" lon="35.0206000">
<ele>262.279999</ele>
<time>2024-02-20T10:15:30.742Z</time>
</trkpt>
<trkpt lat="31.8804400" lon="35.0201000">
<ele>259.300018</ele>
<time>2024-02-20T10:15:30.742Z</time>
</trkpt>
<trkpt lat="31.8803000" lon="35.0196000">
<ele>257.040009</ele>
<time>2024-02-20T10:15:30.742Z</time>
</trkpt>
<trkpt lat="31.8803100" lon="35.0193600">
<ele>256.429993</ele>
<time>2024-02-20T10:15:30.742Z</time>
</trkpt>
<trkpt lat="31.8803400" lon="35.0193100">
<ele>256.139984</ele>
<time>2024-02-20T10:15:30.742Z</time>
</trkpt>
<trkpt lat="31.8803400" lon="35.0193100">
<ele>256.139984</ele>
<time>2024-02-20T10:15:30.742Z</time>
</trkpt>
<trkpt lat="31.8804100" lon="35.0192100">
<ele>255.709991</ele>
<time>2024-02-20T10:15:30.742Z</time>
</trkpt>
<trkpt lat="31.8806700" lon="35.0188000">
<ele>256.739990</ele>
<time>2024-02-20T10:15:30.742Z</time>
</trkpt>
<trkpt lat="31.8809100" lon="35.0182400">
<ele>260.269989</ele>
<time>2024-02-20T10:15:30.742Z</time>
</trkpt>
<trkpt lat="31.8809500" lon="35.0181500">
<ele>261.429993</ele>
<time>2024-02-20T10:15:30.742Z</time>
</trkpt>
<trkpt lat="31.8808700" lon="35.0181000">
<ele>257.859985</ele>
<time>2024-02-20T10:15:30.742Z</time>
</trkpt>
<trkpt lat="31.8808300" lon="35.0180900">
<ele>256.200012</ele>
<time>2024-02-20T10:15:30.742Z</time>
</trkpt>
<trkpt lat="31.8808100" lon="35.0180800">
<ele>255.830002</ele>
<time>2024-02-20T10:15:30.742Z</time>
</trkpt>
<trkpt lat="31.8808800" lon="35.0178000">
<ele>256.329987</ele>
<time>2024-02-20T10:15:30.742Z</time>
</trkpt>
<trkpt lat="31.8812600" lon="35.0166600">
<ele>253.000000</ele>
<time>2024-02-20T10:15:30.742Z</time>
</trkpt>
<trkpt lat="31.8812700" lon="35.0166100">
<ele>252.499985</ele>
<time>2024-02-20T10:15:30.742Z</time>
</trkpt>
<trkpt lat="31.8814200" lon="35.0160300">
<ele>247.230011</ele>
<time>2024-02-20T10:15:30.742Z</time>
</trkpt>
<trkpt lat="31.8816400" lon="35.0139000">
<ele>239.099991</ele>
<time>2024-02-20T10:15:30.742Z</time>
</trkpt>
<trkpt lat="31.8816300" lon="35.0138600">
<ele>239.180008</ele>
<time>2024-02-20T10:15:30.742Z</time>
</trkpt>
<trkpt lat="31.8816600" lon="35.0138700">
<ele>239.130005</ele>
<time>2024-02-20T10:15:30.742Z</time>
</trkpt>
<trkpt lat="31.8816800" lon="35.0138900">
<ele>239.110001</ele>
<time>2024-02-20T10:15:30.742Z</time>
</trkpt>
<trkpt lat="31.8817000" lon="35.0139100">
<ele>239.470001</ele>
<time>2024-02-20T10:15:30.742Z</time>
</trkpt>
<trkpt lat="31.8817300" lon="35.0139100">
<ele>239.679993</ele>
<time>2024-02-20T10:15:30.742Z</time>
</trkpt>
<trkpt lat="31.8817600" lon="35.0139100">
<ele>239.899994</ele>
<time>2024-02-20T10:15:30.742Z</time>
</trkpt>
<trkpt lat="31.8817800" lon="35.0139000">
<ele>239.940002</ele>
<time>2024-02-20T10:15:30.742Z</time>
</trkpt>
<trkpt lat="31.8818000" lon="35.0138800">
<ele>239.990005</ele>
<time>2024-02-20T10:15:30.742Z</time>
</trkpt>
<trkpt lat="31.8818200" lon="35.0138500">
<ele>240.230011</ele>
<time>2024-02-20T10:15:30.742Z</time>
</trkpt>
<trkpt lat="31.8818300" lon="35.0138200">
<ele>240.380005</ele>
<time>2024-02-20T10:15:30.742Z</time>
</trkpt>
<trkpt lat="31.8818300" lon="35.0137900">
<ele>240.469986</ele>
<time>2024-02-20T10:15:30.742Z</time>
</trkpt>
<trkpt lat="31.8818200" lon="35.0137500">
<ele>240.550003</ele>
<time>2024-02-20T10:15:30.742Z</time>
</trkpt>
<trkpt lat="31.8818100" lon="35.0137200">
<ele>240.619995</ele>
<time>2024-02-20T10:15:30.742Z</time>
</trkpt>
<trkpt lat="31.8817800" lon="35.0137000">
<ele>240.619995</ele>
<time>2024-02-20T10:15:30.742Z</time>
</trkpt>
<trkpt lat="31.8817500" lon="35.0136800">
<ele>240.649994</ele>
<time>2024-02-20T10:15:30.742Z</time>
</trkpt>
<trkpt lat="31.8817200" lon="35.0136800">
<ele>240.599991</ele>
<time>2024-02-20T10:15:30.742Z</time>
</trkpt>
<trkpt lat="31.8816900" lon="35.0136900">
<ele>240.479996</ele>
<time>2024-02-20T10:15:30.742Z</time>
</trkpt>
<trkpt lat="31.8816600" lon="35.0137200">
<ele>240.190002</ele>
<time>2024-02-20T10:15:30.742Z</time>
</trkpt>
<trkpt lat="31.8816500" lon="35.0137300">
<ele>240.080002</ele>
<time>2024-02-20T10:15:30.742Z</time>
</trkpt>
<trkpt lat="31.8816200" lon="35.0137600">
<ele>239.770004</ele>
<time>2024-02-20T10:15:30.742Z</time>
</trkpt>
<trkpt lat="31.8816200" lon="35.0133100">
<ele>243.089996</ele>
<time>2024-02-20T10:15:30.742Z</time>
</trkpt>
<trkpt lat="31.8815200" lon="35.0129100">
<ele>240.640015</ele>
<time>2024-02-20T10:15:30.742Z</time>
</trkpt>
<trkpt lat="31.8813900" lon="35.0126500">
<ele>239.470001</ele>
<time>2024-02-20T10:15:30.742Z</time>
</trkpt>
<trkpt lat="31.8813500" lon="35.0125600">
<ele>239.500000</ele>
<time>2024-02-20T10:15:30.742Z</time>
</trkpt>
<trkpt lat="31.8812900" lon="35.0124700">
<ele>239.619995</ele>
<time>2024-02-20T10:15:30.742Z</time>
</trkpt>
<trkpt lat="31.8810600" lon="35.0121200">
<ele>243.550003</ele>
<time>2024-02-20T10:15:30.742Z</time>
</trkpt>
<trkpt lat="31.8807200" lon="35.0118000">
<ele>243.509995</ele>
<time>2024-02-20T10:15:30.742Z</time>
</trkpt>
<trkpt lat="31.8806600" lon="35.0117400">
<ele>243.850006</ele>
<time>2024-02-20T10:15:30.742Z</time>
</trkpt>
<trkpt lat="31.8797300" lon="35.0110900">
<ele>227.219986</ele>
<time>2024-02-20T10:15:30.742Z</time>
</trkpt>
<trkpt lat="31.8790900" lon="35.0106400">
<ele>227.680008</ele>
<time>2024-02-20T10:15:30.742Z</time>
</trkpt>
<trkpt lat="31.8785300" lon="35.0104000">
<ele>227.919998</ele>
<time>2024-02-20T10:15:30.742Z</time>
</trkpt>
<trkpt lat="31.8784600" lon="35.0104100">
<ele>227.739990</ele>
<time>2024-02-20T10:15:30.742Z</time>
</trkpt>
<trkpt lat="31.8783900" lon="35.0104100">
<ele>227.589996</ele>
<time>2024-02-20T10:15:30.742Z</time>
</trkpt>
<trkpt lat="31.8783300" lon="35.0100500">
<ele>228.549988</ele>
<time>2024-02-20T10:15:30.742Z</time>
</trkpt>
<trkpt lat="31.8778500" lon="35.0090100">
<ele>223.620010</ele>
<time>2024-02-20T10:15:30.742Z</time>
</trkpt>
<trkpt lat="31.8778200" lon="35.0089500">
<ele>222.949997</ele>
<time>2024-02-20T10:15:30.742Z</time>
</trkpt>
<trkpt lat="31.8777900" lon="35.0088900">
<ele>222.220001</ele>
<time>2024-02-20T10:15:30.742Z</time>
</trkpt>
<trkpt lat="31.8777700" lon="35.0088500">
<ele>222.889999</ele>
<time>2024-02-20T10:15:30.742Z</time>
</trkpt>
<trkpt lat="31.8775900" lon="35.0084900">
<ele>224.179993</ele>
<time>2024-02-20T10:15:30.742Z</time>
</trkpt>
<trkpt lat="31.8775200" lon="35.0082900">
<ele>221.910004</ele>
<time>2024-02-20T10:15:30.742Z</time>
</trkpt>
<trkpt lat="31.8774400" lon="35.0080500">
<ele>218.550003</ele>
<time>2024-02-20T10:15:30.742Z</time>
</trkpt>
<trkpt lat="31.8774300" lon="35.0079000">
<ele>218.079987</ele>
<time>2024-02-20T10:15:30.742Z</time>
</trkpt>
<trkpt lat="31.8774100" lon="35.0075100">
<ele>216.709991</ele>
<time>2024-02-20T10:15:30.742Z</time>
</trkpt>
<trkpt lat="31.8774500" lon="35.0070800">
<ele>214.379990</ele>
<time>2024-02-20T10:15:30.742Z</time>
</trkpt>
<trkpt lat="31.8775600" lon="35.0067200">
<ele>211.350006</ele>
<time>2024-02-20T10:15:30.742Z</time>
</trkpt>
<trkpt lat="31.8777200" lon="35.0063300">
<ele>208.630005</ele>
<time>2024-02-20T10:15:30.742Z</time>
</trkpt>
<trkpt lat="31.8781100" lon="35.0057600">
<ele>208.879990</ele>
<time>2024-02-20T10:15:30.742Z</time>
</trkpt>
<trkpt lat="31.8781400" lon="35.0057200">
<ele>208.259995</ele>
<time>2024-02-20T10:15:30.742Z</time>
</trkpt>
<trkpt lat="31.8781900" lon="35.0056600">
<ele>207.360001</ele>
<time>2024-02-20T10:15:30.742Z</time>
</trkpt>
<trkpt lat="31.8782400" lon="35.0056000">
<ele>206.459991</ele>
<time>2024-02-20T10:15:30.742Z</time>
</trkpt>
<trkpt lat="31.8782800" lon="35.0055400">
<ele>205.639999</ele>
<time>2024-02-20T10:15:30.742Z</time>
</trkpt>
<trkpt lat="31.8798100" lon="35.0036600">
<ele>201.100006</ele>
<time>2024-02-20T10:15:30.742Z</time>
</trkpt>
<trkpt lat="31.8804100" lon="35.0028500">
<ele>202.730011</ele>
<time>2024-02-20T10:15:30.742Z</time>
</trkpt>
<trkpt lat="31.8806100" lon="35.0023500">
<ele>205.369995</ele>
<time>2024-02-20T10:15:30.742Z</time>
</trkpt>
<trkpt lat="31.8806200" lon="35.0020800">
<ele>206.179993</ele>
<time>2024-02-20T10:15:30.742Z</time>
</trkpt>
<trkpt lat="31.8806000" lon="35.0018800">
<ele>206.520004</ele>
<time>2024-02-20T10:15:30.742Z</time>
</trkpt>
<trkpt lat="31.8806000" lon="35.0017800">
<ele>206.329987</ele>
<time>2024-02-20T10:15:30.742Z</time>
</trkpt>
<trkpt lat="31.8806000" lon="35.0015800">
<ele>206.739990</ele>
<time>2024-02-20T10:15:30.742Z</time>
</trkpt>
<trkpt lat="31.8805700" lon="35.0014500">
<ele>206.919998</ele>
<time>2024-02-20T10:15:30.742Z</time>
</trkpt>
<trkpt lat="31.8805700" lon="35.0014500">
<ele>206.919998</ele>
<time>2024-02-20T10:15:30.742Z</time>
</trkpt>
<trkpt lat="31.8801300" lon="34.9996300">
<ele>199.869995</ele>
<time>2024-02-20T10:15:30.742Z</time>
</trkpt>
<trkpt lat="31.8800700" lon="34.9992300">
<ele>198.040009</ele>
<time>2024-02-20T10:15:30.742Z</time>
</trkpt>
<trkpt lat="31.8801000" lon="34.9987100">
<ele>196.739990</ele>
<time>2024-02-20T10:15:30.742Z</time>
</trkpt>
<trkpt lat="31.8801600" lon="34.9983100">
<ele>196.849991</ele>
<time>2024-02-20T10:15:30.742Z</time>
</trkpt>
<trkpt lat="31.8801700" lon="34.9982100">
<ele>196.860001</ele>
<time>2024-02-20T10:15:30.742Z</time>
</trkpt>
<trkpt lat="31.8802400" lon="34.9982400">
<ele>197.830002</ele>
<time>2024-02-20T10:15:30.742Z</time>
</trkpt>
<trkpt lat="31.8802900" lon="34.9982500">
<ele>198.340012</ele>
<time>2024-02-20T10:15:30.742Z</time>
</trkpt>
<trkpt lat="31.8802900" lon="34.9981400">
<ele>197.530014</ele>
<time>2024-02-20T10:15:30.742Z</time>
</trkpt>
<trkpt lat="31.8802900" lon="34.9980700">
<ele>197.019989</ele>
<time>2024-02-20T10:15:30.742Z</time>
</trkpt>
<trkpt lat="31.8802800" lon="34.9980100">
<ele>197.639999</ele>
<time>2024-02-20T10:15:30.742Z</time>
</trkpt>
<trkpt lat="31.8802600" lon="34.9979300">
<ele>198.740005</ele>
<time>2024-02-20T10:15:30.742Z</time>
</trkpt>
<trkpt lat="31.8802800" lon="34.9978300">
<ele>200.220001</ele>
<time>2024-02-20T10:15:30.742Z</time>
</trkpt>
<trkpt lat="31.8804500" lon="34.9979000">
<ele>197.309998</ele>
<time>2024-02-20T10:15:30.742Z</time>
</trkpt>
<trkpt lat="31.8805800" lon="34.9979200">
<ele>195.320007</ele>
<time>2024-02-20T10:15:30.742Z</time>
</trkpt>
<trkpt lat="31.8807000" lon="34.9979400">
<ele>191.979996</ele>
<time>2024-02-20T10:15:30.742Z</time>
</trkpt>
<trkpt lat="31.8808000" lon="34.9979500">
<ele>189.269989</ele>
<time>2024-02-20T10:15:30.742Z</time>
</trkpt>
<trkpt lat="31.8809300" lon="34.9979400">
<ele>186.970001</ele>
<time>2024-02-20T10:15:30.742Z</time>
</trkpt>
<trkpt lat="31.8810900" lon="34.9979300">
<ele>184.669998</ele>
<time>2024-02-20T10:15:30.742Z</time>
</trkpt>
<trkpt lat="31.8812400" lon="34.9978900">
<ele>187.020004</ele>
<time>2024-02-20T10:15:30.742Z</time>
</trkpt>
<trkpt lat="31.8813800" lon="34.9978400">
<ele>189.630005</ele>
<time>2024-02-20T10:15:30.742Z</time>
</trkpt>
<trkpt lat="31.8814900" lon="34.9977900">
<ele>192.520004</ele>
<time>2024-02-20T10:15:30.742Z</time>
</trkpt>
<trkpt lat="31.8815900" lon="34.9977400">
<ele>195.509995</ele>
<time>2024-02-20T10:15:30.742Z</time>
</trkpt>
<trkpt lat="31.8816900" lon="34.9976700">
<ele>198.519989</ele>
<time>2024-02-20T10:15:30.742Z</time>
</trkpt>
<trkpt lat="31.8818200" lon="34.9975800">
<ele>200.249985</ele>
<time>2024-02-20T10:15:30.742Z</time>
</trkpt>
<trkpt lat="31.8821200" lon="34.9973400">
<ele>204.760010</ele>
<time>2024-02-20T10:15:30.742Z</time>
</trkpt>
<trkpt lat="31.8822100" lon="34.9972700">
<ele>205.289993</ele>
<time>2024-02-20T10:15:30.742Z</time>
</trkpt>
<trkpt lat="31.8827900" lon="34.9968000">
<ele>211.089996</ele>
<time>2024-02-20T10:15:30.742Z</time>
</trkpt>
<trkpt lat="31.8829200" lon="34.9967000">
<ele>212.020004</ele>
<time>2024-02-20T10:15:30.742Z</time>
</trkpt>
<trkpt lat="31.8830400" lon="34.9966200">
<ele>212.910004</ele>
<time>2024-02-20T10:15:30.742Z</time>
</trkpt>
<trkpt lat="31.8831900" lon="34.9965400">
<ele>213.040009</ele>
<time>2024-02-20T10:15:30.742Z</time>
</trkpt>
<trkpt lat="31.8833300" lon="34.9964700">
<ele>212.589996</ele>
<time>2024-02-20T10:15:30.742Z</time>
</trkpt>
<trkpt lat="31.8834000" lon="34.9964500">
<ele>212.199997</ele>
<time>2024-02-20T10:15:30.742Z</time>
</trkpt>
<trkpt lat="31.8834700" lon="34.9964200">
<ele>211.729996</ele>
<time>2024-02-20T10:15:30.742Z</time>
</trkpt>
<trkpt lat="31.8836900" lon="34.9963600">
<ele>211.630005</ele>
<time>2024-02-20T10:15:30.742Z</time>
</trkpt>
<trkpt lat="31.8838700" lon="34.9963500">
<ele>213.770004</ele>
<time>2024-02-20T10:15:30.742Z</time>
</trkpt>
<trkpt lat="31.8840400" lon="34.9963400">
<ele>214.990005</ele>
<time>2024-02-20T10:15:30.742Z</time>
</trkpt>
<trkpt lat="31.8842200" lon="34.9963400">
<ele>216.199997</ele>
<time>2024-02-20T10:15:30.742Z</time>
</trkpt>
<trkpt lat="31.8843900" lon="34.9963600">
<ele>217.809998</ele>
<time>2024-02-20T10:15:30.742Z</time>
</trkpt>
<trkpt lat="31.8845600" lon="34.9963900">
<ele>220.260010</ele>
<time>2024-02-20T10:15:30.742Z</time>
</trkpt>
<trkpt lat="31.8847300" lon="34.9964400">
<ele>223.479996</ele>
<time>2024-02-20T10:15:30.742Z</time>
</trkpt>
<trkpt lat="31.8848800" lon="34.9964900">
<ele>228.319992</ele>
<time>2024-02-20T10:15:30.742Z</time>
</trkpt>
<trkpt lat="31.8850300" lon="34.9965500">
<ele>233.169998</ele>
<time>2024-02-20T10:15:30.742Z</time>
</trkpt>
<trkpt lat="31.8851400" lon="34.9966100">
<ele>236.899994</ele>
<time>2024-02-20T10:15:30.742Z</time>
</trkpt>
<trkpt lat="31.8852900" lon="34.9967000">
<ele>240.800003</ele>
<time>2024-02-20T10:15:30.742Z</time>
</trkpt>
<trkpt lat="31.8854800" lon="34.9968300">
<ele>239.809998</ele>
<time>2024-02-20T10:15:30.742Z</time>
</trkpt>
<trkpt lat="31.8856100" lon="34.9969500">
<ele>239.319992</ele>
<time>2024-02-20T10:15:30.742Z</time>
</trkpt>
<trkpt lat="31.8857600" lon="34.9971000">
<ele>237.320007</ele>
<time>2024-02-20T10:15:30.742Z</time>
</trkpt>
<trkpt lat="31.8858900" lon="34.9972600">
<ele>238.309998</ele>
<time>2024-02-20T10:15:30.742Z</time>
</trkpt>
<trkpt lat="31.8860500" lon="34.9974800">
<ele>238.979996</ele>
<time>2024-02-20T10:15:30.742Z</time>
</trkpt>
<trkpt lat="31.8861600" lon="34.9976800">
<ele>239.590012</ele>
<time>2024-02-20T10:15:30.742Z</time>
</trkpt>
<trkpt lat="31.8863600" lon="34.9980300">
<ele>240.160004</ele>
<time>2024-02-20T10:15:30.742Z</time>
</trkpt>
<trkpt lat="31.8870100" lon="34.9992800">
<ele>254.520004</ele>
<time>2024-02-20T10:15:30.742Z</time>
</trkpt>
<trkpt lat="31.8871000" lon="34.9994400">
<ele>256.209991</ele>
<time>2024-02-20T10:15:30.742Z</time>
</trkpt>
<trkpt lat="31.8871000" lon="34.9994400">
<ele>256.209991</ele>
<time>2024-02-20T10:15:30.742Z</time>
</trkpt>
<trkpt lat="31.8871100" lon="34.9994600">
<ele>256.520020</ele>
<time>2024-02-20T10:15:30.742Z</time>
</trkpt>
<trkpt lat="31.8872300" lon="34.9996300">
<ele>260.769989</ele>
<time>2024-02-20T10:15:30.742Z</time>
</trkpt>
<trkpt lat="31.8873600" lon="34.9998000">
<ele>263.359985</ele>
<time>2024-02-20T10:15:30.742Z</time>
</trkpt>
<trkpt lat="31.8875000" lon="34.9999700">
<ele>261.649994</ele>
<time>2024-02-20T10:15:30.742Z</time>
</trkpt>
<trkpt lat="31.8876500" lon="35.0001500">
<ele>265.319977</ele>
<time>2024-02-20T10:15:30.742Z</time>
</trkpt>
<trkpt lat="31.8878000" lon="35.0003100">
<ele>269.290009</ele>
<time>2024-02-20T10:15:30.742Z</time>
</trkpt>
<trkpt lat="31.8879400" lon="35.0004400">
<ele>270.559998</ele>
<time>2024-02-20T10:15:30.742Z</time>
</trkpt>
<trkpt lat="31.8881300" lon="35.0005900">
<ele>270.619995</ele>
<time>2024-02-20T10:15:30.742Z</time>
</trkpt>
<trkpt lat="31.8882800" lon="35.0007000">
<ele>272.220001</ele>
<time>2024-02-20T10:15:30.742Z</time>
</trkpt>
<trkpt lat="31.8884600" lon="35.0008100">
<ele>272.890015</ele>
<time>2024-02-20T10:15:30.742Z</time>
</trkpt>
<trkpt lat="31.8886100" lon="35.0008800">
<ele>271.000000</ele>
<time>2024-02-20T10:15:30.742Z</time>
</trkpt>
<trkpt lat="31.8887900" lon="35.0009700">
<ele>267.139984</ele>
<time>2024-02-20T10:15:30.742Z</time>
</trkpt>
<trkpt lat="31.8890000" lon="35.0010500">
<ele>259.819977</ele>
<time>2024-02-20T10:15:30.742Z</time>
</trkpt>
<trkpt lat="31.8891700" lon="35.0011000">
<ele>253.250000</ele>
<time>2024-02-20T10:15:30.742Z</time>
</trkpt>
<trkpt lat="31.8893600" lon="35.0011600">
<ele>248.049988</ele>
<time>2024-02-20T10:15:30.742Z</time>
</trkpt>
<trkpt lat="31.8895200" lon="35.0011900">
<ele>243.979996</ele>
<time>2024-02-20T10:15:30.742Z</time>
</trkpt>
<trkpt lat="31.8896900" lon="35.0012100">
<ele>240.290009</ele>
<time>2024-02-20T10:15:30.742Z</time>
</trkpt>
<trkpt lat="31.8899800" lon="35.0012200">
<ele>233.149994</ele>
<time>2024-02-20T10:15:30.742Z</time>
</trkpt>
<trkpt lat="31.8901700" lon="35.0012100">
<ele>231.900009</ele>
<time>2024-02-20T10:15:30.742Z</time>
</trkpt>
<trkpt lat="31.8903600" lon="35.0011900">
<ele>232.999985</ele>
<time>2024-02-20T10:15:30.742Z</time>
</trkpt>
<trkpt lat="31.8905400" lon="35.0011700">
<ele>236.500000</ele>
<time>2024-02-20T10:15:30.742Z</time>
</trkpt>
<trkpt lat="31.8917600" lon="35.0008600">
<ele>226.769989</ele>
<time>2024-02-20T10:15:30.742Z</time>
</trkpt>
<trkpt lat="31.8919800" lon="35.0008100">
<ele>227.219986</ele>
<time>2024-02-20T10:15:30.742Z</time>
</trkpt>
<trkpt lat="31.8921800" lon="35.0007900">
<ele>225.839996</ele>
<time>2024-02-20T10:15:30.742Z</time>
</trkpt>
<trkpt lat="31.8924700" lon="35.0007600">
<ele>226.210007</ele>
<time>2024-02-20T10:15:30.742Z</time>
</trkpt>
<trkpt lat="31.8927100" lon="35.0007600">
<ele>226.259995</ele>
<time>2024-02-20T10:15:30.742Z</time>
</trkpt>
<trkpt lat="31.8929300" lon="35.0007700">
<ele>225.559998</ele>
<time>2024-02-20T10:15:30.742Z</time>
</trkpt>
<trkpt lat="31.8931200" lon="35.0007900">
<ele>224.730011</ele>
<time>2024-02-20T10:15:30.742Z</time>
</trkpt>
<trkpt lat="31.8931800" lon="35.0008000">
<ele>224.500015</ele>
<time>2024-02-20T10:15:30.742Z</time>
</trkpt>
<trkpt lat="31.8932700" lon="35.0008100">
<ele>224.159988</ele>
<time>2024-02-20T10:15:30.742Z</time>
</trkpt>
<trkpt lat="31.8933300" lon="35.0007500">
<ele>223.720001</ele>
<time>2024-02-20T10:15:30.742Z</time>
</trkpt>
<trkpt lat="31.8933900" lon="35.0006100">
<ele>222.460007</ele>
<time>2024-02-20T10:15:30.742Z</time>
</trkpt>
<trkpt lat="31.8941100" lon="34.9974500">
<ele>215.479996</ele>
<time>2024-02-20T10:15:30.742Z</time>
</trkpt>
<trkpt lat="31.8941500" lon="34.9972500">
<ele>215.230011</ele>
<time>2024-02-20T10:15:30.742Z</time>
</trkpt>
<trkpt lat="31.8941800" lon="34.9971100">
<ele>214.500000</ele>
<time>2024-02-20T10:15:30.742Z</time>
</trkpt>
<trkpt lat="31.8944200" lon="34.9960800">
<ele>210.099991</ele>
<time>2024-02-20T10:15:30.742Z</time>
</trkpt>
<trkpt lat="31.8944900" lon="34.9957400">
<ele>210.279999</ele>
<time>2024-02-20T10:15:30.742Z</time>
</trkpt>
<trkpt lat="31.8945400" lon="34.9950900">
<ele>209.059998</ele>
<time>2024-02-20T10:15:30.742Z</time>
</trkpt>
<trkpt lat="31.8945400" lon="34.9946300">
<ele>207.180008</ele>
<time>2024-02-20T10:15:30.742Z</time>
</trkpt>
<trkpt lat="31.8945100" lon="34.9942400">
<ele>205.989990</ele>
<time>2024-02-20T10:15:30.742Z</time>
</trkpt>
<trkpt lat="31.8944300" lon="34.9933600">
<ele>204.129990</ele>
<time>2024-02-20T10:15:30.742Z</time>
</trkpt>
<trkpt lat="31.8941200" lon="34.9908600">
<ele>193.860001</ele>
<time>2024-02-20T10:15:30.742Z</time>
</trkpt>
<trkpt lat="31.8941200" lon="34.9902200">
<ele>192.639999</ele>
<time>2024-02-20T10:15:30.742Z</time>
</trkpt>
<trkpt lat="31.8941600" lon="34.9898300">
<ele>193.240005</ele>
<time>2024-02-20T10:15:30.742Z</time>
</trkpt>
<trkpt lat="31.8941900" lon="34.9894500">
<ele>193.180008</ele>
<time>2024-02-20T10:15:30.742Z</time>
</trkpt>
<trkpt lat="31.8942000" lon="34.9892900">
<ele>192.820007</ele>
<time>2024-02-20T10:15:30.742Z</time>
</trkpt>
<trkpt lat="31.8942100" lon="34.9891700">
<ele>192.629990</ele>
<time>2024-02-20T10:15:30.742Z</time>
</trkpt>
<trkpt lat="31.8942200" lon="34.9891100">
<ele>192.360001</ele>
<time>2024-02-20T10:15:30.742Z</time>
</trkpt>
<trkpt lat="31.8942000" lon="34.9890600">
<ele>191.709991</ele>
<time>2024-02-20T10:15:30.742Z</time>
</trkpt>
<trkpt lat="31.8941900" lon="34.9890100">
<ele>191.210007</ele>
<time>2024-02-20T10:15:30.742Z</time>
</trkpt>
<trkpt lat="31.8942000" lon="34.9889800">
<ele>191.139999</ele>
<time>2024-02-20T10:15:30.742Z</time>
</trkpt>
<trkpt lat="31.8942400" lon="34.9889700">
<ele>191.639999</ele>
<time>2024-02-20T10:15:30.742Z</time>
</trkpt>
<trkpt lat="31.8942800" lon="34.9891100">
<ele>193.220001</ele>
<time>2024-02-20T10:15:30.742Z</time>
</trkpt>
<trkpt lat="31.8943100" lon="34.9892500">
<ele>194.050003</ele>
<time>2024-02-20T10:15:30.742Z</time>
</trkpt>
<trkpt lat="31.8943300" lon="34.9893300">
<ele>194.250000</ele>
<time>2024-02-20T10:15:30.742Z</time>
</trkpt>
<trkpt lat="31.8943300" lon="34.9894100">
<ele>194.199997</ele>
<time>2024-02-20T10:15:30.742Z</time>
</trkpt>
<trkpt lat="31.8942600" lon="34.9898900">
<ele>192.119995</ele>
<time>2024-02-20T10:15:30.742Z</time>
</trkpt>
<trkpt lat="31.8942200" lon="34.9901500">
<ele>191.720001</ele>
<time>2024-02-20T10:15:30.742Z</time>
</trkpt>
<trkpt lat="31.8942000" lon="34.9904100">
<ele>192.470001</ele>
<time>2024-02-20T10:15:30.742Z</time>
</trkpt>
<trkpt lat="31.8942000" lon="34.9907500">
<ele>193.199997</ele>
<time>2024-02-20T10:15:30.742Z</time>
</trkpt>
<trkpt lat="31.8942400" lon="34.9912700">
<ele>195.049988</ele>
<time>2024-02-20T10:15:30.742Z</time>
</trkpt>
<trkpt lat="31.8942700" lon="34.9915100">
<ele>196.990005</ele>
<time>2024-02-20T10:15:30.742Z</time>
</trkpt>
<trkpt lat="31.8942700" lon="34.9915100">
<ele>196.990005</ele>
<time>2024-02-20T10:15:30.742Z</time>
</trkpt>
<trkpt lat="31.8943500" lon="34.9920300">
<ele>199.869995</ele>
<time>2024-02-20T10:15:30.742Z</time>
</trkpt>
<trkpt lat="31.8945200" lon="34.9936500">
<ele>203.840012</ele>
<time>2024-02-20T10:15:30.742Z</time>
</trkpt>
<trkpt lat="31.8945700" lon="34.9941100">
<ele>204.870010</ele>
<time>2024-02-20T10:15:30.742Z</time>
</trkpt>
<trkpt lat="31.8946000" lon="34.9945200">
<ele>206.289993</ele>
<time>2024-02-20T10:15:30.742Z</time>
</trkpt>
<trkpt lat="31.8946000" lon="34.9947700">
<ele>206.470001</ele>
<time>2024-02-20T10:15:30.742Z</time>
</trkpt>
<trkpt lat="31.8945900" lon="34.9949900">
<ele>207.849991</ele>
<time>2024-02-20T10:15:30.742Z</time>
</trkpt>
<trkpt lat="31.8945800" lon="34.9954000">
<ele>209.969986</ele>
<time>2024-02-20T10:15:30.742Z</time>
</trkpt>
<trkpt lat="31.8945400" lon="34.9958300">
<ele>210.010010</ele>
<time>2024-02-20T10:15:30.742Z</time>
</trkpt>
<trkpt lat="31.8944600" lon="34.9962500">
<ele>209.940002</ele>
<time>2024-02-20T10:15:30.742Z</time>
</trkpt>
<trkpt lat="31.8942800" lon="34.9969700">
<ele>213.279999</ele>
<time>2024-02-20T10:15:30.742Z</time>
</trkpt>
<trkpt lat="31.8941800" lon="34.9971100">
<ele>214.500000</ele>
<time>2024-02-20T10:15:30.742Z</time>
</trkpt>
<trkpt lat="31.8944200" lon="34.9960800">
<ele>210.099991</ele>
<time>2024-02-20T10:15:30.742Z</time>
</trkpt>
<trkpt lat="31.8944900" lon="34.9957400">
<ele>210.279999</ele>
<time>2024-02-20T10:15:30.742Z</time>
</trkpt>
<trkpt lat="31.8945400" lon="34.9950900">
<ele>209.059998</ele>
<time>2024-02-20T10:15:30.742Z</time>
</trkpt>
<trkpt lat="31.8945400" lon="34.9946300">
<ele>207.180008</ele>
<time>2024-02-20T10:15:30.742Z</time>
</trkpt>
<trkpt lat="31.8945100" lon="34.9942400">
<ele>205.989990</ele>
<time>2024-02-20T10:15:30.742Z</time>
</trkpt>
<trkpt lat="31.8944300" lon="34.9933600">
<ele>204.129990</ele>
<time>2024-02-20T10:15:30.742Z</time>
</trkpt>
<trkpt lat="31.8941200" lon="34.9908600">
<ele>193.860001</ele>
<time>2024-02-20T10:15:30.742Z</time>
</trkpt>
<trkpt lat="31.8941200" lon="34.9902200">
<ele>192.639999</ele>
<time>2024-02-20T10:15:30.742Z</time>
</trkpt>
<trkpt lat="31.8941600" lon="34.9898300">
<ele>193.240005</ele>
<time>2024-02-20T10:15:30.742Z</time>
</trkpt>
<trkpt lat="31.8941900" lon="34.9894500">
<ele>193.180008</ele>
<time>2024-02-20T10:15:30.742Z</time>
</trkpt>
<trkpt lat="31.8942000" lon="34.9892900">
<ele>192.820007</ele>
<time>2024-02-20T10:15:30.742Z</time>
</trkpt>
<trkpt lat="31.8942100" lon="34.9891700">
<ele>192.629990</ele>
<time>2024-02-20T10:15:30.742Z</time>
</trkpt>
<trkpt lat="31.8942200" lon="34.9891100">
<ele>192.360001</ele>
<time>2024-02-20T10:15:30.742Z</time>
</trkpt>
<trkpt lat="31.8942000" lon="34.9890600">
<ele>191.709991</ele>
<time>2024-02-20T10:15:30.742Z</time>
</trkpt>
<trkpt lat="31.8941900" lon="34.9890100">
<ele>191.210007</ele>
<time>2024-02-20T10:15:30.742Z</time>
</trkpt>
<trkpt lat="31.8942000" lon="34.9889800">
<ele>191.139999</ele>
<time>2024-02-20T10:15:30.742Z</time>
</trkpt>
<trkpt lat="31.8942400" lon="34.9889700">
<ele>191.639999</ele>
<time>2024-02-20T10:15:30.742Z</time>
</trkpt>
<trkpt lat="31.8942500" lon="34.9889500">
<ele>191.639999</ele>
<time>2024-02-20T10:15:30.742Z</time>
</trkpt>
<trkpt lat="31.8943000" lon="34.9888700">
<ele>191.850006</ele>
<time>2024-02-20T10:15:30.742Z</time>
</trkpt>
<trkpt lat="31.8943500" lon="34.9888000">
<ele>192.220001</ele>
<time>2024-02-20T10:15:30.742Z</time>
</trkpt>
<trkpt lat="31.8943500" lon="34.9887500">
<ele>191.979996</ele>
<time>2024-02-20T10:15:30.742Z</time>
</trkpt>
<trkpt lat="31.8943500" lon="34.9885400">
<ele>190.729996</ele>
<time>2024-02-20T10:15:30.742Z</time>
</trkpt>
<trkpt lat="31.8943600" lon="34.9884800">
<ele>190.259995</ele>
<time>2024-02-20T10:15:30.742Z</time>
</trkpt>
<trkpt lat="31.8944200" lon="34.9883400">
<ele>189.070007</ele>
<time>2024-02-20T10:15:30.742Z</time>
</trkpt>
<trkpt lat="31.8944900" lon="34.9880600">
<ele>189.330002</ele>
<time>2024-02-20T10:15:30.742Z</time>
</trkpt>
<trkpt lat="31.8944900" lon="34.9879000">
<ele>189.240005</ele>
<time>2024-02-20T10:15:30.742Z</time>
</trkpt>
<trkpt lat="31.8945200" lon="34.9875900">
<ele>188.779999</ele>
<time>2024-02-20T10:15:30.742Z</time>
</trkpt>
<trkpt lat="31.8945200" lon="34.9873100">
<ele>187.550003</ele>
<time>2024-02-20T10:15:30.742Z</time>
</trkpt>
<trkpt lat="31.8944900" lon="34.9870900">
<ele>186.659988</ele>
<time>2024-02-20T10:15:30.742Z</time>
</trkpt>
<trkpt lat="31.8944800" lon="34.9867900">
<ele>187.069992</ele>
<time>2024-02-20T10:15:30.742Z</time>
</trkpt>
<trkpt lat="31.8943800" lon="34.9862600">
<ele>187.770004</ele>
<time>2024-02-20T10:15:30.742Z</time>
</trkpt>
<trkpt lat="31.8942800" lon="34.9858500">
<ele>188.560013</ele>
<time>2024-02-20T10:15:30.742Z</time>
</trkpt>
<trkpt lat="31.8934400" lon="34.9833400">
<ele>180.800003</ele>
<time>2024-02-20T10:15:30.742Z</time>
</trkpt>
<trkpt lat="31.8932900" lon="34.9829000">
<ele>174.169998</ele>
<time>2024-02-20T10:15:30.742Z</time>
</trkpt>
<trkpt lat="31.8932600" lon="34.9828300">
<ele>173.029999</ele>
<time>2024-02-20T10:15:30.742Z</time>
</trkpt>
<trkpt lat="31.8927600" lon="34.9812800">
<ele>174.520004</ele>
<time>2024-02-20T10:15:30.742Z</time>
</trkpt>
<trkpt lat="31.8926100" lon="34.9808500">
<ele>178.090012</ele>
<time>2024-02-20T10:15:30.742Z</time>
</trkpt>
<trkpt lat="31.8925700" lon="34.9807300">
<ele>178.679993</ele>
<time>2024-02-20T10:15:30.742Z</time>
</trkpt>
<trkpt lat="31.8925000" lon="34.9803800">
<ele>179.630005</ele>
<time>2024-02-20T10:15:30.742Z</time>
</trkpt>
<trkpt lat="31.8924100" lon="34.9796800">
<ele>179.470001</ele>
<time>2024-02-20T10:15:30.742Z</time>
</trkpt>
<trkpt lat="31.8924000" lon="34.9791900">
<ele>178.139984</ele>
<time>2024-02-20T10:15:30.742Z</time>
</trkpt>
<trkpt lat="31.8924100" lon="34.9787700">
<ele>176.429993</ele>
<time>2024-02-20T10:15:30.742Z</time>
</trkpt>
<trkpt lat="31.8923900" lon="34.9771100">
<ele>174.880005</ele>
<time>2024-02-20T10:15:30.742Z</time>
</trkpt>
<trkpt lat="31.8923700" lon="34.9767200">
<ele>174.949997</ele>
<time>2024-02-20T10:15:30.742Z</time>
</trkpt>
<trkpt lat="31.8923400" lon="34.9763700">
<ele>174.990005</ele>
<time>2024-02-20T10:15:30.742Z</time>
</trkpt>
<trkpt lat="31.8921500" lon="34.9745900">
<ele>172.690002</ele>
<time>2024-02-20T10:15:30.742Z</time>
</trkpt>
<trkpt lat="31.8918600" lon="34.9732400">
<ele>169.529999</ele>
<time>2024-02-20T10:15:30.742Z</time>
</trkpt>
<trkpt lat="31.8915600" lon="34.9723100">
<ele>165.149994</ele>
<time>2024-02-20T10:15:30.742Z</time>
</trkpt>
<trkpt lat="31.8915200" lon="34.9721800">
<ele>165.580002</ele>
<time>2024-02-20T10:15:30.742Z</time>
</trkpt>
<trkpt lat="31.8914000" lon="34.9715600">
<ele>163.779999</ele>
<time>2024-02-20T10:15:30.742Z</time>
</trkpt>
<trkpt lat="31.8913100" lon="34.9711100">
<ele>160.279999</ele>
<time>2024-02-20T10:15:30.742Z</time>
</trkpt>
<trkpt lat="31.8912000" lon="34.9709700">
<ele>160.009995</ele>
<time>2024-02-20T10:15:30.742Z</time>
</trkpt>
<trkpt lat="31.8912700" lon="34.9709000">
<ele>159.229996</ele>
<time>2024-02-20T10:15:30.742Z</time>
</trkpt>
<trkpt lat="31.8913000" lon="34.9709400">
<ele>159.289993</ele>
<time>2024-02-20T10:15:30.742Z</time>
</trkpt>
<trkpt lat="31.8913500" lon="34.9709600">
<ele>159.130005</ele>
<time>2024-02-20T10:15:30.742Z</time>
</trkpt>
<trkpt lat="31.8914000" lon="34.9709700">
<ele>159.000000</ele>
<time>2024-02-20T10:15:30.742Z</time>
</trkpt>
<trkpt lat="31.8914500" lon="34.9709600">
<ele>159.029999</ele>
<time>2024-02-20T10:15:30.742Z</time>
</trkpt>
<trkpt lat="31.8914900" lon="34.9709300">
<ele>158.930008</ele>
<time>2024-02-20T10:15:30.742Z</time>
</trkpt>
<trkpt lat="31.8915300" lon="34.9709100">
<ele>158.919998</ele>
<time>2024-02-20T10:15:30.742Z</time>
</trkpt>
<trkpt lat="31.8915700" lon="34.9709100">
<ele>159.020004</ele>
<time>2024-02-20T10:15:30.742Z</time>
</trkpt>
<trkpt lat="31.8916200" lon="34.9709100">
<ele>159.150009</ele>
<time>2024-02-20T10:15:30.742Z</time>
</trkpt>
<trkpt lat="31.8928200" lon="34.9710600">
<ele>172.270004</ele>
<time>2024-02-20T10:15:30.742Z</time>
</trkpt>
<trkpt lat="31.8930200" lon="34.9710900">
<ele>174.540009</ele>
<time>2024-02-20T10:15:30.742Z</time>
</trkpt>
<trkpt lat="31.8930800" lon="34.9711100">
<ele>175.000000</ele>
<time>2024-02-20T10:15:30.742Z</time>
</trkpt>
<trkpt lat="31.8931200" lon="34.9711300">
<ele>175.079987</ele>
<time>2024-02-20T10:15:30.742Z</time>
</trkpt>
<trkpt lat="31.8931800" lon="34.9711900">
<ele>175.410004</ele>
<time>2024-02-20T10:15:30.742Z</time>
</trkpt>
<trkpt lat="31.8932300" lon="34.9712500">
<ele>175.809998</ele>
<time>2024-02-20T10:15:30.742Z</time>
</trkpt>
<trkpt lat="31.8932900" lon="34.9712800">
<ele>176.120010</ele>
<time>2024-02-20T10:15:30.742Z</time>
</trkpt>
<trkpt lat="31.8933600" lon="34.9712900">
<ele>176.230011</ele>
<time>2024-02-20T10:15:30.742Z</time>
</trkpt>
<trkpt lat="31.8934300" lon="34.9712700">
<ele>175.940002</ele>
<time>2024-02-20T10:15:30.742Z</time>
</trkpt>
<trkpt lat="31.8934900" lon="34.9712300">
<ele>175.610001</ele>
<time>2024-02-20T10:15:30.742Z</time>
</trkpt>
<trkpt lat="31.8935300" lon="34.9711700">
<ele>175.270004</ele>
<time>2024-02-20T10:15:30.742Z</time>
</trkpt>
<trkpt lat="31.8936000" lon="34.9711300">
<ele>175.070007</ele>
<time>2024-02-20T10:15:30.742Z</time>
</trkpt>
<trkpt lat="31.8936600" lon="34.9711100">
<ele>174.470001</ele>
<time>2024-02-20T10:15:30.742Z</time>
</trkpt>
<trkpt lat="31.8937600" lon="34.9711200">
<ele>173.419998</ele>
<time>2024-02-20T10:15:30.742Z</time>
</trkpt>
<trkpt lat="31.8940500" lon="34.9711600">
<ele>171.119995</ele>
<time>2024-02-20T10:15:30.742Z</time>
</trkpt>
<trkpt lat="31.8944100" lon="34.9712200">
<ele>168.379990</ele>
<time>2024-02-20T10:15:30.742Z</time>
</trkpt>
<trkpt lat="31.8948000" lon="34.9713200">
<ele>173.550003</ele>
<time>2024-02-20T10:15:30.742Z</time>
</trkpt>
<trkpt lat="31.8949900" lon="34.9713900">
<ele>175.839996</ele>
<time>2024-02-20T10:15:30.742Z</time>
</trkpt>
<trkpt lat="31.8951000" lon="34.9714400">
<ele>175.330002</ele>
<time>2024-02-20T10:15:30.742Z</time>
</trkpt>
<trkpt lat="31.8953900" lon="34.9715800">
<ele>171.660004</ele>
<time>2024-02-20T10:15:30.742Z</time>
</trkpt>
<trkpt lat="31.8956000" lon="34.9717200">
<ele>167.200012</ele>
<time>2024-02-20T10:15:30.742Z</time>
</trkpt>
<trkpt lat="31.8957300" lon="34.9718500">
<ele>165.239990</ele>
<time>2024-02-20T10:15:30.742Z</time>
</trkpt>
<trkpt lat="31.8957300" lon="34.9718500">
<ele>165.239990</ele>
<time>2024-02-20T10:15:30.742Z</time>
</trkpt>
<trkpt lat="31.8958300" lon="34.9719400">
<ele>164.039993</ele>
<time>2024-02-20T10:15:30.742Z</time>
</trkpt>
<trkpt lat="31.8961800" lon="34.9723200">
<ele>163.529999</ele>
<time>2024-02-20T10:15:30.742Z</time>
</trkpt>
<trkpt lat="31.8963000" lon="34.9725100">
<ele>163.159988</ele>
<time>2024-02-20T10:15:30.742Z</time>
</trkpt>
<trkpt lat="31.8964700" lon="34.9728300">
<ele>166.819992</ele>
<time>2024-02-20T10:15:30.742Z</time>
</trkpt>
<trkpt lat="31.8965900" lon="34.9731000">
<ele>166.500000</ele>
<time>2024-02-20T10:15:30.742Z</time>
</trkpt>
<trkpt lat="31.8966800" lon="34.9734000">
<ele>165.649994</ele>
<time>2024-02-20T10:15:30.742Z</time>
</trkpt>
<trkpt lat="31.8967600" lon="34.9736600">
<ele>163.080002</ele>
<time>2024-02-20T10:15:30.742Z</time>
</trkpt>
<trkpt lat="31.8968000" lon="34.9739600">
<ele>160.020004</ele>
<time>2024-02-20T10:15:30.742Z</time>
</trkpt>
<trkpt lat="31.8968700" lon="34.9746300">
<ele>153.919998</ele>
<time>2024-02-20T10:15:30.742Z</time>
</trkpt>
<trkpt lat="31.8969100" lon="34.9750500">
<ele>148.929993</ele>
<time>2024-02-20T10:15:30.742Z</time>
</trkpt>
<trkpt lat="31.8969700" lon="34.9759700">
<ele>138.050003</ele>
<time>2024-02-20T10:15:30.742Z</time>
</trkpt>
<trkpt lat="31.8970000" lon="34.9763600">
<ele>139.279999</ele>
<time>2024-02-20T10:15:30.742Z</time>
</trkpt>
<trkpt lat="31.8969700" lon="34.9764000">
<ele>139.349991</ele>
<time>2024-02-20T10:15:30.742Z</time>
</trkpt>
<trkpt lat="31.8969400" lon="34.9764400">
<ele>139.710007</ele>
<time>2024-02-20T10:15:30.742Z</time>
</trkpt>
<trkpt lat="31.8969300" lon="34.9764900">
<ele>140.369995</ele>
<time>2024-02-20T10:15:30.742Z</time>
</trkpt>
<trkpt lat="31.8969300" lon="34.9765400">
<ele>141.100006</ele>
<time>2024-02-20T10:15:30.742Z</time>
</trkpt>
<trkpt lat="31.8969300" lon="34.9765900">
<ele>141.830002</ele>
<time>2024-02-20T10:15:30.742Z</time>
</trkpt>
<trkpt lat="31.8969500" lon="34.9766300">
<ele>142.529999</ele>
<time>2024-02-20T10:15:30.742Z</time>
</trkpt>
<trkpt lat="31.8969900" lon="34.9766800">
<ele>143.750000</ele>
<time>2024-02-20T10:15:30.742Z</time>
</trkpt>
<trkpt lat="31.8970300" lon="34.9767000">
<ele>144.500000</ele>
<time>2024-02-20T10:15:30.742Z</time>
</trkpt>
<trkpt lat="31.8970900" lon="34.9767100">
<ele>145.180008</ele>
<time>2024-02-20T10:15:30.742Z</time>
</trkpt>
<trkpt lat="31.8971400" lon="34.9767000">
<ele>145.490005</ele>
<time>2024-02-20T10:15:30.742Z</time>
</trkpt>
<trkpt lat="31.8971900" lon="34.9766700">
<ele>145.680008</ele>
<time>2024-02-20T10:15:30.742Z</time>
</trkpt>
<trkpt lat="31.8972200" lon="34.9766200">
<ele>145.139999</ele>
<time>2024-02-20T10:15:30.742Z</time>
</trkpt>
<trkpt lat="31.8972400" lon="34.9765600">
<ele>144.080002</ele>
<time>2024-02-20T10:15:30.742Z</time>
</trkpt>
<trkpt lat="31.8973300" lon="34.9765700">
<ele>144.260010</ele>
<time>2024-02-20T10:15:30.742Z</time>
</trkpt>
<trkpt lat="31.8975400" lon="34.9765100">
<ele>143.050003</ele>
<time>2024-02-20T10:15:30.742Z</time>
</trkpt>
<trkpt lat="31.8978200" lon="34.9763800">
<ele>141.070007</ele>
<time>2024-02-20T10:15:30.742Z</time>
</trkpt>
<trkpt lat="31.8979300" lon="34.9763100">
<ele>141.160004</ele>
<time>2024-02-20T10:15:30.742Z</time>
</trkpt>
<trkpt lat="31.8979900" lon="34.9762800">
<ele>141.489990</ele>
<time>2024-02-20T10:15:30.742Z</time>
</trkpt>
<trkpt lat="31.8980900" lon="34.9762100">
<ele>142.120010</ele>
<time>2024-02-20T10:15:30.742Z</time>
</trkpt>
<trkpt lat="31.8983100" lon="34.9760500">
<ele>142.900009</ele>
<time>2024-02-20T10:15:30.742Z</time>
</trkpt>
<trkpt lat="31.8985200" lon="34.9758500">
<ele>144.339996</ele>
<time>2024-02-20T10:15:30.742Z</time>
</trkpt>
<trkpt lat="31.8986600" lon="34.9756700">
<ele>143.589996</ele>
<time>2024-02-20T10:15:30.742Z</time>
</trkpt>
<trkpt lat="31.8987100" lon="34.9756100">
<ele>143.300003</ele>
<time>2024-02-20T10:15:30.742Z</time>
</trkpt>
<trkpt lat="31.8988100" lon="34.9754800">
<ele>142.809998</ele>
<time>2024-02-20T10:15:30.742Z</time>
</trkpt>
<trkpt lat="31.8990800" lon="34.9751000">
<ele>144.550003</ele>
<time>2024-02-20T10:15:30.742Z</time>
</trkpt>
<trkpt lat="31.8991600" lon="34.9750000">
<ele>145.880005</ele>
<time>2024-02-20T10:15:30.742Z</time>
</trkpt>
<trkpt lat="31.8992300" lon="34.9748900">
<ele>146.289993</ele>
<time>2024-02-20T10:15:30.742Z</time>
</trkpt>
<trkpt lat="31.8993700" lon="34.9747300">
<ele>147.220001</ele>
<time>2024-02-20T10:15:30.742Z</time>
</trkpt>
<trkpt lat="31.8995500" lon="34.9745400">
<ele>146.430008</ele>
<time>2024-02-20T10:15:30.742Z</time>
</trkpt>
<trkpt lat="31.8998100" lon="34.9743500">
<ele>145.559998</ele>
<time>2024-02-20T10:15:30.742Z</time>
</trkpt>
<trkpt lat="31.9000200" lon="34.9742300">
<ele>145.699997</ele>
<time>2024-02-20T10:15:30.742Z</time>
</trkpt>
<trkpt lat="31.9003400" lon="34.9741100">
<ele>146.300003</ele>
<time>2024-02-20T10:15:30.742Z</time>
</trkpt>
<trkpt lat="31.9005500" lon="34.9740500">
<ele>149.760010</ele>
<time>2024-02-20T10:15:30.742Z</time>
</trkpt>
<trkpt lat="31.9008000" lon="34.9740200">
<ele>151.300003</ele>
<time>2024-02-20T10:15:30.742Z</time>
</trkpt>
<trkpt lat="31.9010200" lon="34.9740300">
<ele>151.190002</ele>
<time>2024-02-20T10:15:30.742Z</time>
</trkpt>
<trkpt lat="31.9011600" lon="34.9740400">
<ele>150.619995</ele>
<time>2024-02-20T10:15:30.742Z</time>
</trkpt>
<trkpt lat="31.9013500" lon="34.9740800">
<ele>148.529999</ele>
<time>2024-02-20T10:15:30.742Z</time>
</trkpt>
<trkpt lat="31.9014600" lon="34.9741200">
<ele>148.259995</ele>
<time>2024-02-20T10:15:30.742Z</time>
</trkpt>
<trkpt lat="31.9016600" lon="34.9741900">
<ele>148.980011</ele>
<time>2024-02-20T10:15:30.742Z</time>
</trkpt>
<trkpt lat="31.9019400" lon="34.9743400">
<ele>147.029999</ele>
<time>2024-02-20T10:15:30.742Z</time>
</trkpt>
<trkpt lat="31.9023100" lon="34.9746200">
<ele>145.550003</ele>
<time>2024-02-20T10:15:30.742Z</time>
</trkpt>
<trkpt lat="31.9025600" lon="34.9747700">
<ele>144.520004</ele>
<time>2024-02-20T10:15:30.742Z</time>
</trkpt>
<trkpt lat="31.9027300" lon="34.9748500">
<ele>143.910004</ele>
<time>2024-02-20T10:15:30.742Z</time>
</trkpt>
<trkpt lat="31.9029200" lon="34.9749200">
<ele>140.690002</ele>
<time>2024-02-20T10:15:30.742Z</time>
</trkpt>
<trkpt lat="31.9030500" lon="34.9749500">
<ele>138.330002</ele>
<time>2024-02-20T10:15:30.742Z</time>
</trkpt>
<trkpt lat="31.9031600" lon="34.9749700">
<ele>138.089996</ele>
<time>2024-02-20T10:15:30.742Z</time>
</trkpt>
<trkpt lat="31.9032400" lon="34.9749800">
<ele>138.119995</ele>
<time>2024-02-20T10:15:30.742Z</time>
</trkpt>
<trkpt lat="31.9033900" lon="34.9749900">
<ele>138.589996</ele>
<time>2024-02-20T10:15:30.742Z</time>
</trkpt>
<trkpt lat="31.9034800" lon="34.9749900">
<ele>139.199997</ele>
<time>2024-02-20T10:15:30.742Z</time>
</trkpt>
<trkpt lat="31.9036700" lon="34.9749900">
<ele>141.119995</ele>
<time>2024-02-20T10:15:30.742Z</time>
</trkpt>
<trkpt lat="31.9037800" lon="34.9749800">
<ele>143.100006</ele>
<time>2024-02-20T10:15:30.742Z</time>
</trkpt>
<trkpt lat="31.9039500" lon="34.9749400">
<ele>145.739990</ele>
<time>2024-02-20T10:15:30.742Z</time>
</trkpt>
<trkpt lat="31.9041600" lon="34.9748800">
<ele>147.639999</ele>
<time>2024-02-20T10:15:30.742Z</time>
</trkpt>
<trkpt lat="31.9043300" lon="34.9748100">
<ele>148.309998</ele>
<time>2024-02-20T10:15:30.742Z</time>
</trkpt>
<trkpt lat="31.9044200" lon="34.9747600">
<ele>148.360001</ele>
<time>2024-02-20T10:15:30.742Z</time>
</trkpt>
<trkpt lat="31.9044200" lon="34.9747600">
<ele>148.360001</ele>
<time>2024-02-20T10:15:30.742Z</time>
</trkpt>
<trkpt lat="31.9044200" lon="34.9747600">
<ele>148.360001</ele>
<time>2024-02-20T10:15:30.742Z</time>
</trkpt>
<trkpt lat="31.9044900" lon="34.9747300">
<ele>148.919998</ele>
<time>2024-02-20T10:15:30.742Z</time>
</trkpt>
<trkpt lat="31.9046600" lon="34.9746200">
<ele>150.940002</ele>
<time>2024-02-20T10:15:30.742Z</time>
</trkpt>
<trkpt lat="31.9053600" lon="34.9740900">
<ele>155.500000</ele>
<time>2024-02-20T10:15:30.742Z</time>
</trkpt>
<trkpt lat="31.9057800" lon="34.9737800">
<ele>159.369995</ele>
<time>2024-02-20T10:15:30.742Z</time>
</trkpt>
<trkpt lat="31.9059800" lon="34.9736500">
<ele>160.729996</ele>
<time>2024-02-20T10:15:30.742Z</time>
</trkpt>
<trkpt lat="31.9061200" lon="34.9735800">
<ele>160.809998</ele>
<time>2024-02-20T10:15:30.742Z</time>
</trkpt>
<trkpt lat="31.9064500" lon="34.9734100">
<ele>155.059998</ele>
<time>2024-02-20T10:15:30.742Z</time>
</trkpt>
<trkpt lat="31.9081900" lon="34.9725600">
<ele>139.360001</ele>
<time>2024-02-20T10:15:30.742Z</time>
</trkpt>
<trkpt lat="31.9084100" lon="34.9724300">
<ele>137.729996</ele>
<time>2024-02-20T10:15:30.742Z</time>
</trkpt>
<trkpt lat="31.9085600" lon="34.9723200">
<ele>138.779999</ele>
<time>2024-02-20T10:15:30.742Z</time>
</trkpt>
<trkpt lat="31.9087100" lon="34.9722100">
<ele>136.769989</ele>
<time>2024-02-20T10:15:30.742Z</time>
</trkpt>
<trkpt lat="31.9088800" lon="34.9720500">
<ele>131.270004</ele>
<time>2024-02-20T10:15:30.742Z</time>
</trkpt>
<trkpt lat="31.9089400" lon="34.9719800">
<ele>131.229996</ele>
<time>2024-02-20T10:15:30.742Z</time>
</trkpt>
<trkpt lat="31.9089400" lon="34.9719800">
<ele>131.229996</ele>
<time>2024-02-20T10:15:30.742Z</time>
</trkpt>
<trkpt lat="31.9090700" lon="34.9718400">
<ele>131.289993</ele>
<time>2024-02-20T10:15:30.742Z</time>
</trkpt>
<trkpt lat="31.9097400" lon="34.9710700">
<ele>130.489990</ele>
<time>2024-02-20T10:15:30.742Z</time>
</trkpt>
<trkpt lat="31.9098800" lon="34.9709100">
<ele>132.489990</ele>
<time>2024-02-20T10:15:30.742Z</time>
</trkpt>
<trkpt lat="31.9100000" lon="34.9708200">
<ele>133.000000</ele>
<time>2024-02-20T10:15:30.742Z</time>
</trkpt>
<trkpt lat="31.9100300" lon="34.9708300">
<ele>133.320007</ele>
<time>2024-02-20T10:15:30.742Z</time>
</trkpt>
<trkpt lat="31.9100500" lon="34.9708200">
<ele>133.520004</ele>
<time>2024-02-20T10:15:30.742Z</time>
</trkpt>
<trkpt lat="31.9100700" lon="34.9708200">
<ele>133.729996</ele>
<time>2024-02-20T10:15:30.742Z</time>
</trkpt>
<trkpt lat="31.9100900" lon="34.9708100">
<ele>133.919998</ele>
<time>2024-02-20T10:15:30.742Z</time>
</trkpt>
<trkpt lat="31.9101100" lon="34.9707900">
<ele>134.059998</ele>
<time>2024-02-20T10:15:30.742Z</time>
</trkpt>
<trkpt lat="31.9101300" lon="34.9707800">
<ele>134.220001</ele>
<time>2024-02-20T10:15:30.742Z</time>
</trkpt>
<trkpt lat="31.9101400" lon="34.9707500">
<ele>134.210007</ele>
<time>2024-02-20T10:15:30.742Z</time>
</trkpt>
<trkpt lat="31.9101600" lon="34.9707300">
<ele>134.300003</ele>
<time>2024-02-20T10:15:30.742Z</time>
</trkpt>
<trkpt lat="31.9101600" lon="34.9707100">
<ele>134.220001</ele>
<time>2024-02-20T10:15:30.742Z</time>
</trkpt>
<trkpt lat="31.9101700" lon="34.9706800">
<ele>134.160004</ele>
<time>2024-02-20T10:15:30.742Z</time>
</trkpt>
<trkpt lat="31.9101900" lon="34.9706100">
<ele>133.949997</ele>
<time>2024-02-20T10:15:30.742Z</time>
</trkpt>
<trkpt lat="31.9102000" lon="34.9706000">
<ele>133.949997</ele>
<time>2024-02-20T10:15:30.742Z</time>
</trkpt>
<trkpt lat="31.9102100" lon="34.9705800">
<ele>133.889999</ele>
<time>2024-02-20T10:15:30.742Z</time>
</trkpt>
<trkpt lat="31.9102200" lon="34.9705600">
<ele>133.819992</ele>
<time>2024-02-20T10:15:30.742Z</time>
</trkpt>
<trkpt lat="31.9102300" lon="34.9705500">
<ele>133.830002</ele>
<time>2024-02-20T10:15:30.742Z</time>
</trkpt>
<trkpt lat="31.9102500" lon="34.9705300">
<ele>133.910004</ele>
<time>2024-02-20T10:15:30.742Z</time>
</trkpt>
<trkpt lat="31.9102600" lon="34.9705100">
<ele>133.949997</ele>
<time>2024-02-20T10:15:30.742Z</time>
</trkpt>
<trkpt lat="31.9102700" lon="34.9705000">
<ele>133.979996</ele>
<time>2024-02-20T10:15:30.742Z</time>
</trkpt>
<trkpt lat="31.9102900" lon="34.9704800">
<ele>134.040009</ele>
<time>2024-02-20T10:15:30.742Z</time>
</trkpt>
<trkpt lat="31.9106500" lon="34.9700500">
<ele>137.419998</ele>
<time>2024-02-20T10:15:30.742Z</time>
</trkpt>
<trkpt lat="31.9106500" lon="34.9700500">
<ele>137.419998</ele>
<time>2024-02-20T10:15:30.742Z</time>
</trkpt>
<trkpt lat="31.9106500" lon="34.9700500">
<ele>137.419998</ele>
<time>2024-02-20T10:15:30.742Z</time>
</trkpt>
<trkpt lat="31.9107400" lon="34.9699500">
<ele>137.880005</ele>
<time>2024-02-20T10:15:30.742Z</time>
</trkpt>
<trkpt lat="31.9107700" lon="34.9699100">
<ele>138.199997</ele>
<time>2024-02-20T10:15:30.742Z</time>
</trkpt>
<trkpt lat="31.9108400" lon="34.9698100">
<ele>139.190002</ele>
<time>2024-02-20T10:15:30.742Z</time>
</trkpt>
<trkpt lat="31.9108700" lon="34.9697400">
<ele>140.479996</ele>
<time>2024-02-20T10:15:30.742Z</time>
</trkpt>
<trkpt lat="31.9108700" lon="34.9697300">
<ele>140.580002</ele>
<time>2024-02-20T10:15:30.742Z</time>
</trkpt>
<trkpt lat="31.9109100" lon="34.9696100">
<ele>143.919998</ele>
<time>2024-02-20T10:15:30.742Z</time>
</trkpt>
<trkpt lat="31.9107700" lon="34.9694500">
<ele>145.660004</ele>
<time>2024-02-20T10:15:30.742Z</time>
</trkpt>
<trkpt lat="31.9105400" lon="34.9691600">
<ele>147.669998</ele>
<time>2024-02-20T10:15:30.742Z</time>
</trkpt>
<trkpt lat="31.9104200" lon="34.9690000">
<ele>144.949997</ele>
<time>2024-02-20T10:15:30.742Z</time>
</trkpt>
<trkpt lat="31.9103300" lon="34.9688600">
<ele>143.580002</ele>
<time>2024-02-20T10:15:30.742Z</time>
</trkpt>
<trkpt lat="31.9101400" lon="34.9685900">
<ele>141.020004</ele>
<time>2024-02-20T10:15:30.742Z</time>
</trkpt>
<trkpt lat="31.9098500" lon="34.9680400">
<ele>137.580002</ele>
<time>2024-02-20T10:15:30.742Z</time>
</trkpt>
<trkpt lat="31.9097600" lon="34.9678200">
<ele>139.680008</ele>
<time>2024-02-20T10:15:30.742Z</time>
</trkpt>
<trkpt lat="31.9095900" lon="34.9672900">
<ele>142.009995</ele>
<time>2024-02-20T10:15:30.742Z</time>
</trkpt>
<trkpt lat="31.9094900" lon="34.9669400">
<ele>141.970001</ele>
<time>2024-02-20T10:15:30.742Z</time>
</trkpt>
<trkpt lat="31.9089300" lon="34.9646300">
<ele>127.940002</ele>
<time>2024-02-20T10:15:30.742Z</time>
</trkpt>
<trkpt lat="31.9088800" lon="34.9644100">
<ele>126.760002</ele>
<time>2024-02-20T10:15:30.742Z</time>
</trkpt>
<trkpt lat="31.9088400" lon="34.9643400">
<ele>126.580002</ele>
<time>2024-02-20T10:15:30.742Z</time>
</trkpt>
<trkpt lat="31.9088100" lon="34.9642900">
<ele>126.470001</ele>
<time>2024-02-20T10:15:30.742Z</time>
</trkpt>
<trkpt lat="31.9087600" lon="34.9642300">
<ele>126.539993</ele>
<time>2024-02-20T10:15:30.742Z</time>
</trkpt>
<trkpt lat="31.9087000" lon="34.9641900">
<ele>126.970001</ele>
<time>2024-02-20T10:15:30.742Z</time>
</trkpt>
<trkpt lat="31.9087300" lon="34.9641900">
<ele>126.539993</ele>
<time>2024-02-20T10:15:30.742Z</time>
</trkpt>
<trkpt lat="31.9087500" lon="34.9641900">
<ele>126.249992</ele>
<time>2024-02-20T10:15:30.742Z</time>
</trkpt>
<trkpt lat="31.9087700" lon="34.9641800">
<ele>125.860001</ele>
<time>2024-02-20T10:15:30.742Z</time>
</trkpt>
<trkpt lat="31.9087900" lon="34.9641700">
<ele>125.459999</ele>
<time>2024-02-20T10:15:30.742Z</time>
</trkpt>
<trkpt lat="31.9088100" lon="34.9641600">
<ele>125.159996</ele>
<time>2024-02-20T10:15:30.742Z</time>
</trkpt>
<trkpt lat="31.9088300" lon="34.9641400">
<ele>124.959999</ele>
<time>2024-02-20T10:15:30.742Z</time>
</trkpt>
<trkpt lat="31.9088400" lon="34.9641200">
<ele>124.920006</ele>
<time>2024-02-20T10:15:30.742Z</time>
</trkpt>
<trkpt lat="31.9088600" lon="34.9641000">
<ele>124.800003</ele>
<time>2024-02-20T10:15:30.742Z</time>
</trkpt>
<trkpt lat="31.9088700" lon="34.9640400">
<ele>125.060005</ele>
<time>2024-02-20T10:15:30.742Z</time>
</trkpt>
<trkpt lat="31.9092300" lon="34.9639700">
<ele>118.479996</ele>
<time>2024-02-20T10:15:30.742Z</time>
</trkpt>
<trkpt lat="31.9095100" lon="34.9638800">
<ele>116.009995</ele>
<time>2024-02-20T10:15:30.742Z</time>
</trkpt>
<trkpt lat="31.9103000" lon="34.9636200">
<ele>132.309998</ele>
<time>2024-02-20T10:15:30.742Z</time>
</trkpt>
<trkpt lat="31.9105700" lon="34.9635200">
<ele>137.880005</ele>
<time>2024-02-20T10:15:30.742Z</time>
</trkpt>
<trkpt lat="31.9108200" lon="34.9634900">
<ele>142.099991</ele>
<time>2024-02-20T10:15:30.742Z</time>
</trkpt>
<trkpt lat="31.9109900" lon="34.9634300">
<ele>144.619995</ele>
<time>2024-02-20T10:15:30.742Z</time>
</trkpt>
<trkpt lat="31.9112100" lon="34.9634500">
<ele>147.620010</ele>
<time>2024-02-20T10:15:30.742Z</time>
</trkpt>
<trkpt lat="31.9114800" lon="34.9634900">
<ele>151.639999</ele>
<time>2024-02-20T10:15:30.742Z</time>
</trkpt>
<trkpt lat="31.9118200" lon="34.9636200">
<ele>154.139999</ele>
<time>2024-02-20T10:15:30.742Z</time>
</trkpt>
<trkpt lat="31.9120900" lon="34.9637700">
<ele>156.520004</ele>
<time>2024-02-20T10:15:30.742Z</time>
</trkpt>
<trkpt lat="31.9132700" lon="34.9646200">
<ele>157.919998</ele>
<time>2024-02-20T10:15:30.742Z</time>
</trkpt>
<trkpt lat="31.9132800" lon="34.9646700">
<ele>158.550003</ele>
<time>2024-02-20T10:15:30.742Z</time>
</trkpt>
<trkpt lat="31.9132900" lon="34.9647000">
<ele>159.000000</ele>
<time>2024-02-20T10:15:30.742Z</time>
</trkpt>
<trkpt lat="31.9133000" lon="34.9647300">
<ele>159.500000</ele>
<time>2024-02-20T10:15:30.742Z</time>
</trkpt>
<trkpt lat="31.9133100" lon="34.9647500">
<ele>159.949997</ele>
<time>2024-02-20T10:15:30.742Z</time>
</trkpt>
<trkpt lat="31.9133300" lon="34.9647800">
<ele>160.759995</ele>
<time>2024-02-20T10:15:30.742Z</time>
</trkpt>
<trkpt lat="31.9133500" lon="34.9648000">
<ele>160.869995</ele>
<time>2024-02-20T10:15:30.742Z</time>
</trkpt>
<trkpt lat="31.9133700" lon="34.9648100">
<ele>160.729996</ele>
<time>2024-02-20T10:15:30.742Z</time>
</trkpt>
<trkpt lat="31.9134000" lon="34.9648200">
<ele>160.459991</ele>
<time>2024-02-20T10:15:30.742Z</time>
</trkpt>
<trkpt lat="31.9134200" lon="34.9648300">
<ele>160.360001</ele>
<time>2024-02-20T10:15:30.742Z</time>
</trkpt>
<trkpt lat="31.9134500" lon="34.9648400">
<ele>160.130005</ele>
<time>2024-02-20T10:15:30.742Z</time>
</trkpt>
<trkpt lat="31.9134800" lon="34.9648300">
<ele>159.529999</ele>
<time>2024-02-20T10:15:30.742Z</time>
</trkpt>
<trkpt lat="31.9135000" lon="34.9648200">
<ele>159.040009</ele>
<time>2024-02-20T10:15:30.742Z</time>
</trkpt>
<trkpt lat="31.9135300" lon="34.9648100">
<ele>158.400009</ele>
<time>2024-02-20T10:15:30.742Z</time>
</trkpt>
<trkpt lat="31.9135500" lon="34.9648000">
<ele>157.880005</ele>
<time>2024-02-20T10:15:30.742Z</time>
</trkpt>
<trkpt lat="31.9135800" lon="34.9647900">
<ele>157.190002</ele>
<time>2024-02-20T10:15:30.742Z</time>
</trkpt>
<trkpt lat="31.9136200" lon="34.9648000">
<ele>156.840012</ele>
<time>2024-02-20T10:15:30.742Z</time>
</trkpt>
<trkpt lat="31.9136700" lon="34.9648100">
<ele>156.380005</ele>
<time>2024-02-20T10:15:30.742Z</time>
</trkpt>
<trkpt lat="31.9142800" lon="34.9651400">
<ele>160.540009</ele>
<time>2024-02-20T10:15:30.742Z</time>
</trkpt>
<trkpt lat="31.9143200" lon="34.9651700">
<ele>161.379990</ele>
<time>2024-02-20T10:15:30.742Z</time>
</trkpt>
<trkpt lat="31.9143400" lon="34.9651900">
<ele>161.870010</ele>
<time>2024-02-20T10:15:30.742Z</time>
</trkpt>
<trkpt lat="31.9143600" lon="34.9652000">
<ele>162.190002</ele>
<time>2024-02-20T10:15:30.742Z</time>
</trkpt>
<trkpt lat="31.9143800" lon="34.9652200">
<ele>162.660004</ele>
<time>2024-02-20T10:15:30.742Z</time>
</trkpt>
<trkpt lat="31.9144000" lon="34.9652300">
<ele>162.960007</ele>
<time>2024-02-20T10:15:30.742Z</time>
</trkpt>
<trkpt lat="31.9144100" lon="34.9652500">
<ele>163.339996</ele>
<time>2024-02-20T10:15:30.742Z</time>
</trkpt>
<trkpt lat="31.9144200" lon="34.9652700">
<ele>163.710007</ele>
<time>2024-02-20T10:15:30.742Z</time>
</trkpt>
<trkpt lat="31.9144300" lon="34.9652900">
<ele>163.900009</ele>
<time>2024-02-20T10:15:30.742Z</time>
</trkpt>
<trkpt lat="31.9144500" lon="34.9653100">
<ele>164.099991</ele>
<time>2024-02-20T10:15:30.742Z</time>
</trkpt>
<trkpt lat="31.9144500" lon="34.9653300">
<ele>164.089996</ele>
<time>2024-02-20T10:15:30.742Z</time>
</trkpt>
<trkpt lat="31.9144700" lon="34.9653500">
<ele>164.410004</ele>
<time>2024-02-20T10:15:30.742Z</time>
</trkpt>
<trkpt lat="31.9144700" lon="34.9653900">
<ele>164.389999</ele>
<time>2024-02-20T10:15:30.742Z</time>
</trkpt>
<trkpt lat="31.9144800" lon="34.9654100">
<ele>164.520004</ele>
<time>2024-02-20T10:15:30.742Z</time>
</trkpt>
<trkpt lat="31.9144800" lon="34.9654400">
<ele>164.489990</ele>
<time>2024-02-20T10:15:30.742Z</time>
</trkpt>
<trkpt lat="31.9144800" lon="34.9654600">
<ele>164.470001</ele>
<time>2024-02-20T10:15:30.742Z</time>
</trkpt>
<trkpt lat="31.9144800" lon="34.9654900">
<ele>164.440002</ele>
<time>2024-02-20T10:15:30.742Z</time>
</trkpt>
<trkpt lat="31.9144800" lon="34.9655200">
<ele>164.419998</ele>
<time>2024-02-20T10:15:30.742Z</time>
</trkpt>
<trkpt lat="31.9144800" lon="34.9655500">
<ele>164.389999</ele>
<time>2024-02-20T10:15:30.742Z</time>
</trkpt>
<trkpt lat="31.9144700" lon="34.9655800">
<ele>164.240005</ele>
<time>2024-02-20T10:15:30.742Z</time>
</trkpt>
<trkpt lat="31.9144700" lon="34.9656100">
<ele>164.190002</ele>
<time>2024-02-20T10:15:30.742Z</time>
</trkpt>
<trkpt lat="31.9144600" lon="34.9656400">
<ele>164.079987</ele>
<time>2024-02-20T10:15:30.742Z</time>
</trkpt>
<trkpt lat="31.9144400" lon="34.9658100">
<ele>164.000000</ele>
<time>2024-02-20T10:15:30.742Z</time>
</trkpt>
<trkpt lat="31.9144400" lon="34.9659900">
<ele>164.029999</ele>
<time>2024-02-20T10:15:30.742Z</time>
</trkpt>
<trkpt lat="31.9144600" lon="34.9661500">
<ele>164.130005</ele>
<time>2024-02-20T10:15:30.742Z</time>
</trkpt>
<trkpt lat="31.9144900" lon="34.9663100">
<ele>165.210007</ele>
<time>2024-02-20T10:15:30.742Z</time>
</trkpt>
<trkpt lat="31.9145400" lon="34.9664700">
<ele>165.230011</ele>
<time>2024-02-20T10:15:30.742Z</time>
</trkpt>
<trkpt lat="31.9146100" lon="34.9666100">
<ele>164.220001</ele>
<time>2024-02-20T10:15:30.742Z</time>
</trkpt>
<trkpt lat="31.9147000" lon="34.9667400">
<ele>162.149994</ele>
<time>2024-02-20T10:15:30.742Z</time>
</trkpt>
<trkpt lat="31.9147900" lon="34.9668600">
<ele>161.160004</ele>
<time>2024-02-20T10:15:30.742Z</time>
</trkpt>
<trkpt lat="31.9149100" lon="34.9669600">
<ele>160.889999</ele>
<time>2024-02-20T10:15:30.742Z</time>
</trkpt>
<trkpt lat="31.9150300" lon="34.9670500">
<ele>159.960007</ele>
<time>2024-02-20T10:15:30.742Z</time>
</trkpt>
<trkpt lat="31.9151600" lon="34.9671300">
<ele>158.319992</ele>
<time>2024-02-20T10:15:30.742Z</time>
</trkpt>
<trkpt lat="31.9163200" lon="34.9678400">
<ele>150.809998</ele>
<time>2024-02-20T10:15:30.742Z</time>
</trkpt>
<trkpt lat="31.9163200" lon="34.9678400">
<ele>150.809998</ele>
<time>2024-02-20T10:15:30.742Z</time>
</trkpt>
<trkpt lat="31.9165400" lon="34.9679700">
<ele>151.099991</ele>
<time>2024-02-20T10:15:30.742Z</time>
</trkpt>
<trkpt lat="31.9168100" lon="34.9681400">
<ele>147.509995</ele>
<time>2024-02-20T10:15:30.742Z</time>
</trkpt>
<trkpt lat="31.9168800" lon="34.9681700">
<ele>146.220001</ele>
<time>2024-02-20T10:15:30.742Z</time>
</trkpt>
<trkpt lat="31.9169500" lon="34.9682100">
<ele>145.100006</ele>
<time>2024-02-20T10:15:30.742Z</time>
</trkpt>
<trkpt lat="31.9170200" lon="34.9682300">
<ele>145.190002</ele>
<time>2024-02-20T10:15:30.742Z</time>
</trkpt>
<trkpt lat="31.9170800" lon="34.9682600">
<ele>145.680008</ele>
<time>2024-02-20T10:15:30.742Z</time>
</trkpt>
<trkpt lat="31.9171500" lon="34.9682800">
<ele>146.240005</ele>
<time>2024-02-20T10:15:30.742Z</time>
</trkpt>
<trkpt lat="31.9172200" lon="34.9682900">
<ele>146.740005</ele>
<time>2024-02-20T10:15:30.742Z</time>
</trkpt>
<trkpt lat="31.9172900" lon="34.9683000">
<ele>146.089996</ele>
<time>2024-02-20T10:15:30.742Z</time>
</trkpt>
<trkpt lat="31.9173700" lon="34.9683100">
<ele>145.240005</ele>
<time>2024-02-20T10:15:30.742Z</time>
</trkpt>
<trkpt lat="31.9174500" lon="34.9683200">
<ele>144.379990</ele>
<time>2024-02-20T10:15:30.742Z</time>
</trkpt>
<trkpt lat="31.9175300" lon="34.9683200">
<ele>143.779999</ele>
<time>2024-02-20T10:15:30.742Z</time>
</trkpt>
<trkpt lat="31.9176400" lon="34.9683200">
<ele>144.190002</ele>
<time>2024-02-20T10:15:30.742Z</time>
</trkpt>
<trkpt lat="31.9189400" lon="34.9683400">
<ele>135.440002</ele>
<time>2024-02-20T10:15:30.742Z</time>
</trkpt>
<trkpt lat="31.9192500" lon="34.9683400">
<ele>137.369995</ele>
<time>2024-02-20T10:15:30.742Z</time>
</trkpt>
<trkpt lat="31.9195100" lon="34.9683400">
<ele>137.819992</ele>
<time>2024-02-20T10:15:30.742Z</time>
</trkpt>
<trkpt lat="31.9196600" lon="34.9683400">
<ele>137.240005</ele>
<time>2024-02-20T10:15:30.742Z</time>
</trkpt>
<trkpt lat="31.9201900" lon="34.9683500">
<ele>141.850006</ele>
<time>2024-02-20T10:15:30.742Z</time>
</trkpt>
<trkpt lat="31.9203000" lon="34.9683600">
<ele>145.139999</ele>
<time>2024-02-20T10:15:30.742Z</time>
</trkpt>
<trkpt lat="31.9203800" lon="34.9683600">
<ele>146.690002</ele>
<time>2024-02-20T10:15:30.742Z</time>
</trkpt>
<trkpt lat="31.9204100" lon="34.9683700">
<ele>147.240005</ele>
<time>2024-02-20T10:15:30.742Z</time>
</trkpt>
<trkpt lat="31.9205200" lon="34.9683900">
<ele>149.460007</ele>
<time>2024-02-20T10:15:30.742Z</time>
</trkpt>
<trkpt lat="31.9206300" lon="34.9684100">
<ele>151.539993</ele>
<time>2024-02-20T10:15:30.742Z</time>
</trkpt>
<trkpt lat="31.9207400" lon="34.9684400">
<ele>153.449997</ele>
<time>2024-02-20T10:15:30.742Z</time>
</trkpt>
<trkpt lat="31.9207700" lon="34.9684500">
<ele>153.959991</ele>
<time>2024-02-20T10:15:30.742Z</time>
</trkpt>
<trkpt lat="31.9208400" lon="34.9684700">
<ele>155.110001</ele>
<time>2024-02-20T10:15:30.742Z</time>
</trkpt>
<trkpt lat="31.9209400" lon="34.9685100">
<ele>156.569992</ele>
<time>2024-02-20T10:15:30.742Z</time>
</trkpt>
<trkpt lat="31.9210300" lon="34.9685400">
<ele>157.669998</ele>
<time>2024-02-20T10:15:30.742Z</time>
</trkpt>
<trkpt lat="31.9211100" lon="34.9685800">
<ele>158.319992</ele>
<time>2024-02-20T10:15:30.742Z</time>
</trkpt>
<trkpt lat="31.9211900" lon="34.9686200">
<ele>158.009995</ele>
<time>2024-02-20T10:15:30.742Z</time>
</trkpt>
<trkpt lat="31.9212700" lon="34.9686700">
<ele>158.120010</ele>
<time>2024-02-20T10:15:30.742Z</time>
</trkpt>
<trkpt lat="31.9213500" lon="34.9687200">
<ele>158.339996</ele>
<time>2024-02-20T10:15:30.742Z</time>
</trkpt>
<trkpt lat="31.9213800" lon="34.9687500">
<ele>158.479996</ele>
<time>2024-02-20T10:15:30.742Z</time>
</trkpt>
<trkpt lat="31.9214300" lon="34.9687800">
<ele>158.429993</ele>
<time>2024-02-20T10:15:30.742Z</time>
</trkpt>
<trkpt lat="31.9215000" lon="34.9688300">
<ele>158.160004</ele>
<time>2024-02-20T10:15:30.742Z</time>
</trkpt>
<trkpt lat="31.9215700" lon="34.9688900">
<ele>157.699997</ele>
<time>2024-02-20T10:15:30.742Z</time>
</trkpt>
<trkpt lat="31.9216400" lon="34.9689400">
<ele>157.389999</ele>
<time>2024-02-20T10:15:30.742Z</time>
</trkpt>
<trkpt lat="31.9217100" lon="34.9690000">
<ele>157.679993</ele>
<time>2024-02-20T10:15:30.742Z</time>
</trkpt>
<trkpt lat="31.9217700" lon="34.9690700">
<ele>158.040009</ele>
<time>2024-02-20T10:15:30.742Z</time>
</trkpt>
<trkpt lat="31.9218400" lon="34.9691300">
<ele>158.120010</ele>
<time>2024-02-20T10:15:30.742Z</time>
</trkpt>
<trkpt lat="31.9219000" lon="34.9691900">
<ele>157.750000</ele>
<time>2024-02-20T10:15:30.742Z</time>
</trkpt>
<trkpt lat="31.9219200" lon="34.9692200">
<ele>157.419998</ele>
<time>2024-02-20T10:15:30.742Z</time>
</trkpt>
<trkpt lat="31.9219400" lon="34.9692400">
<ele>157.209991</ele>
<time>2024-02-20T10:15:30.742Z</time>
</trkpt>
<trkpt lat="31.9219600" lon="34.9692600">
<ele>157.070007</ele>
<time>2024-02-20T10:15:30.742Z</time>
</trkpt>
<trkpt lat="31.9219800" lon="34.9692800">
<ele>157.010010</ele>
<time>2024-02-20T10:15:30.742Z</time>
</trkpt>
<trkpt lat="31.9219900" lon="34.9693100">
<ele>156.880005</ele>
<time>2024-02-20T10:15:30.742Z</time>
</trkpt>
<trkpt lat="31.9220100" lon="34.9693300">
<ele>156.969986</ele>
<time>2024-02-20T10:15:30.742Z</time>
</trkpt>
<trkpt lat="31.9220200" lon="34.9693500">
<ele>157.000000</ele>
<time>2024-02-20T10:15:30.742Z</time>
</trkpt>
<trkpt lat="31.9220300" lon="34.9693800">
<ele>157.039993</ele>
<time>2024-02-20T10:15:30.742Z</time>
</trkpt>
<trkpt lat="31.9220400" lon="34.9694000">
<ele>157.160004</ele>
<time>2024-02-20T10:15:30.742Z</time>
</trkpt>
<trkpt lat="31.9220500" lon="34.9694400">
<ele>157.290009</ele>
<time>2024-02-20T10:15:30.742Z</time>
</trkpt>
<trkpt lat="31.9220500" lon="34.9694600">
<ele>157.339996</ele>
<time>2024-02-20T10:15:30.742Z</time>
</trkpt>
<trkpt lat="31.9220600" lon="34.9694800">
<ele>157.659988</ele>
<time>2024-02-20T10:15:30.742Z</time>
</trkpt>
<trkpt lat="31.9220600" lon="34.9695000">
<ele>157.750000</ele>
<time>2024-02-20T10:15:30.742Z</time>
</trkpt>
<trkpt lat="31.9220700" lon="34.9695300">
<ele>158.129990</ele>
<time>2024-02-20T10:15:30.742Z</time>
</trkpt>
<trkpt lat="31.9220900" lon="34.9695600">
<ele>158.800003</ele>
<time>2024-02-20T10:15:30.742Z</time>
</trkpt>
<trkpt lat="31.9221100" lon="34.9695900">
<ele>159.510010</ele>
<time>2024-02-20T10:15:30.742Z</time>
</trkpt>
<trkpt lat="31.9221300" lon="34.9696100">
<ele>160.200012</ele>
<time>2024-02-20T10:15:30.742Z</time>
</trkpt>
<trkpt lat="31.9221600" lon="34.9696300">
<ele>161.209991</ele>
<time>2024-02-20T10:15:30.742Z</time>
</trkpt>
<trkpt lat="31.9221800" lon="34.9696400">
<ele>161.880005</ele>
<time>2024-02-20T10:15:30.742Z</time>
</trkpt>
<trkpt lat="31.9222100" lon="34.9696500">
<ele>162.860001</ele>
<time>2024-02-20T10:15:30.742Z</time>
</trkpt>
<trkpt lat="31.9222400" lon="34.9696500">
<ele>163.479996</ele>
<time>2024-02-20T10:15:30.742Z</time>
</trkpt>
<trkpt lat="31.9222700" lon="34.9696500">
<ele>163.909988</ele>
<time>2024-02-20T10:15:30.742Z</time>
</trkpt>
<trkpt lat="31.9222800" lon="34.9696500">
<ele>164.050003</ele>
<time>2024-02-20T10:15:30.742Z</time>
</trkpt>
<trkpt lat="31.9223100" lon="34.9696400">
<ele>164.379990</ele>
<time>2024-02-20T10:15:30.742Z</time>
</trkpt>
<trkpt lat="31.9223300" lon="34.9696300">
<ele>164.559998</ele>
<time>2024-02-20T10:15:30.742Z</time>
</trkpt>
<trkpt lat="31.9223600" lon="34.9696100">
<ele>164.770004</ele>
<time>2024-02-20T10:15:30.742Z</time>
</trkpt>
<trkpt lat="31.9223800" lon="34.9695900">
<ele>164.839996</ele>
<time>2024-02-20T10:15:30.742Z</time>
</trkpt>
<trkpt lat="31.9224000" lon="34.9695600">
<ele>164.809998</ele>
<time>2024-02-20T10:15:30.742Z</time>
</trkpt>
<trkpt lat="31.9224200" lon="34.9695300">
<ele>164.770004</ele>
<time>2024-02-20T10:15:30.742Z</time>
</trkpt>
<trkpt lat="31.9224300" lon="34.9695000">
<ele>164.589996</ele>
<time>2024-02-20T10:15:30.742Z</time>
</trkpt>
<trkpt lat="31.9224300" lon="34.9694600">
<ele>164.160004</ele>
<time>2024-02-20T10:15:30.742Z</time>
</trkpt>
<trkpt lat="31.9224400" lon="34.9694300">
<ele>163.889999</ele>
<time>2024-02-20T10:15:30.742Z</time>
</trkpt>
<trkpt lat="31.9224300" lon="34.9693900">
<ele>163.059998</ele>
<time>2024-02-20T10:15:30.742Z</time>
</trkpt>
<trkpt lat="31.9224300" lon="34.9693500">
<ele>162.380005</ele>
<time>2024-02-20T10:15:30.742Z</time>
</trkpt>
<trkpt lat="31.9224300" lon="34.9693300">
<ele>162.040009</ele>
<time>2024-02-20T10:15:30.742Z</time>
</trkpt>
<trkpt lat="31.9224300" lon="34.9693100">
<ele>161.690002</ele>
<time>2024-02-20T10:15:30.742Z</time>
</trkpt>
<trkpt lat="31.9224300" lon="34.9692900">
<ele>161.350006</ele>
<time>2024-02-20T10:15:30.742Z</time>
</trkpt>
<trkpt lat="31.9224400" lon="34.9692800">
<ele>161.300003</ele>
<time>2024-02-20T10:15:30.742Z</time>
</trkpt>
<trkpt lat="31.9224400" lon="34.9692600">
<ele>160.959991</ele>
<time>2024-02-20T10:15:30.742Z</time>
</trkpt>
<trkpt lat="31.9224400" lon="34.9692400">
<ele>160.609985</ele>
<time>2024-02-20T10:15:30.742Z</time>
</trkpt>
<trkpt lat="31.9224500" lon="34.9692200">
<ele>160.389999</ele>
<time>2024-02-20T10:15:30.742Z</time>
</trkpt>
<trkpt lat="31.9224600" lon="34.9692100">
<ele>160.330002</ele>
<time>2024-02-20T10:15:30.742Z</time>
</trkpt>
<trkpt lat="31.9224600" lon="34.9691900">
<ele>159.979996</ele>
<time>2024-02-20T10:15:30.742Z</time>
</trkpt>
<trkpt lat="31.9224700" lon="34.9691700">
<ele>159.730011</ele>
<time>2024-02-20T10:15:30.742Z</time>
</trkpt>
<trkpt lat="31.9225200" lon="34.9690800">
<ele>159.250000</ele>
<time>2024-02-20T10:15:30.742Z</time>
</trkpt>
<trkpt lat="31.9225500" lon="34.9689900">
<ele>158.680008</ele>
<time>2024-02-20T10:15:30.742Z</time>
</trkpt>
<trkpt lat="31.9225800" lon="34.9689100">
<ele>158.339996</ele>
<time>2024-02-20T10:15:30.742Z</time>
</trkpt>
<trkpt lat="31.9226100" lon="34.9688300">
<ele>158.580002</ele>
<time>2024-02-20T10:15:30.742Z</time>
</trkpt>
<trkpt lat="31.9226400" lon="34.9687600">
<ele>159.020004</ele>
<time>2024-02-20T10:15:30.742Z</time>
</trkpt>
<trkpt lat="31.9226400" lon="34.9687400">
<ele>159.020004</ele>
<time>2024-02-20T10:15:30.742Z</time>
</trkpt>
<trkpt lat="31.9226600" lon="34.9686800">
<ele>159.300003</ele>
<time>2024-02-20T10:15:30.742Z</time>
</trkpt>
<trkpt lat="31.9226700" lon="34.9686200">
<ele>159.450012</ele>
<time>2024-02-20T10:15:30.742Z</time>
</trkpt>
<trkpt lat="31.9226900" lon="34.9685500">
<ele>160.379990</ele>
<time>2024-02-20T10:15:30.742Z</time>
</trkpt>
<trkpt lat="31.9227000" lon="34.9684800">
<ele>161.220001</ele>
<time>2024-02-20T10:15:30.742Z</time>
</trkpt>
<trkpt lat="31.9227100" lon="34.9684200">
<ele>161.899994</ele>
<time>2024-02-20T10:15:30.742Z</time>
</trkpt>
<trkpt lat="31.9227900" lon="34.9678600">
<ele>166.100006</ele>
<time>2024-02-20T10:15:30.742Z</time>
</trkpt>
<trkpt lat="31.9227900" lon="34.9678400">
<ele>166.100006</ele>
<time>2024-02-20T10:15:30.742Z</time>
</trkpt>
<trkpt lat="31.9228000" lon="34.9678100">
<ele>166.170013</ele>
<time>2024-02-20T10:15:30.742Z</time>
</trkpt>
<trkpt lat="31.9228100" lon="34.9677900">
<ele>166.239990</ele>
<time>2024-02-20T10:15:30.742Z</time>
</trkpt>
<trkpt lat="31.9228100" lon="34.9677700">
<ele>166.069992</ele>
<time>2024-02-20T10:15:30.742Z</time>
</trkpt>
<trkpt lat="31.9228200" lon="34.9677500">
<ele>165.729996</ele>
<time>2024-02-20T10:15:30.742Z</time>
</trkpt>
<trkpt lat="31.9228300" lon="34.9677400">
<ele>165.610001</ele>
<time>2024-02-20T10:15:30.742Z</time>
</trkpt>
<trkpt lat="31.9228400" lon="34.9677200">
<ele>165.290009</ele>
<time>2024-02-20T10:15:30.742Z</time>
</trkpt>
<trkpt lat="31.9228500" lon="34.9677100">
<ele>165.180008</ele>
<time>2024-02-20T10:15:30.742Z</time>
</trkpt>
<trkpt lat="31.9228500" lon="34.9676900">
<ele>164.789993</ele>
<time>2024-02-20T10:15:30.742Z</time>
</trkpt>
<trkpt lat="31.9228700" lon="34.9676800">
<ele>164.789993</ele>
<time>2024-02-20T10:15:30.742Z</time>
</trkpt>
<trkpt lat="31.9228700" lon="34.9676800">
<ele>164.789993</ele>
<time>2024-02-20T10:15:30.742Z</time>
</trkpt>
<trkpt lat="31.9228900" lon="34.9676600">
<ele>164.610001</ele>
<time>2024-02-20T10:15:30.742Z</time>
</trkpt>
<trkpt lat="31.9229100" lon="34.9676400">
<ele>164.449997</ele>
<time>2024-02-20T10:15:30.742Z</time>
</trkpt>
<trkpt lat="31.9229300" lon="34.9676100">
<ele>164.130005</ele>
<time>2024-02-20T10:15:30.742Z</time>
</trkpt>
<trkpt lat="31.9229400" lon="34.9675800">
<ele>163.730011</ele>
<time>2024-02-20T10:15:30.742Z</time>
</trkpt>
<trkpt lat="31.9229500" lon="34.9675400">
<ele>163.169998</ele>
<time>2024-02-20T10:15:30.742Z</time>
</trkpt>
<trkpt lat="31.9229600" lon="34.9675000">
<ele>162.620010</ele>
<time>2024-02-20T10:15:30.742Z</time>
</trkpt>
<trkpt lat="31.9229600" lon="34.9674600">
<ele>161.999985</ele>
<time>2024-02-20T10:15:30.742Z</time>
</trkpt>
<trkpt lat="31.9229600" lon="34.9674200">
<ele>161.379990</ele>
<time>2024-02-20T10:15:30.742Z</time>
</trkpt>
<trkpt lat="31.9229500" lon="34.9673800">
<ele>160.650009</ele>
<time>2024-02-20T10:15:30.742Z</time>
</trkpt>
<trkpt lat="31.9229400" lon="34.9673400">
<ele>159.940002</ele>
<time>2024-02-20T10:15:30.742Z</time>
</trkpt>
<trkpt lat="31.9229200" lon="34.9673000">
<ele>159.150009</ele>
<time>2024-02-20T10:15:30.742Z</time>
</trkpt>
<trkpt lat="31.9229200" lon="34.9672700">
<ele>158.720001</ele>
<time>2024-02-20T10:15:30.742Z</time>
</trkpt>
<trkpt lat="31.9229200" lon="34.9672600">
<ele>158.570007</ele>
<time>2024-02-20T10:15:30.742Z</time>
</trkpt>
<trkpt lat="31.9229100" lon="34.9672400">
<ele>158.199997</ele>
<time>2024-02-20T10:15:30.742Z</time>
</trkpt>
<trkpt lat="31.9229100" lon="34.9672200">
<ele>157.930008</ele>
<time>2024-02-20T10:15:30.742Z</time>
</trkpt>
<trkpt lat="31.9229100" lon="34.9672000">
<ele>157.740005</ele>
<time>2024-02-20T10:15:30.742Z</time>
</trkpt>
<trkpt lat="31.9229100" lon="34.9671800">
<ele>157.549988</ele>
<time>2024-02-20T10:15:30.742Z</time>
</trkpt>
<trkpt lat="31.9229100" lon="34.9671600">
<ele>157.370010</ele>
<time>2024-02-20T10:15:30.742Z</time>
</trkpt>
<trkpt lat="31.9229100" lon="34.9671400">
<ele>157.180008</ele>
<time>2024-02-20T10:15:30.742Z</time>
</trkpt>
<trkpt lat="31.9229200" lon="34.9671200">
<ele>157.130005</ele>
<time>2024-02-20T10:15:30.742Z</time>
</trkpt>
<trkpt lat="31.9229200" lon="34.9670900">
<ele>156.860001</ele>
<time>2024-02-20T10:15:30.742Z</time>
</trkpt>
<trkpt lat="31.9230700" lon="34.9662200">
<ele>152.459991</ele>
<time>2024-02-20T10:15:30.742Z</time>
</trkpt>
<trkpt lat="31.9230700" lon="34.9662000">
<ele>152.240005</ele>
<time>2024-02-20T10:15:30.742Z</time>
</trkpt>
<trkpt lat="31.9230800" lon="34.9661700">
<ele>152.089996</ele>
<time>2024-02-20T10:15:30.742Z</time>
</trkpt>
<trkpt lat="31.9230900" lon="34.9661600">
<ele>152.169998</ele>
<time>2024-02-20T10:15:30.742Z</time>
</trkpt>
<trkpt lat="31.9231000" lon="34.9661400">
<ele>152.130005</ele>
<time>2024-02-20T10:15:30.742Z</time>
</trkpt>
<trkpt lat="31.9231100" lon="34.9661200">
<ele>152.080002</ele>
<time>2024-02-20T10:15:30.742Z</time>
</trkpt>
<trkpt lat="31.9231200" lon="34.9661100">
<ele>152.149994</ele>
<time>2024-02-20T10:15:30.742Z</time>
</trkpt>
<trkpt lat="31.9231500" lon="34.9660700">
<ele>152.449997</ele>
<time>2024-02-20T10:15:30.742Z</time>
</trkpt>
<trkpt lat="31.9231700" lon="34.9660600">
<ele>152.720001</ele>
<time>2024-02-20T10:15:30.742Z</time>
</trkpt>
<trkpt lat="31.9231900" lon="34.9660500">
<ele>152.990005</ele>
<time>2024-02-20T10:15:30.742Z</time>
</trkpt>
<trkpt lat="31.9232100" lon="34.9660300">
<ele>153.160004</ele>
<time>2024-02-20T10:15:30.742Z</time>
</trkpt>
<trkpt lat="31.9232200" lon="34.9660100">
<ele>153.169998</ele>
<time>2024-02-20T10:15:30.742Z</time>
</trkpt>
<trkpt lat="31.9232400" lon="34.9659900">
<ele>153.300003</ele>
<time>2024-02-20T10:15:30.742Z</time>
</trkpt>
<trkpt lat="31.9232400" lon="34.9659600">
<ele>153.050003</ele>
<time>2024-02-20T10:15:30.742Z</time>
</trkpt>
<trkpt lat="31.9236800" lon="34.9661600">
<ele>163.830002</ele>
<time>2024-02-20T10:15:30.742Z</time>
</trkpt>
<trkpt lat="31.9238300" lon="34.9662200">
<ele>167.979996</ele>
<time>2024-02-20T10:15:30.742Z</time>
</trkpt>
<trkpt lat="31.9238000" lon="34.9663100">
<ele>166.770004</ele>
<time>2024-02-20T10:15:30.742Z</time>
</trkpt>
</trkseg>
</trk>
</gpx>
